[[{"header":{"parameterUnit":"m.s-1","parameterCategory":1,"la1":30.6,"la2":29.2853,"lo1":-89.7004,"lo2":-87.6739,"dy":0.0162,"dx":0.0183,"nx":112,"ny":82,"refTime":"2024-09-10T00:00:00:Z","depth":0,"parameterNumber":2,"parameterNumberName":"U-component_of_WINDS"},"data":[0.0,0.0,0.0,0.0,0.0,0.0,0.0,0.0,0.0,0.0,0.0,0.0,0.0,0.0,0.0,0.0,0.0,0.0,0.0,0.0,0.0,0.0,0.0,0.0,0.0,0.0,0.0,0.0,0.0,0.0,0.0,0.0,0.0,0.0,0.0,0.0,0.0,0.0,0.0,0.0,0.0,0.0,0.0,0.0,0.0,0.0,0.0,0.0,0.0,0.0,0.0,0.0,0.0,0.0,0.0,0.0,0.0,0.0,0.0,0.0,0.0,0.0,0.0,0.0,0.0,0.0,0.0,0.0,0.0,0.0,0.0,0.0,0.0,0.0,0.0,0.0,0.0,0.0,0.0,0.0,0.0,0.0,0.0,0.0,0.0,0.0,0.0,0.0,0.0,0.0,-2.5059,-2.5661,-2.6163,-2.6653,-2.7118,-2.7155,-2.664,-2.5423,0.0,0.0,0.0,0.0,0.0,0.0,0.0,0.0,0.0,0.0,0.0,0.0,0.0,0.0,0.0,0.0,0.0,0.0,0.0,0.0,0.0,0.0,0.0,0.0,0.0,0.0,0.0,0.0,0.0,0.0,0.0,0.0,0.0,0.0,0.0,0.0,0.0,0.0,0.0,0.0,0.0,0.0,0.0,0.0,0.0,0.0,0.0,0.0,0.0,0.0,0.0,0.0,0.0,0.0,0.0,0.0,0.0,0.0,0.0,0.0,0.0,0.0,0.0,0.0,0.0,0.0,0.0,0.0,0.0,0.0,0.0,0.0,0.0,0.0,0.0,0.0,0.0,0.0,0.0,0.0,0.0,0.0,0.0,0.0,0.0,0.0,0.0,0.0,0.0,0.0,0.0,0.0,0.0,0.0,0.0,0.0,0.0,0.0,0.0,0.0,0.0,0.0,0.0,0.0,-2.5209,-2.6214,-2.6483,-2.6559,-2.6647,-2.6647,-2.5912,-2.4343,0.0,0.0,0.0,0.0,0.0,0.0,0.0,0.0,0.0,0.0,0.0,0.0,0.0,0.0,0.0,0.0,0.0,0.0,0.0,0.0,0.0,0.0,0.0,0.0,0.0,0.0,0.0,0.0,0.0,0.0,0.0,0.0,0.0,0.0,0.0,0.0,0.0,0.0,0.0,0.0,0.0,0.0,0.0,0.0,0.0,0.0,0.0,0.0,0.0,0.0,0.0,0.0,0.0,0.0,0.0,0.0,0.0,0.0,0.0,0.0,0.0,0.0,0.0,0.0,0.0,0.0,0.0,0.0,0.0,0.0,0.0,0.0,0.0,0.0,0.0,0.0,0.0,0.0,0.0,0.0,0.0,0.0,0.0,0.0,0.0,0.0,0.0,0.0,0.0,0.0,0.0,0.0,0.0,0.0,0.0,0.0,0.0,0.0,0.0,0.0,0.0,0.0,0.0,-2.4921,-2.5435,-2.5937,-2.5988,-2.5875,-2.5598,-2.5824,-2.5285,-2.364,-2.3766,0.0,0.0,0.0,0.0,0.0,0.0,0.0,0.0,0.0,0.0,0.0,0.0,0.0,0.0,0.0,0.0,0.0,0.0,0.0,0.0,0.0,0.0,0.0,0.0,0.0,0.0,0.0,0.0,0.0,0.0,0.0,0.0,0.0,0.0,0.0,0.0,0.0,0.0,0.0,0.0,0.0,0.0,0.0,0.0,0.0,0.0,0.0,0.0,0.0,0.0,0.0,0.0,0.0,0.0,0.0,0.0,0.0,0.0,0.0,0.0,0.0,0.0,0.0,0.0,0.0,0.0,0.0,0.0,0.0,0.0,0.0,0.0,0.0,0.0,0.0,0.0,0.0,0.0,0.0,0.0,0.0,0.0,0.0,0.0,0.0,0.0,0.0,0.0,0.0,0.0,0.0,0.0,0.0,0.0,0.0,0.0,0.0,0.0,0.0,0.0,0.0,0.0,-2.5636,-2.5749,-2.5611,-2.5598,-2.5385,-2.487,-2.5071,-2.4569,-2.3037,-2.2824,0.0,0.0,0.0,0.0,0.0,0.0,0.0,0.0,0.0,0.0,0.0,0.0,0.0,0.0,0.0,0.0,0.0,0.0,0.0,0.0,0.0,0.0,0.0,0.0,0.0,0.0,0.0,0.0,0.0,0.0,0.0,0.0,0.0,0.0,0.0,0.0,0.0,0.0,0.0,0.0,0.0,0.0,0.0,0.0,0.0,0.0,0.0,0.0,0.0,0.0,0.0,0.0,0.0,0.0,0.0,0.0,0.0,0.0,0.0,0.0,0.0,0.0,0.0,0.0,0.0,0.0,0.0,0.0,0.0,0.0,0.0,0.0,0.0,0.0,0.0,0.0,0.0,0.0,0.0,0.0,0.0,0.0,0.0,0.0,0.0,0.0,0.0,0.0,0.0,0.0,0.0,0.0,0.0,0.0,0.0,0.0,0.0,0.0,0.0,0.0,0.0,0.0,-2.5774,-2.6189,-2.5649,-2.5598,-2.5385,-2.487,-2.4393,-2.3615,-2.2447,-2.1895,0.0,0.0,0.0,0.0,0.0,0.0,0.0,0.0,0.0,0.0,0.0,0.0,0.0,0.0,0.0,0.0,0.0,0.0,0.0,0.0,0.0,0.0,0.0,0.0,0.0,0.0,0.0,0.0,0.0,0.0,0.0,0.0,0.0,0.0,0.0,0.0,0.0,0.0,0.0,0.0,0.0,0.0,0.0,0.0,0.0,0.0,0.0,0.0,0.0,0.0,0.0,0.0,0.0,0.0,0.0,0.0,0.0,0.0,0.0,0.0,0.0,0.0,0.0,0.0,0.0,0.0,0.0,0.0,0.0,0.0,0.0,0.0,0.0,0.0,0.0,0.0,0.0,0.0,0.0,0.0,0.0,0.0,0.0,0.0,0.0,0.0,0.0,0.0,0.0,0.0,0.0,0.0,0.0,0.0,0.0,0.0,0.0,0.0,0.0,0.0,0.0,0.0,-2.4565,-2.4808,-2.425,-2.4756,-2.4551,-2.3128,-2.3113,-2.2578,-2.1098,0.0,0.0,0.0,0.0,0.0,0.0,0.0,0.0,0.0,0.0,0.0,0.0,0.0,0.0,0.0,0.0,0.0,0.0,0.0,0.0,0.0,0.0,0.0,0.0,0.0,0.0,0.0,0.0,0.0,0.0,0.0,0.0,0.0,0.0,0.0,0.0,0.0,0.0,0.0,0.0,0.0,0.0,0.0,0.0,0.0,0.0,0.0,0.0,0.0,0.0,0.0,0.0,0.0,0.0,0.0,0.0,0.0,0.0,0.0,0.0,0.0,0.0,0.0,0.0,0.0,0.0,0.0,0.0,0.0,0.0,0.0,0.0,0.0,0.0,0.0,0.0,0.0,0.0,0.0,0.0,0.0,0.0,0.0,0.0,0.0,0.0,0.0,0.0,0.0,0.0,0.0,0.0,0.0,0.0,0.0,0.0,0.0,0.0,0.0,0.0,0.0,0.0,-2.2622,-2.3537,-2.37,-2.2945,-2.3501,-2.328,-2.1647,-2.1654,-2.1183,-1.9948,0.0,0.0,0.0,0.0,0.0,0.0,0.0,0.0,0.0,0.0,0.0,0.0,0.0,0.0,0.0,0.0,0.0,0.0,0.0,0.0,0.0,0.0,0.0,0.0,0.0,0.0,0.0,0.0,0.0,0.0,0.0,0.0,0.0,0.0,0.0,0.0,0.0,0.0,0.0,0.0,0.0,0.0,0.0,0.0,0.0,0.0,0.0,0.0,0.0,0.0,0.0,0.0,0.0,0.0,0.0,0.0,0.0,0.0,0.0,0.0,0.0,0.0,0.0,0.0,0.0,0.0,0.0,0.0,0.0,0.0,0.0,0.0,0.0,0.0,0.0,0.0,0.0,0.0,0.0,0.0,0.0,0.0,0.0,0.0,0.0,0.0,0.0,0.0,0.0,0.0,0.0,0.0,0.0,0.0,0.0,0.0,0.0,0.0,0.0,0.0,0.0,0.0,-2.1844,-2.2827,-2.3061,-2.2079,-2.1967,-2.1643,-2.068,-2.0057,-1.9505,0.0,0.0,0.0,0.0,0.0,0.0,0.0,0.0,0.0,0.0,0.0,0.0,0.0,0.0,0.0,0.0,0.0,0.0,0.0,0.0,0.0,0.0,0.0,0.0,0.0,0.0,0.0,0.0,0.0,0.0,0.0,0.0,0.0,0.0,0.0,0.0,0.0,0.0,0.0,0.0,0.0,0.0,0.0,0.0,0.0,0.0,0.0,0.0,0.0,0.0,0.0,0.0,0.0,0.0,0.0,0.0,0.0,0.0,0.0,0.0,0.0,0.0,0.0,0.0,0.0,0.0,0.0,0.0,0.0,0.0,0.0,0.0,0.0,0.0,0.0,0.0,0.0,0.0,0.0,0.0,0.0,0.0,0.0,0.0,0.0,0.0,0.0,0.0,0.0,0.0,0.0,0.0,0.0,0.0,0.0,0.0,0.0,0.0,0.0,0.0,0.0,0.0,0.0,-2.0828,-2.1827,-2.2051,-2.1112,-2.1633,-2.1373,-1.9834,-1.9489,-1.9062,-1.8262,0.0,0.0,0.0,0.0,0.0,0.0,0.0,0.0,0.0,0.0,0.0,0.0,0.0,0.0,0.0,0.0,0.0,0.0,0.0,0.0,0.0,0.0,0.0,0.0,0.0,0.0,0.0,0.0,0.0,0.0,0.0,0.0,0.0,0.0,0.0,0.0,0.0,0.0,0.0,0.0,0.0,0.0,0.0,0.0,0.0,0.0,0.0,0.0,0.0,0.0,0.0,0.0,0.0,0.0,0.0,0.0,0.0,0.0,0.0,0.0,0.0,0.0,0.0,0.0,0.0,0.0,0.0,0.0,0.0,0.0,0.0,0.0,0.0,0.0,0.0,0.0,0.0,0.0,0.0,0.0,0.0,0.0,0.0,0.0,0.0,0.0,0.0,0.0,0.0,0.0,0.0,0.0,0.0,0.0,0.0,0.0,0.0,0.0,0.0,0.0,0.0,0.0,-1.9869,-2.09,-2.1104,-2.0216,-2.0603,-2.0365,-1.8926,-1.8787,-1.841,-1.7439,0.0,0.0,0.0,0.0,0.0,0.0,0.0,0.0,0.0,0.0,0.0,0.0,0.0,0.0,0.0,0.0,0.0,0.0,0.0,0.0,0.0,0.0,0.0,0.0,0.0,0.0,0.0,0.0,0.0,0.0,0.0,0.0,0.0,0.0,0.0,0.0,0.0,0.0,0.0,0.0,0.0,0.0,0.0,0.0,0.0,0.0,0.0,0.0,0.0,0.0,0.0,0.0,0.0,0.0,0.0,0.0,0.0,0.0,0.0,0.0,0.0,0.0,0.0,0.0,0.0,0.0,0.0,0.0,0.0,0.0,0.0,0.0,0.0,0.0,0.0,0.0,0.0,0.0,0.0,0.0,0.0,0.0,0.0,0.0,0.0,0.0,0.0,0.0,0.0,0.0,0.0,0.0,0.0,0.0,0.0,0.0,0.0,0.0,0.0,0.0,0.0,0.0,-1.9238,-2.0029,-2.0195,-1.9375,-1.9248,-1.8896,-1.8076,-1.8008,-1.7666,-1.6846,0.0,0.0,0.0,0.0,0.0,0.0,0.0,0.0,0.0,0.0,0.0,0.0,0.0,0.0,0.0,0.0,0.0,0.0,0.0,0.0,0.0,0.0,0.0,0.0,0.0,0.0,0.0,0.0,0.0,0.0,0.0,0.0,0.0,0.0,0.0,0.0,0.0,0.0,0.0,0.0,0.0,0.0,0.0,0.0,0.0,0.0,0.0,0.0,0.0,0.0,0.0,0.0,0.0,0.0,0.0,0.0,0.0,0.0,0.0,0.0,-1.7598,0.0,0.0,0.0,0.0,0.0,0.0,0.0,0.0,0.0,0.0,0.0,0.0,0.0,0.0,0.0,0.0,0.0,0.0,0.0,0.0,0.0,0.0,0.0,0.0,0.0,0.0,0.0,0.0,0.0,0.0,0.0,0.0,0.0,0.0,0.0,0.0,0.0,0.0,0.0,0.0,0.0,-1.9668,-1.9941,-1.9853,-1.9346,-1.8984,-1.8564,-1.8057,-1.8008,-1.7793,-1.7275,-1.6924,0.0,0.0,0.0,0.0,0.0,0.0,0.0,0.0,0.0,0.0,0.0,0.0,0.0,0.0,0.0,0.0,0.0,0.0,0.0,0.0,0.0,0.0,0.0,0.0,0.0,0.0,0.0,0.0,0.0,0.0,0.0,0.0,0.0,0.0,0.0,0.0,0.0,0.0,0.0,0.0,0.0,0.0,0.0,0.0,0.0,0.0,0.0,0.0,0.0,0.0,0.0,0.0,0.0,0.0,0.0,0.0,0.0,0.0,0.0,0.0,-1.7731,0.0,0.0,0.0,0.0,0.0,0.0,0.0,0.0,0.0,0.0,0.0,0.0,0.0,0.0,0.0,0.0,0.0,0.0,0.0,0.0,0.0,0.0,0.0,0.0,0.0,0.0,0.0,0.0,0.0,0.0,0.0,0.0,0.0,0.0,0.0,0.0,0.0,0.0,0.0,0.0,-1.9805,-1.9912,-1.9756,-1.9336,-1.8896,-1.8467,-1.8047,-1.8008,-1.7832,-1.7412,-1.6749,0.0,0.0,0.0,0.0,0.0,0.0,0.0,0.0,0.0,0.0,0.0,0.0,0.0,0.0,0.0,0.0,0.0,0.0,0.0,0.0,0.0,0.0,0.0,0.0,0.0,0.0,0.0,0.0,0.0,0.0,0.0,0.0,0.0,0.0,0.0,0.0,0.0,0.0,0.0,0.0,0.0,0.0,0.0,0.0,0.0,0.0,0.0,0.0,0.0,0.0,0.0,0.0,0.0,-1.5488,-1.604,-1.7024,-1.6961,-1.7303,-1.794,-1.7553,-1.7952,-1.8692,-1.789,0.0,0.0,0.0,0.0,0.0,0.0,0.0,0.0,0.0,0.0,0.0,0.0,0.0,0.0,0.0,0.0,0.0,0.0,0.0,0.0,0.0,0.0,0.0,0.0,-1.7391,-1.8108,0.0,0.0,0.0,0.0,0.0,0.0,0.0,0.0,0.0,0.0,0.0,0.0,-1.9932,-1.9902,-1.9668,-1.9326,-1.8838,-1.8309,-1.7823,-1.7794,-1.7571,-1.7026,-1.616,-1.5548,0.0,0.0,0.0,0.0,0.0,0.0,0.0,0.0,0.0,0.0,0.0,0.0,0.0,0.0,0.0,0.0,0.0,0.0,0.0,0.0,0.0,0.0,0.0,0.0,0.0,0.0,0.0,0.0,0.0,0.0,0.0,0.0,-0.7865,-1.0018,0.0,0.0,0.0,0.0,0.0,0.0,0.0,0.0,0.0,0.0,0.0,0.0,0.0,-1.4008,-1.4088,-1.4596,-1.4932,-1.5116,-1.5535,-1.6415,-1.7591,-1.7191,-1.7768,-1.9167,-1.7733,0.0,-1.7813,-1.7631,0.0,0.0,0.0,0.0,0.0,0.0,0.0,0.0,0.0,0.0,0.0,0.0,0.0,0.0,0.0,0.0,0.0,0.0,0.0,0.0,0.0,0.0,-1.6006,-1.5964,-1.6843,-1.7796,0.0,-1.8321,-1.9164,-2.0246,-1.9509,0.0,0.0,0.0,0.0,0.0,0.0,0.0,-2.042,-1.9834,-1.9346,-1.9297,-1.8574,-1.7705,-1.6853,-1.6775,-1.6401,-1.552,-1.4999,-1.4944,-1.5532,-1.4813,0.0,0.0,0.0,0.0,0.0,0.0,0.0,0.0,0.0,0.0,0.0,0.0,0.0,0.0,0.0,0.0,0.0,0.0,0.0,0.0,0.0,0.0,0.0,0.0,0.0,0.0,0.0,0.0,0.0,-0.8389,-1.0203,-1.1024,-1.189,-1.2489,0.0,0.0,0.0,0.0,0.0,0.0,0.0,0.0,0.0,-1.4563,-1.4583,-1.4736,-1.5064,-1.5324,-1.5451,-1.5451,-1.5705,-1.6109,-1.6662,-1.642,-1.6707,-1.7382,-1.6593,-1.6388,-1.666,-1.7082,-1.6722,-1.5921,0.0,0.0,0.0,0.0,-1.5734,-1.5301,-1.5555,-1.5301,0.0,-1.4476,0.0,0.0,0.0,0.0,0.0,0.0,0.0,0.0,0.0,0.0,-1.5625,-1.5792,-1.6204,-1.6857,-1.7505,-1.7944,-1.8403,0.0,-1.9689,-1.9669,-1.9303,0.0,0.0,0.0,0.0,-1.897,-1.8744,-1.8577,-1.8295,-1.7599,-1.6902,-1.6228,-1.5869,-1.579,-1.5658,-1.5234,-1.445,-1.4307,-1.4805,-1.4467,-1.4309,0.0,0.0,0.0,0.0,0.0,0.0,0.0,0.0,0.0,0.0,0.0,0.0,0.0,0.0,0.0,0.0,0.0,0.0,0.0,0.0,0.0,0.0,0.0,0.0,0.0,0.0,0.0,0.0,-0.9895,-1.1537,-1.1653,-1.2958,-1.373,0.0,0.0,0.0,0.0,0.0,0.0,-1.4402,-1.4422,-1.4656,-1.517,-1.5184,-1.5391,-1.5825,-1.5832,-1.5832,-1.5832,-1.5832,-1.5792,-1.5718,-1.5798,-1.5792,-1.5718,-1.5798,-1.5832,-1.5812,-1.6487,-1.6085,-1.5268,-1.6055,-1.5882,-1.5211,-1.5431,-1.5371,-1.5251,-1.5678,-1.5691,-1.5471,-1.5257,0.0,-1.499,-1.4556,0.0,0.0,0.0,0.0,-1.5237,-1.5451,-1.5504,-1.5565,-1.5778,-1.5832,-1.6015,-1.7037,-1.7505,-1.798,0.0,-1.9538,-1.9678,-1.8902,0.0,0.0,0.0,0.0,-1.7933,-1.7398,-1.7407,-1.7151,-1.6295,-1.5584,-1.5092,-1.4807,-1.4807,-1.4736,-1.445,-1.3738,-1.3491,-1.3903,-1.3925,-1.3961,-1.3894,0.0,0.0,0.0,0.0,0.0,0.0,0.0,0.0,0.0,0.0,0.0,0.0,0.0,0.0,0.0,0.0,0.0,0.0,0.0,0.0,0.0,0.0,0.0,0.0,0.0,0.0,0.0,0.0,0.0,-1.2155,-1.2745,0.0,0.0,0.0,0.0,-1.4456,-1.4476,-1.4723,-1.5304,-1.5331,-1.5471,-1.5772,-1.5785,-1.5798,-1.5832,-1.5832,-1.5832,-1.5832,-1.5832,-1.5685,-1.5431,-1.5705,-1.5678,-1.5431,-1.5712,-1.5832,-1.5825,-1.5812,-1.5798,-1.5785,-1.5785,-1.5785,-1.5785,-1.5798,-1.5798,-1.5792,-1.5818,-1.5818,-1.5805,-1.5792,-1.5598,-1.5364,-1.5337,-1.5344,0.0,0.0,-1.5565,-1.5792,-1.5805,-1.5805,-1.5812,-1.5825,-1.5832,-1.5825,-1.5927,-1.685,-1.8048,0.0,-1.8564,-1.8087,-1.8669,0.0,-1.7224,-1.7768,-1.7829,-1.7714,-1.7383,-1.6682,-1.6295,-1.6228,-1.5584,-1.4807,-1.389,-1.3818,-1.3382,-1.2519,-1.2372,-1.264,-1.3239,-1.3265,-1.34,-1.3594,-1.3393,0.0,0.0,0.0,0.0,0.0,0.0,0.0,0.0,0.0,0.0,0.0,0.0,0.0,0.0,0.0,0.0,0.0,0.0,0.0,0.0,0.0,0.0,0.0,0.0,0.0,0.0,0.0,0.0,-1.262,-1.3047,0.0,-1.4595,-1.4649,-1.477,-1.5064,-1.5084,-1.5257,-1.5651,-1.5671,-1.5718,-1.5825,-1.5832,-1.5832,-1.5832,-1.5832,-1.5732,-1.5551,-1.5551,-1.5398,-1.5124,-1.5224,-1.5317,-1.5404,-1.5504,-1.5658,-1.5832,-1.5832,-1.5832,-1.5832,-1.5832,-1.5832,-1.5832,-1.5832,-1.5832,-1.5832,-1.5832,-1.5832,-1.5832,-1.5832,-1.5758,-1.5671,-1.5671,-1.5671,-1.5671,-1.5671,-1.5752,-1.5832,-1.5832,-1.5832,-1.5785,-1.5591,-1.5551,-1.5551,-1.5551,-1.5917,-1.6429,-1.6987,-1.7404,-1.7665,-1.7673,-1.6555,-1.5931,-1.6598,-1.6598,-1.6171,-1.5325,-1.5287,-1.5019,-1.4343,-1.3693,-1.3164,-1.2806,-1.2806,-1.2666,-1.2298,-1.2305,-1.2485,-1.2893,-1.3106,-1.3347,-1.3552,-1.354,-1.3193,0.0,0.0,0.0,0.0,0.0,0.0,0.0,0.0,0.0,0.0,0.0,0.0,0.0,0.0,0.0,0.0,0.0,0.0,0.0,0.0,0.0,0.0,0.0,0.0,0.0,-0.9854,-1.1292,-1.2263,-1.3031,-1.38,-1.4383,-1.4917,-1.5337,-1.5524,-1.5538,-1.5625,-1.5818,-1.5832,-1.5832,-1.5832,-1.5832,-1.5832,-1.5832,-1.5832,-1.5685,-1.5398,-1.5398,-1.519,-1.4816,-1.4917,-1.5017,-1.511,-1.5211,-1.5357,-1.5545,-1.5645,-1.5685,-1.5691,-1.5792,-1.5832,-1.5832,-1.5832,-1.5832,-1.5832,-1.5832,-1.5832,-1.5832,-1.5832,-1.5832,-1.5832,-1.5832,-1.5832,-1.5832,-1.5832,-1.5832,-1.5805,-1.5712,-1.5685,-1.5611,-1.5317,-1.5251,-1.5251,-1.5251,-1.5251,-1.5337,-1.5625,-1.6411,-1.6965,-1.665,-1.5824,-1.5382,-1.5654,-1.5583,-1.5135,-1.4193,-1.4286,-1.408,-1.3299,-1.2752,-1.2412,-1.2311,-1.2305,-1.2345,-1.2445,-1.2452,-1.2632,-1.3033,-1.3153,-1.3347,-1.3552,-1.3559,-1.35,-1.3272,0.0,0.0,0.0,0.0,0.0,0.0,0.0,0.0,0.0,0.0,0.0,0.0,0.0,0.0,0.0,0.0,0.0,0.0,0.0,0.0,0.0,0.0,0.0,-0.8466,-0.9986,-1.1002,-1.1104,-1.2714,-1.3677,-1.3432,-1.4791,-1.573,-1.5832,-1.5832,-1.5832,-1.5832,-1.5832,-1.5832,-1.5832,-1.5832,-1.5832,-1.5832,-1.5818,-1.5671,-1.5384,-1.5378,-1.507,-1.4516,-1.4803,-1.4783,-1.4536,-1.4823,-1.4957,-1.4983,-1.5264,-1.5384,-1.5411,-1.5712,-1.5832,-1.5832,-1.5832,-1.5818,-1.5812,-1.5805,-1.5805,-1.5812,-1.5812,-1.5818,-1.5832,-1.5832,-1.5832,-1.5832,-1.5832,-1.5818,-1.5752,-1.5471,-1.5391,-1.5311,-1.5017,-1.495,-1.495,-1.495,-1.495,-1.5037,-1.5331,-1.5611,-1.5805,-1.5825,-1.5812,-1.5611,-1.505,-1.495,0.0,-1.4162,-1.3828,-1.3534,-1.3253,-1.2946,-1.2645,-1.2351,-1.2331,-1.2452,-1.2815,-1.2835,-1.3026,-1.3621,-1.3387,-1.338,-1.3681,-1.3592,-1.3814,-1.4102,0.0,0.0,0.0,0.0,0.0,0.0,0.0,0.0,0.0,0.0,0.0,0.0,0.0,0.0,0.0,0.0,0.0,0.0,0.0,0.0,0.0,-0.7149,-0.7506,-0.7865,-0.8348,-0.9116,-1.0211,-1.0803,-1.1818,-1.3582,-1.4124,-1.4848,-1.573,-1.5832,-1.5832,-1.5832,-1.5832,-1.5832,-1.5832,-1.5832,-1.5832,-1.5832,-1.5618,-1.5371,-1.5077,-1.4863,-1.4563,-1.4208,-1.4289,-1.4396,-1.4522,-1.4603,-1.4763,-1.497,-1.505,-1.5084,-1.5137,-1.5631,-1.5832,-1.5832,-1.5832,-1.5698,-1.5484,-1.5277,-1.5337,-1.5518,-1.5518,-1.5658,-1.5832,-1.5832,-1.5832,-1.5832,-1.5832,-1.5678,-1.5498,-1.5418,-1.5244,-1.501,-1.471,-1.4643,-1.4643,-1.4643,-1.4643,-1.473,-1.5023,-1.515,-1.5337,-1.5758,-1.5478,-1.515,-1.499,-1.4603,0.0,-1.4108,-1.3828,-1.3532,-1.3534,-1.326,-1.3046,-1.2966,-1.2959,-1.2999,-1.308,-1.308,-1.3253,-1.3627,-1.3774,-1.4082,-1.4589,-1.4389,-1.4322,0.0,0.0,0.0,0.0,0.0,0.0,0.0,0.0,0.0,0.0,0.0,0.0,0.0,0.0,0.0,0.0,0.0,0.0,0.0,0.0,0.0,0.0,-0.7478,-0.7709,-0.7777,-0.7855,-0.8206,-0.9006,-0.9591,-1.0518,-1.1947,-1.2598,-1.3362,-1.4608,-1.4701,-1.4894,-1.5464,-1.5464,-1.5464,-1.5464,-1.5464,-1.5464,-1.5464,-1.5297,-1.5064,-1.4776,-1.4603,-1.4369,-1.4088,-1.4088,-1.4182,0.0,-1.4342,-1.4436,-1.4603,-1.473,-1.4776,0.0,0.0,0.0,0.0,0.0,-1.5357,-1.519,-1.5023,-1.5077,-1.5217,-1.5217,-1.5331,-1.5464,-1.5464,-1.5464,-1.5464,-1.5464,-1.5344,-1.5184,-1.5064,-1.4903,-1.4703,-1.4409,-1.4342,-1.4342,-1.4342,-1.4342,-1.4429,-1.4723,-1.4776,0.0,-1.5391,-1.519,-1.4923,-1.4796,-1.4489,-1.4222,-1.4102,-1.3935,-1.3781,-1.3661,-1.3494,-1.3347,-1.322,-1.3213,0.0,0.0,0.0,-1.3707,-1.4001,-1.4175,0.0,0.0,0.0,0.0,0.0,0.0,0.0,0.0,-1.4689,-1.4743,0.0,0.0,0.0,0.0,0.0,0.0,0.0,0.0,0.0,0.0,0.0,0.0,0.0,0.0,0.0,0.0,-0.7746,-0.7879,-0.7997,-0.8014,-0.7963,-0.7828,-0.8844,-0.9523,-0.9537,-1.0624,-1.1731,-1.2939,-1.303,-1.3489,-1.4687,0.0,0.0,0.0,0.0,-1.4777,-1.4777,-1.493,-1.4783,-1.4522,-1.4489,-1.4335,-1.4088,-1.4088,-1.4088,-1.4088,-1.4088,-1.3997,-1.3932,-1.4183,-1.4202,-1.4141,-1.4563,-1.4867,-1.4957,-1.4827,-1.4821,-1.491,-1.4781,0.0,0.0,-1.4821,-1.484,-1.4963,-1.4963,-1.4963,-1.4963,-1.4963,-1.4937,-1.4856,-1.4589,-1.4409,-1.4223,-1.3965,-1.3822,-1.3737,-1.3737,-1.3737,-1.3809,-1.3976,-1.4028,-1.4193,-1.4454,-1.4615,-1.4639,-1.4375,-1.4135,-1.3931,-1.377,-1.3822,-1.3723,-1.3296,0.0,0.0,-1.292,-1.3061,-1.3185,-1.3302,-1.3789,-1.4084,-1.4158,-1.4379,-1.4517,-1.4682,-1.4689,-1.4844,-1.5343,-1.5534,-1.5635,-1.5615,-1.494,-1.4943,0.0,0.0,0.0,0.0,0.0,0.0,0.0,0.0,0.0,0.0,0.0,0.0,0.0,0.0,0.0,-0.7664,-0.7811,-0.7963,-0.7868,-0.7855,-0.7845,-0.7814,-0.7896,-0.8367,-0.9431,-0.9701,-1.044,-1.1731,-1.1822,-1.2285,-1.3489,-1.2655,-1.2564,-1.3489,-1.358,-1.358,-1.358,-1.4274,-1.4576,-1.4516,0.0,0.0,-1.4088,-1.4088,-1.4088,-1.4088,-1.4088,-1.3555,-1.2681,-1.2729,-1.2146,-1.15,-1.2939,-1.4134,-1.484,-1.3686,-1.3787,-1.4394,-1.3262,-1.3597,-1.4427,-1.351,-1.4034,-1.4963,-1.4963,-1.4963,0.0,-1.4963,-1.479,-1.4596,-1.4536,-1.3627,-1.2741,-1.2687,-1.1992,-1.1305,-1.1305,-1.1305,-1.1316,-1.1359,-1.137,-1.1386,-1.1429,-1.2481,-1.3221,-1.3173,-1.2105,-1.1354,-1.1311,-1.2077,-1.2231,-1.1326,-1.2874,-1.3199,-1.1256,-1.1928,-1.2122,-1.1422,-1.2739,-1.3101,-1.2122,-1.335,-1.3584,-1.2491,-1.2491,-1.2539,-1.2624,-1.3782,-1.4262,-1.4262,-1.5168,-1.5638,0.0,0.0,0.0,0.0,0.0,0.0,0.0,0.0,0.0,0.0,0.0,-0.1329,-0.1357,0.0,-0.4651,-0.7432,-0.7848,-0.7811,-0.7824,-0.7685,-0.759,-0.759,-0.7529,-0.7724,-0.8265,-0.8257,-0.8796,-1.014,-1.0234,-1.0682,-1.1838,-1.1389,-1.13,-1.1838,-1.1927,-1.1927,-1.1927,-1.2336,-1.2533,-1.2533,-1.2404,-1.2687,-1.3203,-1.3203,-1.3555,-1.4088,-1.4088,-1.3379,-1.2242,-1.1638,-1.1123,-1.0631,-1.0952,-1.1749,-1.2715,-1.1958,-1.2088,-1.2429,-1.1682,-1.1899,-1.2447,-1.1914,-1.2178,-1.2815,-1.2815,-1.2815,-1.2815,-1.2815,-1.2721,-1.2533,-1.2533,-1.1997,-1.1466,-1.1466,-1.1042,-1.0611,-1.0611,-1.0611,-1.0611,-1.0611,-1.0611,-1.0611,-1.0611,-1.0793,-1.1165,-1.1581,-1.1029,-1.0611,-1.0611,-1.1123,-1.1209,-1.0697,-1.1649,-1.1877,-1.0772,-1.1315,-1.1568,-1.1166,-1.1947,-1.222,-1.1768,-1.2459,-1.2619,-1.195,-1.1945,-1.1945,-1.1945,-1.2528,-1.2909,-1.2909,-1.3957,-1.493,0.0,0.0,0.0,0.0,0.0,0.0,0.0,-0.0,-0.0,-0.0,-0.0,-0.0,-0.0,-0.0,-0.1374,-0.579,-0.7205,-0.779,-0.7743,-0.7529,-0.7366,-0.7336,-0.7329,-0.7278,-0.7153,-0.7139,-0.7489,-0.8452,-0.854,-0.9061,-1.0178,-1.0091,-1.0005,-1.0265,-1.0269,-1.0269,-1.0269,-1.0524,-1.0611,-1.0611,-1.0611,-1.1037,-1.1986,-1.1986,-1.251,-1.3392,-1.3215,-1.2516,-1.1552,-1.0433,-0.9918,-0.9831,-0.8886,-0.9144,-0.9918,-1.0178,-1.0438,-1.0611,-1.0351,-1.0438,-1.0524,-1.0351,-1.0438,-1.0611,-1.0611,-1.0611,-1.0611,-1.0611,-1.0611,-1.0611,-1.0611,-1.0438,-1.0269,-1.0269,-1.0091,-0.9918,-0.9918,-0.9918,-0.9918,-0.9918,-0.9951,-0.9979,-0.9979,-0.9353,-0.9148,-1.0183,-1.01,-1.0041,-1.0041,-1.0216,-1.0304,-1.0041,-1.0387,-1.0637,-1.0551,-1.048,-1.0571,-1.0735,-1.1067,-1.1173,-1.1161,-1.1361,-1.1365,-1.1165,-1.1165,-1.1165,-1.1165,-1.1361,-1.156,-1.1663,-1.2496,-1.3957,0.6407,0.6516,0.682,0.7385,0.7105,0.5542,0.0,-0.0,-0.0,-0.0,-0.0,-0.0,-0.0,-0.0,-0.0196,-0.0784,-0.4833,-0.7918,-0.7677,-0.7523,-0.735,-0.7125,-0.7091,-0.716,-0.7143,-0.7139,-0.7139,-0.7316,-0.7316,-0.7837,-0.9061,-0.8101,-0.8013,-0.9061,-0.9061,-0.9061,-0.9061,-1.0096,-1.0611,-1.0611,-1.0611,-1.0697,-1.0778,-1.0778,-1.0869,-1.0961,-0.9927,-0.941,-0.9148,-0.8013,-0.7489,-0.7489,-0.7312,-0.7401,-0.7661,-0.8711,-0.9753,-1.0438,-0.9405,-0.9753,-1.0438,-0.941,-0.9749,-1.0611,-1.0611,-1.0611,-1.0611,-1.0611,-1.0611,-1.0611,-1.0611,-0.9836,-0.9061,-0.9061,-0.8277,-0.7489,-0.7489,-0.7489,-0.7489,-0.7489,-0.7603,-0.7793,-0.7793,-0.7745,-0.8069,-0.9152,-0.8547,-0.7916,-0.7916,-0.883,-0.9103,-0.8009,-0.9833,-1.0659,-0.9587,-0.8638,-0.8172,-0.819,-0.9486,-0.9682,-0.8528,-0.9608,-0.9604,-0.8432,-0.8432,-0.8432,-0.8432,-0.9608,-1.04,-1.0811,-1.1658,-1.334,0.6919,0.7059,0.7225,0.7601,0.7721,0.7259,0.4949,0.3378,0.1913,0.029,-0.0,-0.0,-0.0,-0.0,-0.0,-0.0,-0.1893,-0.3823,-0.5271,-0.5297,-0.567,-0.6991,-0.7122,-0.7068,-0.7143,-0.7139,-0.7139,-0.7139,-0.7139,-0.7316,-0.7841,-0.7404,-0.7316,-0.7841,-0.7841,-0.7841,-0.7841,-0.8356,-0.8528,-0.8528,-0.8528,-0.8965,-0.9579,-0.9579,-1.0009,-1.0524,-0.9405,-0.889,-0.8803,-0.7577,-0.7139,-0.7139,-0.7139,-0.7139,-0.7139,-0.7665,-0.8185,-0.8532,-0.8013,-0.8185,-0.8444,-0.8013,-0.8185,-0.8528,-0.8528,-0.8528,-0.8528,-0.8528,-0.8609,-0.8779,-0.8779,-0.8415,-0.8135,-0.8135,-0.777,-0.7407,-0.7407,-0.7407,-0.7407,-0.7407,-0.7461,-0.7506,-0.7506,-0.7628,-0.7889,-0.8284,-0.7889,-0.76,-0.76,-0.8063,-0.8153,-0.7695,-0.8509,-0.8938,-0.8471,-0.8143,-0.7943,-0.7943,-0.8492,-0.8627,-0.8038,-0.8531,-0.8531,-0.8038,-0.8038,-0.8038,-0.8038,-0.8528,-0.8924,-0.913,-0.9473,-1.024,0.6973,0.7051,0.7129,0.7322,0.764,0.7825,0.7674,0.6313,0.4461,0.2521,0.1551,0.0772,0.0095,-0.0,-0.0,-0.0,-0.0,-0.0641,-0.2653,-0.3323,-0.4511,-0.6789,-0.6552,-0.6407,-0.7061,-0.7058,-0.7139,-0.7139,-0.7139,-0.7139,-0.7139,-0.7139,-0.7139,-0.7139,-0.7139,-0.7139,-0.7139,-0.7139,-0.7139,-0.7139,-0.7139,-0.7577,-0.8364,-0.8364,-0.8886,-0.957,-0.8798,-0.8364,-0.8368,-0.7489,-0.7139,-0.7139,-0.7139,-0.7139,-0.7139,-0.7139,-0.7139,-0.7139,-0.7139,-0.7139,-0.7139,-0.7139,-0.7139,-0.7139,-0.7139,-0.7139,-0.7149,-0.719,-0.7285,-0.7383,-0.7424,-0.7516,-0.76,-0.76,-0.76,-0.76,-0.76,-0.76,-0.76,-0.76,-0.7631,-0.7658,-0.7658,-0.7777,-0.7875,-0.7875,-0.7787,-0.7723,-0.7723,-0.7723,-0.7723,-0.7723,-0.7814,-0.7875,-0.7875,-0.7977,-0.8038,-0.8038,-0.8038,-0.8038,-0.8038,-0.8038,-0.8038,-0.8038,-0.8038,-0.8038,-0.8038,-0.8038,-0.8038,-0.8038,-0.7997,-0.7977,0.6753,0.682,0.7004,0.7299,0.738,0.7428,0.7684,0.7624,0.7533,0.7364,0.5334,0.2755,0.0475,-0.0,-0.0,-0.0,-0.0,-0.0,-0.009,-0.2115,-0.4474,-0.6837,-0.511,-0.4637,-0.6903,-0.7071,-0.7139,-0.7139,-0.7139,-0.7139,-0.7139,-0.7139,-0.7139,-0.7139,-0.7139,-0.7139,-0.7139,-0.7139,-0.7139,-0.7139,-0.7139,-0.7139,-0.7139,-0.7139,-0.7139,-0.7228,-0.7139,-0.7139,-0.7139,-0.7139,-0.7139,-0.7139,-0.7139,-0.7139,-0.7139,-0.7139,-0.7139,-0.7139,-0.7139,-0.7139,-0.7139,-0.7139,-0.7139,-0.7139,-0.7139,-0.7139,-0.7173,-0.7322,-0.7366,-0.7404,-0.7553,-0.7597,-0.76,-0.76,-0.76,-0.76,-0.76,-0.76,-0.76,-0.76,-0.7709,-0.7804,-0.7804,-0.7929,-0.8031,-0.8031,-0.8028,-0.8024,-0.8024,-0.8024,-0.8024,-0.8024,-0.8031,-0.8031,-0.8031,-0.8035,-0.8038,-0.8038,-0.8038,-0.8038,-0.8038,-0.8038,-0.8038,-0.8038,-0.8038,-0.8038,-0.8038,-0.8038,-0.8038,-0.8038,-0.8038,-0.8035,0.8926,0.9155,0.9196,0.8653,0.8619,0.8448,0.7778,0.7607,0.7584,0.7506,0.6728,0.5852,0.4858,0.2089,-0.0,-0.0,-0.0,-0.0,-0.0,-0.0714,-0.1506,-0.2289,-0.3093,-0.4515,-0.689,-0.7126,-0.7074,-0.7074,-0.7061,-0.7139,-0.7139,-0.7139,-0.7139,-0.7139,-0.7139,-0.7139,-0.7139,-0.7139,-0.7139,-0.7139,-0.7139,-0.7139,-0.7139,-0.7139,-0.7139,-0.7139,-0.7139,-0.7139,-0.7139,-0.7139,-0.7139,-0.7139,-0.7139,-0.7139,-0.7139,-0.7139,-0.7139,-0.7139,-0.7139,-0.7139,-0.7139,-0.7139,-0.7139,-0.7139,-0.7139,-0.7139,-0.7173,-0.7326,-0.7444,-0.7556,-0.7702,-0.7818,-0.7892,-0.7892,-0.7892,-0.7892,-0.7892,-0.7892,-0.7892,-0.7892,-0.7929,-0.7963,-0.7963,-0.8007,-0.8038,-0.8038,-0.8038,-0.8038,-0.8038,-0.8038,-0.8038,-0.8038,-0.8038,-0.8038,-0.8038,-0.8038,-0.8038,-0.8038,-0.8038,-0.8038,-0.8038,-0.8038,-0.8038,-0.8038,-0.8038,-0.8038,-0.8038,-0.8038,-0.8038,-0.8038,-0.8038,-0.8038,1.014,1.0383,1.0282,0.9274,0.9062,0.8881,0.7707,0.7434,0.7414,0.7329,0.7272,0.7207,0.7031,0.4515,0.23,0.1414,0.1962,0.1975,0.0269,-0.0,-0.0,-0.0,-0.1341,-0.2873,-0.4414,-0.537,-0.6215,-0.7168,-0.7151,-0.7141,-0.7224,-0.717,-0.7139,-0.7139,-0.7139,-0.7139,-0.7139,-0.7139,-0.7139,-0.7139,-0.7139,-0.7139,-0.7139,-0.7139,-0.7139,-0.7139,-0.7139,-0.7139,-0.7139,-0.7139,-0.7139,-0.7139,-0.7139,-0.7139,-0.7139,-0.7139,-0.7139,-0.7139,-0.7139,-0.7139,-0.7139,-0.7139,-0.7139,-0.7139,-0.7139,-0.718,-0.7255,-0.7411,-0.756,-0.7709,-0.7855,-0.7967,-0.8038,-0.8038,-0.8038,-0.8038,-0.8038,-0.8038,-0.8038,-0.8038,-0.8038,-0.8038,-0.8038,-0.8038,-0.8038,-0.8038,-0.8038,-0.8038,-0.8038,-0.8038,-0.8038,-0.8038,-0.8038,-0.8038,-0.8038,-0.8038,-0.8038,-0.8038,-0.8038,-0.8038,-0.8038,-0.8038,-0.8038,-0.8038,-0.8038,-0.8038,-0.8038,-0.8038,-0.8038,-0.8038,-0.8038,-0.8038,1.0424,1.0497,1.0312,0.9247,0.9035,0.869,0.7562,0.7217,0.7129,0.7214,0.7021,0.6847,0.6853,0.6973,0.6371,0.4,0.5598,0.5497,0.0986,0.0176,-0.0,-0.0,-0.0,-0.0,-0.0,-0.2098,-0.445,-0.6875,0.0,-0.7207,-0.7373,-0.7224,-0.7143,-0.7139,-0.7139,-0.7139,-0.7139,-0.7139,-0.7139,-0.7139,-0.7139,-0.7139,-0.7139,-0.7139,-0.7139,-0.7139,-0.7139,-0.7139,-0.7139,-0.7139,-0.7139,-0.7139,-0.7139,-0.7139,-0.7139,-0.7139,-0.7139,-0.7139,-0.7139,-0.7139,-0.7139,-0.7139,-0.7146,-0.7153,-0.7153,-0.7261,-0.7414,-0.7567,-0.7706,-0.7845,-0.7997,-0.8038,-0.8038,-0.8038,-0.8038,-0.8038,-0.8038,-0.8038,-0.8038,-0.8038,-0.8038,-0.8038,-0.8038,-0.8038,-0.8038,-0.8038,-0.8038,-0.8038,-0.8038,-0.8038,-0.8038,-0.8038,-0.8038,-0.8038,-0.8038,-0.8038,-0.8038,-0.8038,-0.8038,-0.8038,-0.8038,-0.8038,-0.8038,-0.8038,-0.8038,-0.8038,-0.8038,-0.8038,-0.8038,-0.8038,-0.8038,-0.8038,1.2092,1.233,1.2184,1.1094,1.086,1.0574,0.9653,0.8679,0.8084,0.8251,0.7543,0.6929,0.6847,0.7037,0.6346,0.3982,0.5577,0.6633,0.544,0.2252,-0.0,-0.0,-0.0,-0.0,-0.0,-0.058,-0.1165,-0.1829,-0.5354,-0.7411,-0.7207,-0.7158,-0.7068,-0.7139,-0.7139,-0.7139,-0.7139,-0.7139,-0.7139,-0.7139,-0.7139,-0.7139,-0.7139,-0.7139,-0.7139,-0.7139,-0.7139,-0.7139,-0.7139,-0.7139,-0.7139,-0.7139,-0.7139,-0.7139,-0.7139,-0.7139,-0.7139,-0.7139,-0.7139,-0.7139,-0.7139,-0.7139,-0.7217,-0.7312,-0.7312,-0.7421,-0.757,-0.7716,-0.7784,-0.7845,-0.7997,-0.8038,-0.8038,-0.8038,-0.8038,-0.8038,-0.8038,-0.8038,-0.8038,-0.8038,-0.8038,-0.8038,-0.8038,-0.8038,-0.8038,-0.8038,-0.8038,-0.8038,-0.8038,-0.8038,-0.8038,-0.8038,-0.8038,-0.8038,-0.8038,-0.8038,-0.8038,-0.8038,-0.8038,-0.8038,-0.8038,-0.8038,-0.8038,-0.8038,-0.8038,-0.8038,-0.8038,-0.8038,-0.8038,-0.8038,-0.8038,-0.8038,1.2866,1.308,1.2962,1.181,1.1484,1.1117,0.9693,0.8818,0.8238,0.7907,0.7242,0.6807,0.6742,0.6973,0.6634,0.5287,0.6344,0.7326,0.7163,0.3896,0.12,0.0094,-0.0,-0.0,-0.0,-0.0,-0.0,-0.0,-0.2678,-0.4678,-0.5704,-0.6647,-0.7081,-0.7068,-0.7058,-0.7139,-0.7139,-0.7139,-0.7139,-0.7139,-0.7139,-0.7139,-0.7139,-0.7139,-0.7139,-0.7139,0.0,-0.7139,-0.7139,-0.7139,-0.7139,-0.7139,-0.7139,-0.7139,-0.7139,-0.7139,-0.7139,-0.7139,-0.7139,-0.7183,-0.7241,-0.7241,-0.7346,-0.7472,-0.7472,-0.7577,-0.7709,-0.7787,-0.7862,-0.7929,-0.8018,-0.8038,-0.8038,-0.8038,-0.8038,-0.8038,-0.8038,-0.8038,-0.8038,-0.8038,-0.8038,-0.8038,-0.8038,-0.8038,-0.8038,-0.8038,-0.8038,-0.8038,-0.8038,-0.8038,-0.8038,-0.8038,-0.8038,-0.8038,-0.8038,-0.8038,-0.8038,-0.8038,-0.8038,-0.8038,-0.8038,-0.8038,-0.8038,-0.8038,-0.8038,-0.8038,-0.8038,-0.8038,-0.8038,-0.8038,-0.8038,-0.8038,1.3013,1.3093,1.2844,1.1866,1.1623,1.1073,0.9094,0.8453,0.8135,0.7102,0.6781,0.6664,0.6552,0.6881,0.7051,0.7037,0.7356,0.7537,0.7285,0.5145,0.2661,0.0287,-0.0,-0.0,-0.0,-0.0,-0.0,-0.0,-0.0291,-0.1517,-0.3798,-0.5673,-0.6811,-0.7081,-0.7061,-0.7139,-0.7139,-0.7139,-0.7139,-0.7139,-0.7139,-0.7139,-0.7139,-0.7139,-0.7139,-0.7139,-0.7139,0.0,-0.7139,-0.7139,-0.7139,-0.7139,-0.7139,-0.7139,-0.7139,-0.7139,-0.7153,-0.717,-0.717,-0.7285,-0.7424,-0.7383,-0.7489,-0.7628,-0.7628,-0.7729,-0.7841,-0.7841,-0.7936,-0.8038,-0.8038,-0.8038,-0.8038,-0.8038,-0.8038,-0.8038,-0.8038,-0.8038,-0.8038,-0.8038,-0.8038,-0.8038,-0.8038,-0.8038,-0.8038,-0.8038,-0.8038,-0.8038,-0.8038,-0.8038,-0.8038,-0.8038,-0.8038,-0.8038,-0.8038,-0.8038,-0.8038,-0.8038,-0.8038,-0.8038,-0.8038,-0.8038,-0.8038,-0.8038,-0.8038,-0.8038,-0.8038,-0.8038,-0.8038,-0.8038,-0.8038,-0.8038,1.2445,1.2458,1.2384,1.2227,1.2146,1.1904,1.0895,0.9911,0.9086,0.829,0.7349,0.6729,0.6831,0.701,0.7224,0.7554,0.756,0.7662,0.7821,0.5384,0.2673,0.0291,-0.0,-0.0,-0.0,-0.0,-0.0,-0.0,-0.1885,-0.3183,-0.3603,-0.4019,-0.509,-0.7058,-0.7143,-0.7139,-0.7139,-0.7139,-0.7139,-0.7139,-0.7139,-0.7139,-0.7139,-0.7139,-0.7139,-0.7139,-0.7139,0.0,-0.7139,-0.7139,-0.7139,-0.7139,-0.7139,-0.7139,-0.7139,-0.7139,-0.7221,-0.7329,-0.7329,-0.7509,-0.7695,-0.7451,-0.7553,-0.7773,-0.7773,-0.7879,-0.7997,-0.7997,-0.8018,-0.8038,-0.8038,-0.8038,-0.8038,-0.8038,-0.8038,-0.8038,-0.8038,-0.8038,-0.8038,-0.8038,-0.8038,-0.8038,-0.8038,-0.8038,-0.8038,-0.8038,-0.8038,-0.8038,-0.8038,-0.8038,-0.8038,-0.8038,-0.8038,-0.8038,-0.8038,-0.8038,-0.8038,-0.8038,-0.8038,-0.8038,-0.8038,-0.8038,-0.8038,-0.8038,-0.8038,-0.8038,-0.8038,-0.8038,-0.8038,-0.8038,-0.8038,-0.8038,1.2305,1.2305,1.2305,1.2305,1.2305,1.1961,1.0503,0.976,0.9014,0.7632,0.6925,0.658,0.658,0.6827,0.7082,0.7234,0.7383,0.7577,0.7945,0.6825,0.4458,0.0489,-0.0,-0.0,-0.0,-0.0,-0.0,-0.0,-0.2248,-0.4096,-0.5351,-0.5463,-0.5897,-0.7051,-0.7139,-0.7139,-0.7139,-0.7139,-0.7139,-0.7139,-0.7139,-0.7139,-0.7139,-0.7139,-0.7139,-0.7139,-0.7139,0.0,-0.7139,-0.7139,-0.7139,-0.7139,-0.7139,-0.7139,-0.7149,-0.7231,-0.7309,-0.7383,-0.7461,-0.7631,-0.7787,-0.7645,-0.775,-0.7929,-0.7929,-0.798,-0.8038,-0.8038,-0.8038,-0.8038,-0.8038,-0.8038,-0.8038,-0.8038,-0.8038,-0.8038,-0.8038,-0.8038,-0.8038,-0.8038,-0.8038,-0.8038,-0.8038,-0.8038,-0.8038,-0.8038,-0.8038,-0.8038,-0.8038,-0.8038,-0.8038,-0.8038,-0.8038,-0.8038,-0.8038,-0.8038,-0.8038,-0.8038,-0.8038,-0.8038,-0.8038,-0.8038,-0.8038,-0.8038,-0.8038,-0.8038,-0.8038,-0.8038,-0.8038,-0.8038,-0.8038,-0.8038,1.2305,1.2305,1.2305,1.2305,1.215,1.1471,0.9674,0.9145,0.8475,0.6684,0.6393,0.6447,0.6369,0.6641,0.6902,0.6963,0.7197,0.7489,0.7925,0.7501,0.5829,0.2171,0.0691,-0.0,-0.0,-0.0,-0.0382,-0.1423,-0.279,-0.4603,-0.6933,-0.7072,-0.7071,-0.7139,-0.7139,-0.7139,-0.7139,-0.7139,-0.7139,-0.7139,-0.7139,-0.7139,-0.7139,-0.7139,-0.7139,-0.7139,-0.7139,0.0,0.0,-0.7139,-0.7139,-0.7139,-0.7139,-0.7139,-0.716,-0.7316,-0.7394,-0.7441,-0.7594,-0.774,-0.7862,-0.7862,-0.794,-0.8038,-0.8038,-0.8038,-0.8038,-0.8038,-0.8038,-0.8038,-0.8038,-0.8038,-0.8038,-0.8038,-0.8038,-0.8038,-0.8038,-0.8038,-0.8038,-0.8038,-0.8038,-0.8038,-0.8038,-0.8038,-0.8038,-0.8038,-0.8038,-0.8038,-0.8038,-0.8038,-0.8038,-0.8038,-0.8038,-0.8038,-0.8038,-0.8038,-0.8038,-0.8038,-0.8038,-0.8038,-0.8038,-0.8038,-0.8038,-0.8038,-0.8038,-0.8038,-0.8038,-0.8038,-0.8038,-0.8038,-0.8038,-0.8038,1.2305,1.2305,1.2305,1.2305,1.162,1.064,0.9523,0.8618,0.7675,0.6662,0.6464,0.6512,0.6637,0.6695,0.681,0.7078,0.7261,0.7482,0.7704,0.5758,0.512,0.7077,0.2922,-0.0,-0.0,-0.0,-0.1834,-0.6089,-0.4641,-0.4663,-0.6943,-0.7081,-0.7143,-0.7139,-0.7139,-0.7139,-0.7139,-0.7139,-0.7139,-0.7139,-0.7139,-0.7139,-0.7139,-0.7139,-0.7139,-0.7139,-0.7139,0.0,0.0,-0.7139,-0.7139,-0.7139,-0.7139,-0.7139,-0.716,-0.7316,-0.7458,-0.76,-0.7743,-0.7892,-0.8018,-0.8018,-0.8028,-0.8038,-0.8038,-0.8038,-0.8038,-0.8038,-0.8038,-0.8038,-0.8038,-0.8038,-0.8038,-0.8038,-0.8038,-0.8038,-0.8038,-0.8038,-0.8038,-0.8038,-0.8038,-0.8038,-0.8038,-0.8038,-0.8038,-0.8038,-0.8038,-0.8038,-0.8038,-0.8038,-0.8038,-0.8038,-0.8038,-0.8038,-0.8038,-0.8038,-0.8038,-0.8038,-0.8038,-0.8038,-0.8038,-0.8038,-0.8038,-0.8038,-0.8038,-0.8038,-0.8038,-0.8038,-0.8038,-0.8038,-0.8038,-0.8038,1.2351,1.1977,1.1645,1.1563,1.068,0.963,0.8763,0.8163,0.75,0.6567,0.6346,0.6363,0.6424,0.6437,0.6532,0.6827,0.685,0.7129,0.7536,0.6658,0.5198,0.3371,0.1304,-0.0,-0.0,-0.2556,-0.5043,-0.6916,-0.6271,-0.6088,-0.7091,-0.7068,-0.7139,-0.7139,-0.7139,-0.7139,-0.7139,-0.7139,-0.7139,-0.7139,-0.7139,-0.7139,-0.7139,-0.7139,-0.7139,-0.7139,-0.7139,0.0,0.0,-0.7139,-0.7139,-0.7139,-0.7139,-0.7139,-0.717,-0.7417,-0.7546,-0.7634,-0.7868,-0.7987,-0.8038,-0.8038,-0.8038,-0.8038,-0.8038,-0.8038,-0.8038,-0.8038,-0.8038,-0.8038,-0.8038,-0.8038,-0.8038,-0.8038,-0.8038,-0.8041,-0.7955,-0.8048,-0.8041,-0.7955,-0.8048,-0.8045,-0.7959,-0.7959,-0.7959,-0.7959,-0.7959,-0.7955,-0.8041,-0.8038,-0.8038,-0.8038,-0.8038,-0.8038,-0.8038,-0.8038,-0.8038,-0.8038,-0.8038,-0.8038,-0.8038,-0.8038,-0.8038,-0.8038,-0.8038,-0.8038,-0.8038,-0.8038,-0.8038,-0.8038,-0.8038,-0.8038,1.164,1.1407,1.1143,1.074,0.9782,0.874,0.8173,0.768,0.7176,0.6412,0.6338,0.6338,0.6338,0.6302,0.6413,0.6668,0.6628,0.684,0.7349,0.7449,0.5538,0.0593,-0.0,-0.0603,-0.2182,-0.5214,-0.7167,-0.7237,-0.7118,-0.7081,-0.7074,-0.7061,-0.7139,-0.7139,-0.7139,-0.7139,-0.7139,-0.7139,-0.7139,-0.7139,-0.7139,-0.7139,-0.7139,-0.7139,-0.7139,-0.7139,-0.7139,0.0,0.0,-0.7139,-0.7139,-0.7139,-0.7139,-0.7139,-0.7177,-0.7485,-0.76,-0.7641,-0.7936,-0.8045,-0.8048,-0.8048,-0.7952,-0.7955,-0.7955,-0.7952,-0.8048,-0.8048,-0.8048,-0.8048,-0.7952,-0.7955,-0.7955,-0.7955,-0.7955,-0.7959,-0.7975,-0.735,-0.7039,-0.7872,-0.7965,-0.7959,-0.7975,-0.7359,-0.6848,-0.6848,-0.7466,-0.7972,-0.7952,-0.8048,-0.8045,-0.8038,-0.8045,-0.8045,-0.8038,-0.8038,-0.8038,-0.8038,-0.8038,-0.8038,-0.8038,-0.8038,-0.8038,-0.8038,-0.8038,-0.8038,-0.8038,-0.7982,-0.8006,-0.8006,-0.8006,-0.7982,0.9844,1.0486,1.1238,1.0024,0.8818,0.8045,0.7965,0.7137,0.6338,0.6338,0.6338,0.6338,0.6338,0.6311,0.6387,0.6539,0.6634,0.684,0.7054,0.7607,0.6046,0.0604,-0.0,-0.2123,-0.7434,-0.7375,-0.7279,-0.7523,-0.7249,0.0,-0.7143,-0.7139,-0.7139,-0.7139,-0.7139,-0.7139,-0.7139,-0.7139,-0.7139,-0.7139,-0.7139,-0.7139,-0.7139,-0.7139,-0.7139,0.0,0.0,0.0,0.0,-0.7139,-0.7139,-0.7139,-0.7139,-0.7139,-0.7177,-0.7485,-0.76,-0.7641,-0.7936,-0.7955,-0.7972,-0.7972,-0.7979,-0.7992,-0.7992,-0.7982,-0.7972,-0.7972,-0.7972,-0.7975,-0.7985,-0.7992,-0.7992,-0.7992,-0.7992,-0.7992,-0.7992,-0.5942,-0.4824,-0.7475,-0.7992,-0.7992,-0.7992,-0.5839,-0.4016,-0.4016,-0.6348,-0.7985,-0.7975,-0.7972,-0.7965,-0.8041,-0.7959,-0.7962,-0.8041,-0.8038,-0.8038,-0.8038,-0.8038,-0.8038,-0.8038,-0.8038,-0.8038,-0.8038,-0.8038,-0.8038,-0.8038,-0.7985,-0.7952,-0.7952,-0.7952,-0.7978,0.9515,0.9325,0.917,0.8693,0.7687,0.6894,0.6922,0.6595,0.6338,0.6338,0.6338,0.6264,0.6271,0.6315,0.5814,0.4422,0.5486,0.6567,0.7048,0.4467,0.059,-0.4868,-0.5429,-0.5331,-0.5057,-0.6489,-0.7399,-0.729,-0.7182,-0.7058,-0.7139,-0.7139,-0.7139,-0.7139,-0.7139,-0.7139,-0.7139,-0.7139,-0.7139,-0.7139,-0.7139,-0.7139,-0.7139,-0.7139,-0.7139,0.0,0.0,0.0,0.0,-0.7139,-0.7139,-0.7139,-0.7139,-0.7139,-0.7088,-0.7201,-0.7315,-0.7557,-0.7858,-0.7972,-0.7675,-0.5837,-0.5227,-0.5639,-0.7491,-0.6765,-0.5632,-0.7472,-0.6651,-0.5227,-0.5229,-0.5229,-0.5229,-0.5229,-0.5229,-0.5741,-0.7598,-0.5847,-0.3715,-0.2714,-0.4021,-0.5844,-0.7701,-0.7293,-0.545,-0.1809,-0.201,-0.3217,-0.5024,-0.6856,-0.7982,-0.7975,-0.7979,-0.7972,-0.8041,-0.7952,-0.7955,-0.8041,-0.8038,-0.8038,-0.8038,-0.8038,-0.8038,-0.8038,-0.8038,-0.8038,-0.8038,-0.7985,-0.8213,-0.863,-0.82,-0.7962,0.828,0.8251,0.8155,0.7676,0.6918,0.6363,0.6454,0.6363,0.6338,0.6338,0.6264,0.6271,0.6278,0.6297,0.5891,0.4516,0.4118,0.4078,0.4366,0.0097,-0.3549,-0.487,-0.6739,-0.7232,-0.5394,-0.6542,-0.746,-0.7404,-0.7238,-0.7139,-0.7139,-0.7139,-0.7139,-0.7139,-0.7139,-0.7139,-0.7139,-0.7139,-0.7139,-0.7139,-0.7139,-0.7139,-0.7139,-0.7139,-0.7139,0.0,0.0,0.0,0.0,-0.7139,-0.7139,-0.7143,-0.7061,-0.7064,-0.7094,-0.7063,-0.7286,-0.7374,-0.6709,-0.7126,-0.7695,-0.6052,-0.5548,-0.5861,-0.7516,-0.5454,-0.2813,-0.4535,-0.5242,-0.5037,-0.3017,-0.2514,-0.2514,-0.2514,-0.2514,-0.2919,-0.4647,-0.3629,-0.2012,-0.0302,-0.1308,-0.302,-0.4649,-0.4956,-0.3838,-0.0504,-0.0,-0.0604,-0.231,-0.3922,-0.5746,-0.7785,-0.7999,-0.7992,-0.7962,-0.7972,-0.7972,-0.7959,-0.7955,-0.7952,-0.7952,-0.8045,-0.8038,-0.8038,-0.8038,-0.8038,-0.8038,-0.8194,-0.8529,-0.8938,-0.8563,-0.8344,0.0,0.7354,0.7959,0.6912,0.6563,0.6458,0.6458,0.6356,0.0,0.6264,0.6271,0.6285,0.6308,0.6306,0.617,0.5861,0.2583,-0.0093,-0.0476,-0.4485,-0.5765,-0.1104,-0.4926,-0.8011,-0.8042,-0.7495,-0.734,-0.7931,-0.7406,-0.7139,-0.7139,-0.7139,-0.7139,-0.7139,-0.7139,-0.7139,-0.7139,-0.7139,-0.7139,-0.7139,-0.7139,-0.7139,-0.7139,-0.7139,-0.7139,0.0,0.0,0.0,0.0,-0.7143,-0.7143,-0.7058,-0.7078,-0.6903,-0.6646,-0.6989,-0.733,-0.7187,-0.457,-0.5363,-0.7406,-0.7406,-0.7421,-0.7437,-0.7437,-0.3942,-0.0,-0.0,-0.3636,-0.6279,-0.1313,-0.0,-0.0,-0.0,-0.0,-0.0,-0.0,-0.0,-0.0,-0.0,-0.0,-0.0,-0.0,-0.0,-0.0,-0.0,-0.0,-0.0,-0.0,-0.0,-0.1911,-0.6868,-0.7808,-0.7811,-0.7481,-0.7478,-0.7475,-0.7475,-0.7466,-0.7566,-0.7975,-0.7952,-0.8041,-0.8041,-0.8038,-0.8045,-0.7955,-0.8516,-0.8805,-0.8819,-0.8863,-0.8859,0.6268,0.0,0.6752,0.6441,0.6335,0.6312,0.0,0.6285,0.6264,0.6274,0.6278,0.6274,0.6273,0.6292,0.522,0.1971,0.0641,-0.1406,-0.556,-0.3669,-0.2904,-0.5734,-0.7267,-0.8039,-0.797,-0.7902,-0.7647,-0.73,-0.7163,-0.7139,-0.7139,-0.7139,-0.7139,-0.7139,-0.7139,-0.7139,-0.7139,-0.7139,-0.7139,-0.7139,-0.7139,-0.7139,-0.7139,-0.7139,-0.7139,0.0,0.0,0.0,-0.7078,-0.7078,-0.7081,-0.7091,-0.7094,-0.4917,-0.2142,-0.5778,-0.715,-0.6623,-0.2429,-0.1388,-0.1918,-0.1918,-0.1919,-0.1921,-0.1921,-0.101,-0.0,-0.0,-0.0909,-0.1615,-0.0303,-0.0,-0.0,-0.0,-0.0,-0.0,-0.0,-0.0,-0.0,-0.0,-0.0,-0.0,-0.0,-0.0,-0.0,-0.0,-0.0,-0.0,-0.0,-0.0,-0.0504,-0.1715,-0.5574,-0.6295,-0.222,-0.1913,-0.1908,-0.1904,-0.1904,-0.3712,-0.7782,-0.7972,-0.7965,-0.7965,-0.8048,-0.7995,-0.8004,-0.8146,-0.822,-0.8219,-0.8259,-0.8418,0.6132,0.6254,0.6359,0.6359,0.6359,0.6363,0.6452,0.6397,0.6271,0.6285,0.627,0.6294,0.6302,0.4727,0.2686,0.0363,-0.2057,-0.3852,-0.4265,-0.3904,-0.4726,-0.7666,-0.8031,-0.787,0.0,-0.7557,-0.7493,-0.7153,-0.7139,-0.7139,-0.7139,-0.7139,-0.7139,-0.7139,-0.7139,-0.7139,-0.7139,-0.7139,-0.7139,-0.7139,-0.7139,-0.7139,-0.7139,-0.7061,-0.7068,0.0,0.0,0.0,-0.691,-0.4732,-0.3837,-0.384,-0.3846,-0.2233,-0.0268,-0.2901,-0.3814,-0.344,-0.0867,-0.0,-0.0,-0.0,-0.0,-0.0,-0.0,-0.0,-0.0,-0.0,-0.0,-0.0,-0.0,-0.0,-0.0,-0.0,-0.0,-0.0,-0.0,-0.0,-0.0,-0.0,-0.0,-0.0,-0.0,-0.0,-0.0,-0.0,-0.0,-0.0,-0.0,-0.0,-0.0,-0.0,-0.2629,-0.3136,-0.0202,-0.0,-0.0,-0.0,-0.0,-0.1305,-0.4227,-0.6656,-0.7979,-0.7972,-0.7962,-0.7989,-0.7958,-0.7958,-0.7994,-0.7968,-0.7963,-0.8278,0.6054,0.6298,0.6525,0.6458,0.6458,0.6558,0.6555,0.613,0.5889,0.6247,0.6291,0.6084,0.5493,0.2431,-0.0,-0.0,-0.4484,-0.6457,-0.1907,-0.5129,-0.7962,-0.8038,-0.7986,0.0,-0.7192,-0.7139,-0.7098,-0.7061,-0.7139,-0.7139,-0.7139,-0.7139,-0.7139,-0.7139,-0.7139,-0.7139,-0.7139,-0.7139,-0.7139,-0.7139,-0.7139,-0.7143,-0.7058,-0.7078,-0.6719,-0.5994,0.0,0.0,-0.5738,-0.1699,-0.0,-0.0,-0.0,-0.0,-0.0,-0.0,-0.0,-0.0,-0.0,-0.0,-0.0,-0.0,-0.0,-0.0,-0.0,-0.0,-0.0,-0.0,-0.0,-0.0,-0.0,-0.0,-0.0,-0.0,-0.0,-0.0,-0.0,-0.0,-0.0,-0.0,-0.0,-0.0,-0.0,-0.0,-0.0,-0.0,-0.0,-0.0,-0.0,-0.0,-0.0,-0.0,-0.0,-0.0,-0.0,-0.0,-0.0,-0.0,-0.0,-0.0,-0.0,-0.4327,-0.6756,-0.6748,-0.7563,-0.7962,-0.8045,-0.7962,-0.7972,-0.7979,-0.7953,-0.8299,0.6156,0.6536,0.6766,0.6386,0.6479,0.6551,0.6421,0.4943,0.4095,0.591,0.629,0.5186,0.1613,0.0451,-0.0,-0.0,-0.4497,-0.7746,-0.6851,-0.7469,-0.8018,-0.7969,0.0,-0.7768,-0.7135,-0.7082,-0.7074,-0.7143,-0.7139,-0.7139,-0.7139,-0.7139,-0.7139,-0.7139,-0.7139,-0.7139,-0.7139,-0.7139,-0.7139,-0.7139,-0.7139,-0.7061,-0.7081,-0.7084,-0.491,-0.1068,0.0,-0.107,-0.1074,-0.0273,-0.0,-0.0,-0.0,-0.0,-0.0,-0.0,-0.0,-0.0,-0.0,-0.0,-0.0,-0.0,-0.0,-0.0,-0.0,-0.0,-0.0,-0.0,-0.0,-0.0,-0.0,-0.0,-0.0,-0.0,-0.0,-0.0,-0.0,-0.0,-0.0,-0.0,-0.0,-0.0,-0.0,-0.0,-0.0,-0.0,-0.0,-0.0,-0.0,-0.0,-0.0,-0.0,-0.0,-0.0,-0.0,-0.0,-0.0,-0.0,-0.0,-0.0,-0.0,-0.0804,-0.1205,-0.1201,-0.5727,-0.7972,-0.7969,-0.7975,-0.8024,-0.8031,-0.7995,-0.8344,0.5979,0.639,0.681,0.6763,0.6805,0.6834,0.6785,0.5767,0.4498,0.3146,0.2876,0.2263,0.0362,-0.0,-0.0,-0.0,-0.3283,-0.6297,-0.7775,-0.8001,-0.8004,0.0,0.0,-0.7448,-0.7096,-0.7138,-0.7139,-0.7139,0.0,0.0,-0.7118,-0.7099,-0.7105,-0.7118,-0.7102,-0.7058,-0.7071,-0.7071,-0.7071,-0.7071,-0.7074,-0.7084,-0.7005,-0.4472,-0.2053,-0.0,0.0,-0.0,-0.0,-0.0,-0.0,-0.0,-0.0,-0.0,-0.0,-0.0,-0.0,-0.0,-0.0,-0.0,-0.0,-0.0,-0.0,-0.0,-0.0,-0.0,-0.0,-0.0,-0.0,-0.0,-0.0,-0.0,-0.0,-0.0,-0.0,-0.0,-0.0,-0.0,-0.0,-0.0,-0.0,-0.0,-0.0,-0.0,-0.0,-0.0,-0.0,-0.0,-0.0,-0.0,-0.0,-0.0,-0.0,-0.0,-0.0,-0.0,-0.0,-0.0,-0.0,-0.0,-0.0,-0.0,-0.0,-0.0,-0.2434,-0.5107,-0.8001,-0.802,-0.819,-0.8515,-0.8505,-0.8602,0.5038,0.5424,0.606,0.688,0.7066,0.7024,0.6914,0.5837,0.3892,0.0687,-0.0,-0.0,-0.0,-0.0,-0.0,-0.0,-0.2207,-0.4918,-0.764,-0.801,-0.7983,-0.7815,-0.7413,-0.7077,-0.7134,-0.7118,-0.7126,-0.7095,0.0,0.0,-0.7062,-0.698,-0.6987,-0.7059,-0.7107,-0.7105,-0.7122,-0.7074,-0.6545,-0.545,-0.5458,-0.5463,-0.5287,-0.1698,-0.0,-0.0,-0.0,-0.0,-0.0,-0.0,-0.0,-0.0,-0.0,-0.0,-0.0,-0.0,-0.0,-0.0,-0.0,-0.0,-0.0,-0.0,-0.0,-0.0,-0.0,-0.0,-0.0,-0.0,-0.0,-0.0,-0.0,-0.0,-0.0,-0.0,-0.0,-0.0,-0.0,-0.0,-0.0,-0.0,-0.0,-0.0,-0.0,-0.0,-0.0,-0.0,-0.0,-0.0,-0.0,-0.0,-0.0,-0.0,-0.0,-0.0,-0.0,-0.0,-0.0,-0.0,-0.0,-0.0,-0.0,-0.0,-0.0,-0.0,-0.0,-0.2072,-0.6155,-0.614,-0.7048,-0.8902,-0.8925,-0.8876,0.2896,0.3117,0.3984,0.6456,0.7098,0.6998,0.6494,0.3336,0.0343,0.0091,-0.0,-0.0,-0.0,-0.0,-0.0,-0.0,-0.2287,-0.4897,-0.7612,0.0,-0.7808,-0.7244,-0.7103,-0.7128,-0.7081,-0.7058,-0.7088,0.0,0.0,0.0,-0.7069,-0.6642,-0.6556,-0.7062,-0.7137,-0.7139,-0.7139,-0.7136,-0.4844,-0.0534,-0.0534,-0.0535,-0.0537,-0.0179,-0.0,-0.0,-0.0,-0.0,-0.0,-0.0,-0.0,-0.0,-0.0,-0.0,-0.0,-0.0,-0.0,-0.0,-0.0,-0.0,-0.0,-0.0,-0.0,-0.0,-0.0,-0.0,-0.0,-0.0,-0.0,-0.0,-0.0,-0.0,-0.0,-0.0,-0.0,-0.0,-0.0,-0.0,-0.0,-0.0,-0.0,-0.0,-0.0,-0.0,-0.0,-0.0,-0.0,-0.0,-0.0,-0.0,-0.0,-0.0,-0.0,-0.0,-0.0,-0.0,-0.0,-0.0,-0.0,-0.0,-0.0,-0.0,-0.0,-0.0,-0.0,-0.0209,-0.053,-0.0537,-0.3462,-0.8953,-0.8862,-0.8923,0.1045,0.2021,0.3752,0.6411,0.7364,0.6728,0.3177,0.1158,-0.0,-0.0,-0.0,-0.0,-0.0,-0.0,-0.1079,-0.4422,-0.305,-0.3049,-0.7368,-0.797,-0.7784,-0.7194,-0.7101,-0.7111,-0.7058,-0.7065,0.0,0.0,0.0,0.0,-0.6566,-0.6394,-0.6407,-0.6583,-0.6645,-0.6781,-0.707,-0.417,-0.1791,-0.0,-0.0,-0.0,-0.0,-0.0,-0.0,-0.0,-0.0,-0.0,-0.0,-0.0,-0.0,-0.0,-0.0,-0.0,-0.0,-0.0,-0.0,-0.0,-0.0,-0.0,-0.0,-0.0,-0.0,-0.0,-0.0,-0.0,-0.0,-0.0,-0.0,-0.0,-0.0,-0.0,-0.0,-0.0,-0.0,-0.0,-0.0,-0.0,-0.0,-0.0,-0.0,-0.0,-0.0,-0.0,-0.0,-0.0,-0.0,-0.0,-0.0,-0.0,-0.0,-0.0,-0.0,-0.0,-0.0,-0.0,-0.0,-0.0,-0.0,-0.0,-0.0,-0.0,-0.0,-0.0,-0.0,-0.0,-0.0,-0.0,-0.3091,-0.891,-0.893,-0.894,-0.0,0.1039,0.2527,0.4421,0.5194,0.4533,0.0804,-0.0,-0.0,-0.0,-0.0,-0.0,-0.0,-0.0,-0.1734,-0.6876,-0.4837,-0.3766,-0.7225,-0.7898,-0.7822,-0.7208,-0.7074,-0.7075,-0.7075,-0.7118,0.0,0.0,0.0,0.0,0.0,-0.6263,-0.628,-0.6278,-0.4994,-0.4516,-0.4825,-0.1667,-0.0,-0.0,-0.0,-0.0,-0.0,-0.0,-0.0,-0.0,-0.0,-0.0,-0.0,-0.0,-0.0,-0.0,-0.0,-0.0,-0.0,-0.0,-0.0,-0.0,-0.0,-0.0,-0.0,-0.0,-0.0,-0.0,-0.0,-0.0,-0.0,-0.0,-0.0,-0.0,-0.0,-0.0,-0.0,-0.0,-0.0,-0.0,-0.0,-0.0,-0.0,-0.0,-0.0,-0.0,-0.0,-0.0,-0.0,-0.0,-0.0,-0.0,-0.0,-0.0,-0.0,-0.0,-0.0,-0.0,-0.0,-0.0,-0.0,-0.0,-0.0,-0.0,-0.0,-0.0,-0.0,-0.0,-0.0,-0.0,-0.0,-0.0,-0.3015,-0.8893,-0.8856,-0.8947,-0.0,-0.0,-0.0,-0.0,-0.0,-0.0,-0.0,-0.0,-0.0,-0.0,-0.0,-0.0,-0.0,-0.0,-0.1572,-0.623,-0.7567,-0.7785,-0.7237,-0.7573,-0.7775,-0.7156,-0.7101,-0.7104,-0.7104,0.0,0.0,0.0,0.0,0.0,0.0,-0.6278,-0.6203,-0.6217,-0.2163,-0.0,-0.0,-0.0,-0.0,-0.0,-0.0,-0.0,-0.0,-0.0,-0.0,-0.0,-0.0,-0.0,-0.0,-0.0,-0.0,-0.0,-0.0,-0.0,-0.0,-0.0,-0.0,-0.0,-0.0,-0.0,-0.0,-0.0,-0.0,-0.0,-0.0,-0.0,-0.0,-0.0,-0.0,-0.0,-0.0,-0.0,-0.0,-0.0,-0.0,-0.0,-0.0,-0.0,-0.0,-0.0,-0.0,-0.0,-0.0,-0.0,-0.0,-0.0,-0.0,-0.0,-0.0,-0.0,-0.0,-0.0,-0.0,-0.0,-0.0,-0.0,-0.0,-0.0,-0.0,-0.0,-0.0,-0.0,-0.0,-0.0,-0.0,-0.0,-0.0,-0.0,-0.3017,-0.8782,-0.887,-0.885,-0.0,-0.0,-0.0,-0.0,-0.0,-0.0,-0.0,-0.0,-0.0,-0.0,-0.0,-0.0,-0.0,-0.0,-0.0462,-0.1847,-0.5111,-0.7434,-0.7732,-0.7503,-0.7274,-0.7112,-0.7063,-0.6954,0.0,0.0,0.0,0.0,0.0,0.0,0.0,-0.3513,-0.1872,-0.1879,-0.0641,-0.0,-0.0,-0.0,-0.0,-0.0,-0.0,-0.0,-0.0,-0.0,-0.0,-0.0,-0.0,-0.0,-0.0,-0.0,-0.0,-0.0,-0.0,-0.0,-0.0,-0.0,-0.0,-0.0,-0.0,-0.0,-0.0,-0.0,-0.0,-0.0,-0.0,-0.0,-0.0,-0.0,-0.0,-0.0,-0.0,-0.0,-0.0,-0.0,-0.0,-0.0,-0.0,-0.0,-0.0,-0.0,-0.0,-0.0,-0.0,-0.0,-0.0,-0.0,-0.0,-0.0,-0.0,-0.0,-0.0,-0.0,-0.0,-0.0,-0.0,-0.0,-0.0,-0.0,-0.0,-0.0,-0.0,-0.0,-0.0,-0.0,-0.0,-0.0,-0.0,-0.0,-0.0892,-0.279,-0.6924,-0.8947,-0.0,-0.0,-0.0,-0.0,-0.0,-0.0,-0.0,-0.0,-0.0,-0.0,-0.0,-0.0,-0.0,-0.0,0.0,-0.0,-0.2412,-0.5053,-0.7292,-0.7186,-0.6739,-0.6816,-0.6761,-0.5964,0.0,0.0,0.0,0.0,0.0,0.0,0.0,-0.1406,-0.0,-0.0,-0.0,-0.0,-0.0,-0.0,-0.0,-0.0,-0.0,-0.0,-0.0,-0.0,-0.0,-0.0,-0.0,-0.0,-0.0,-0.0,-0.0,-0.0,-0.0,-0.0,-0.0,-0.0,-0.0,-0.0,-0.0,-0.0,-0.0,-0.0,-0.0,-0.0,-0.0,-0.0,-0.0,-0.0,-0.0,-0.0,-0.0,-0.0,-0.0,-0.0,-0.0,-0.0,-0.0,-0.0,-0.0,-0.0,-0.0,-0.0,-0.0,-0.0,-0.0,-0.0,-0.0,-0.0,-0.0,-0.0,-0.0,-0.0,-0.0,-0.0,-0.0,-0.0,-0.0,-0.0,-0.0,-0.0,-0.0,-0.0,-0.0,-0.0,-0.0,-0.0,-0.0,-0.0,-0.1227,-0.3572,-0.7263,-0.8947,-0.0,-0.0,-0.0,-0.0,-0.0,-0.0,-0.0,-0.0,-0.0,-0.0,-0.0,-0.0,-0.0,-0.0,-0.0,-0.0,-0.0,-0.1507,-0.5883,-0.6392,-0.6213,-0.5776,-0.5752,-0.4205,0.0,0.0,0.0,0.0,0.0,0.0,0.0,-0.0,-0.0,-0.0,-0.0,-0.0,-0.0,-0.0,-0.0,-0.0,-0.0,-0.0,-0.0,-0.0,-0.0,-0.0,-0.0,-0.0,-0.0,-0.0,-0.0,-0.0,-0.0,-0.0,-0.0,-0.0,-0.0,-0.0,-0.0,-0.0,-0.0,-0.0,-0.0,-0.0,-0.0,-0.0,-0.0,-0.0,-0.0,-0.0,-0.0,-0.0,-0.0,-0.0,-0.0,-0.0,-0.0,-0.0,-0.0,-0.0,-0.0,-0.0,-0.0,-0.0,-0.0,-0.0,-0.0,-0.0,-0.0,-0.0,-0.0,-0.0,-0.0,-0.0,-0.0,-0.0,-0.0,-0.0,-0.0,-0.0,-0.0,-0.0,-0.0,-0.0,-0.0,-0.0,-0.0,-0.0,-0.3017,-0.8897,-0.887,-0.885,-0.0,-0.0,-0.0,-0.0,-0.0,-0.0,-0.0,-0.0,-0.0,-0.0,-0.0,-0.0,-0.0,-0.0,-0.0,-0.0,-0.0,-0.0333,-0.1393,-0.4668,-0.5534,-0.1825,-0.1343,0.0,0.0,0.0,0.0,0.0,0.0,0.0,-0.0,-0.0,-0.0,-0.0,-0.0,-0.0,-0.0,-0.0,-0.0,0.0,-0.0,-0.0,-0.0,-0.0,-0.0,-0.0,-0.0,-0.0,-0.0,-0.0,-0.0,-0.0,-0.0,-0.0,-0.0,-0.0,-0.0,-0.0,-0.0,-0.0,-0.0,-0.0,-0.0,-0.0,-0.0,-0.0,-0.0,-0.0,-0.0,-0.0,-0.0,-0.0,-0.0,-0.0,-0.0,-0.0,-0.0,-0.0,-0.0,-0.0,-0.0,-0.0,-0.0,-0.0,-0.0,-0.0,-0.0,-0.0,-0.0,-0.0,-0.0,-0.0,-0.0,-0.0,-0.0,-0.0,-0.0,-0.0,-0.0,-0.0,-0.0,-0.0,-0.0,-0.0,-0.0,-0.0,-0.0,-0.0,-0.3015,-0.8893,-0.8853,-0.8944,-0.0,-0.0,-0.0,-0.0,-0.0,-0.0,-0.0,-0.0,-0.0,-0.0,-0.0,-0.0,-0.0,-0.0,-0.0,-0.0,-0.0,-0.0,-0.0,-0.2157,-0.2782,-0.0313,-0.0,0.0,0.0,0.0,0.0,0.0,0.0,-0.0,-0.0,-0.0,-0.0,-0.0,-0.0,-0.0,-0.0,-0.0,-0.0,-0.0,-0.0,-0.0,-0.0,-0.0,-0.0,-0.0,-0.0,-0.0,-0.0,-0.0,-0.0,-0.0,-0.0,-0.0,-0.0,-0.0,-0.0,-0.0,-0.0,-0.0,-0.0,-0.0,-0.0,-0.0,-0.0,-0.0,-0.0,-0.0,-0.0,-0.0,-0.0,-0.0,-0.0,-0.0,-0.0,-0.0,-0.0,-0.0,-0.0,-0.0,-0.0,-0.0,-0.0,-0.0,-0.0,-0.0,-0.0,-0.0,-0.0,-0.0,-0.0,-0.0,-0.0,-0.0,-0.0,-0.0,-0.0,-0.0,-0.0,-0.0,-0.0,-0.0,-0.0,-0.0,-0.0,-0.0,-0.0,-0.0,-0.3014,-0.8893,-0.885,-0.894,-0.0,-0.0,-0.0,-0.0,-0.0,-0.0,-0.0,-0.0,-0.0,-0.0,-0.0,-0.0,-0.0,-0.0,-0.0,-0.0,-0.0,-0.0,-0.0,-0.0,-0.0,-0.0,-0.0,0.0,0.0,0.0,0.0,0.0,0.0,-0.0,-0.0,-0.0,-0.0,-0.0,-0.0,-0.0,-0.0,-0.0,-0.0,-0.0,0.0705,0.1108,0.1051,0.1097,0.0697,-0.0,-0.0,-0.0,-0.0,-0.0,-0.0,-0.0,-0.0,-0.0,-0.0,-0.0,-0.0,-0.0,-0.0,-0.0,-0.0,-0.0,-0.0,-0.0,-0.0,-0.0,-0.0,-0.0,-0.0,-0.0,-0.0,-0.0,-0.0,-0.0,-0.0,-0.0,-0.0,-0.0,-0.0,-0.0,-0.0,-0.0,-0.0,-0.0,-0.0,-0.0,-0.0,-0.0,-0.0,-0.0,-0.0,-0.0,-0.0,-0.0,-0.0,-0.0,-0.0,-0.0,-0.0,-0.0,-0.0,-0.0,-0.0,-0.0,-0.0,-0.0,-0.0,-0.0,-0.3116,-0.8893,-0.885,-0.894,-0.0,-0.0,-0.0,-0.0,-0.0,-0.0,-0.0,-0.0,-0.0,-0.0,-0.0,-0.0,-0.0,-0.0,-0.0,-0.0,-0.0,-0.0,-0.0,-0.0,-0.0,-0.0,0.0,0.0,0.0,0.0,0.0,0.0,-0.0,-0.0,-0.0,-0.0,-0.0,-0.0,-0.0,-0.0,-0.0,-0.0,-0.0,0.0078,0.3677,0.5486,0.5448,0.5488,0.3432,-0.0,-0.0,-0.0,-0.0,-0.0,-0.0,-0.0,-0.0,-0.0,-0.0,-0.0,-0.0,-0.0,-0.0,-0.0,-0.0,-0.0,-0.0,-0.0,-0.0,-0.0,-0.0,-0.0,-0.0,-0.0,-0.0,-0.0,-0.0,-0.0,-0.0,-0.0,-0.0,-0.0,-0.0,-0.0,-0.0,-0.0,-0.0,-0.0,-0.0,-0.0,-0.0,-0.0,-0.0,-0.0,-0.0,-0.0,-0.0,-0.0,-0.0,-0.0,-0.0,-0.0,-0.0,-0.0,-0.0,-0.0,-0.0,-0.0,-0.0,-0.0,-0.0,-0.0,-0.308,-0.8893,-0.885,-0.894,-0.0,-0.0,-0.0,-0.0,-0.0,-0.0,-0.0,-0.0,-0.0,-0.0,-0.0,-0.0,-0.0,-0.0,-0.0,-0.0,-0.0,-0.0,-0.0,-0.0,-0.0,-0.0,0.0,0.0,0.0,0.0,0.0,0.0,-0.0,-0.0,-0.0,-0.0,-0.0,-0.0,-0.0,0.1098,0.3536,0.3528,0.3521,0.3589,0.5407,0.6318,0.6297,0.6294,0.5485,0.399,0.3938,0.3976,0.4018,0.3942,0.2418,-0.0,-0.0,-0.0,-0.0,-0.0,-0.0,-0.0,-0.0,-0.0,-0.0,-0.0,-0.0,-0.0,-0.0,-0.0,-0.0,-0.0,-0.0,-0.0,-0.0,-0.0,-0.0,-0.0,-0.0,-0.0,-0.0,-0.0,-0.0,-0.0,-0.0,-0.0,-0.0,-0.0,-0.0,-0.0,-0.0,-0.0,-0.0,-0.0,-0.0,-0.0,-0.0,-0.0,-0.0,-0.0,-0.0,-0.0,-0.0,-0.0,-0.0,-0.0,-0.0,-0.0,-0.0,-0.0,-0.0,-0.0,-0.3068,-0.8893,-0.885,-0.894,-0.0,-0.0,-0.0,-0.0,-0.0,-0.0,-0.0,-0.0,-0.0,-0.0,-0.0,-0.0,-0.0,-0.0,-0.0,-0.0,-0.0,-0.0,-0.0,-0.0,-0.0,-0.0,0.0,0.0,0.0,0.0,0.0,0.0,-0.0,-0.0,-0.0,-0.0,-0.0,-0.0,0.1019,0.3139,0.6237,0.6298,0.6281,0.6274,0.6274,0.6271,0.6264,0.6287,0.6495,0.6943,0.7025,0.7138,0.7091,0.7115,0.4302,-0.0,-0.0,-0.0,-0.0,-0.0,-0.0,-0.0,-0.0,-0.0,-0.0,-0.0,-0.0,-0.0,-0.0,-0.0,-0.0,-0.0,-0.0,-0.0,-0.0,-0.0,-0.0,-0.0,-0.0,-0.0,-0.0,-0.0,-0.0,-0.0,-0.0,-0.0,-0.0,-0.0,-0.0,-0.0,-0.0,-0.0,-0.0,-0.0,-0.0,-0.0,-0.0,-0.0,-0.0,-0.0,-0.0,-0.0,-0.0,-0.0,-0.0,-0.0,-0.0,-0.0,-0.0,-0.0623,-0.2012,-0.0642,-0.3046,-0.8944,-0.894,-0.894,-0.0,-0.0,-0.0,-0.0,-0.0,-0.0,-0.0,-0.0,-0.0,-0.0,-0.0,-0.0,-0.0,-0.0,-0.0,-0.0,-0.0,-0.0,-0.0,-0.0,-0.0,-0.0,0.0,0.0,0.0,0.0,0.0,0.0,-0.0,-0.0,-0.0,-0.0,-0.0,-0.0,0.3853,0.6074,0.6281,0.6271,0.6264,0.6264,0.6264,0.6338,0.6338,0.6268,0.6352,0.6347,0.6891,0.7101,0.7058,0.7078,0.4283,-0.0,-0.0,-0.0,-0.0,-0.0,-0.0,-0.0,-0.0,-0.0,-0.0,-0.0,-0.0,-0.0,-0.0,-0.0,-0.0,-0.0,-0.0,-0.0,-0.0,-0.0,-0.0,-0.0,-0.0,-0.0,-0.0,-0.0,-0.0,-0.0,-0.0,-0.0,-0.0,-0.0,-0.0,-0.0,-0.0,-0.0,-0.0,-0.0,-0.0,-0.0,-0.0,-0.0,-0.0,-0.0,-0.0,-0.0,-0.0,-0.0,-0.0,-0.0,-0.0,-0.0,-0.0,-0.2544,-0.7522,-0.2526,-0.3101,-0.8876,-0.8882,-0.894,-0.0,-0.0,-0.0,-0.0,-0.0,-0.0,-0.0,-0.0,-0.0,-0.0,-0.0,-0.0,-0.0,-0.0,-0.0,-0.0,-0.0,-0.0,-0.0,-0.0,-0.0,-0.0,0.0,0.0,0.0,0.0,0.0,0.0,0.0,-0.0,-0.0,-0.0,0.1254,0.3932,0.5506,0.6288,0.6268,0.6264,0.6338,0.6338,0.6338,0.6338,0.6338,0.6338,0.6335,0.6318,0.6519,0.678,0.7104,0.7136,0.6094,0.4289,0.1164,-0.0,-0.0,-0.0,-0.0,-0.0,-0.0,-0.0,-0.0,-0.0,-0.0,-0.0,-0.0,-0.0,-0.0,-0.0,-0.0,-0.0,-0.0,-0.0,-0.0,-0.0,-0.0,-0.0,-0.0,-0.0,-0.0,-0.0,-0.0,-0.0,-0.0,-0.0,-0.0,-0.0,-0.0,-0.0,-0.0,-0.0,-0.0,-0.0,-0.0,-0.0,-0.0,-0.0,-0.0,-0.0,-0.0,-0.0,-0.0,-0.0,-0.0,-0.0,-0.0,-0.0916,-0.2907,-0.4375,-0.6482,-0.8903,-0.892,-0.8869,-0.0,-0.0,-0.0,-0.0,-0.0,-0.0,-0.0,-0.0,-0.0,-0.0,-0.0,-0.0,-0.0,-0.0,-0.0,-0.0,-0.0,-0.0,-0.0,-0.0,-0.0,-0.0,0.0,0.0,0.0,0.0,0.0,0.0,0.0,0.0,-0.0,0.1333,0.3376,0.623,0.6288,0.6271,0.6338,0.6338,0.6338,0.6338,0.6338,0.6338,0.6338,0.6338,0.6312,0.6327,0.6276,0.6612,0.7121,0.7115,0.6186,0.438,0.1254,-0.0,-0.0,-0.0,-0.0,-0.0,-0.0,-0.0,-0.0,-0.0,-0.0,-0.0,-0.0,-0.0,-0.0,-0.0,-0.0,-0.0,-0.0,-0.0,-0.0,-0.0,-0.0,-0.0,-0.0,-0.0,-0.0,-0.0,-0.0,-0.0,-0.0,-0.0,-0.0,-0.0,-0.0,-0.0,-0.0,-0.0,-0.0,-0.0,-0.0,-0.0,-0.0,-0.0,-0.0,-0.0,-0.0,-0.0,-0.0,-0.0,-0.0,-0.0,-0.0,-0.0,-0.0,-0.3613,-0.5474,-0.5969,-0.7858,-0.8835,0.0,0.0,0.0,-0.0,-0.0,-0.0,-0.0,-0.0,-0.0,-0.0,-0.0,-0.0,-0.0,-0.0,-0.0,-0.0,-0.0,-0.0,-0.0,-0.0,-0.0,-0.0,0.0,0.0,0.0,0.0,0.0,0.0,-0.0,0.0077,0.0156,0.4088,0.6312,0.6278,0.6268,0.6338,0.6338,0.6338,0.6338,0.6338,0.6338,0.6338,0.6338,0.6338,0.6338,0.6278,0.6319,0.6612,0.7114,0.7105,0.4281,-0.0,-0.0,-0.0,-0.0,-0.0,-0.0,-0.0,-0.0,-0.0,-0.0,-0.0,-0.0,-0.0,-0.0,-0.0,-0.0,-0.0,-0.0,-0.0,-0.0,-0.0,-0.0,-0.0,-0.0,-0.0,-0.0,-0.0,-0.0,-0.0,-0.0,-0.0,-0.0,-0.0,-0.0,-0.0,-0.0,-0.0,-0.0,-0.0,-0.0,-0.0,-0.0,-0.0,-0.0,-0.0,-0.0,-0.0,-0.0,-0.0,-0.0,-0.0,-0.0,-0.0,-0.0,-0.0,-0.0,-0.0,-0.0,-0.0106,-0.5737,-0.8513,-0.0,0.0,0.0,0.0,0.0,0.0,-0.0,-0.0,-0.0,-0.0,-0.0,-0.0,-0.0,-0.0,-0.0,-0.0,-0.0,-0.0,-0.0,-0.0,-0.0,-0.0,0.0,0.0,0.0,0.0,0.0,0.0,-0.0,0.1325,0.4406,0.5665,0.6285,0.6268,0.6264,0.6338,0.6338,0.6338,0.6338,0.6338,0.6338,0.6338,0.6338,0.6338,0.6338,0.6278,0.6319,0.6639,0.7129,0.7065,0.4281,-0.0,-0.0,-0.0,-0.0,-0.0,-0.0,-0.0,-0.0,-0.0,-0.0,-0.0,-0.0,-0.0,-0.0,-0.0,-0.0,-0.0,-0.0,-0.0,-0.0,-0.0,-0.0,-0.0,-0.0,-0.0,-0.0,-0.0,-0.0,-0.0,-0.0,-0.0,-0.0,-0.0,-0.0,-0.0,-0.0,-0.0,-0.0,-0.0,-0.0,-0.0,-0.0,-0.0,-0.0,-0.0,-0.0,-0.0,-0.0,-0.0,-0.0,-0.0,-0.0,-0.0,-0.0,-0.0,-0.0,-0.0,-0.0,-0.0,-0.1623,-0.4589,-0.0193,-0.0,-0.0,-0.0,0.0,0.0,-0.0,-0.0,-0.0,0.0,-0.0,-0.0,-0.0,-0.0,-0.0,-0.0,-0.0,-0.0,-0.0,-0.0,-0.0,-0.0,0.0,0.0,0.0,-0.0,-0.0,-0.0,-0.0,0.1861,0.6064,0.6285,0.6268,0.6338,0.6338,0.6338,0.6338,0.6338,0.6338,0.6338,0.6338,0.6338,0.6338,0.6338,0.6338,0.6278,0.6319,0.6619,0.7083,0.7138,0.5455,0.2765,0.0805,-0.0,-0.0,-0.0,-0.0,-0.0,-0.0,-0.0,-0.0,-0.0,-0.0,-0.0,-0.0,-0.0,-0.0,-0.0,-0.0,-0.0,-0.0,-0.0,-0.0,-0.0,-0.0,-0.0,-0.0,-0.0,-0.0,-0.0,-0.0,-0.0,-0.0,-0.0,-0.0,-0.0,-0.0,-0.0,-0.0,-0.0,-0.0,-0.0,-0.0,-0.0,-0.0,-0.0,-0.0,-0.0,-0.0,-0.0,-0.0,-0.0,-0.0,-0.0,-0.0,-0.0,-0.0,-0.0,-0.0,-0.0,-0.0,-0.1712,-0.1035,-0.0336,-0.0,-0.0,-0.0,0.0,-0.0,-0.0,-0.0,0.0,-0.0,-0.0,-0.0,-0.0,-0.0,-0.0,-0.0,-0.0,-0.0,-0.0,-0.0,-0.0,0.0,0.0,-0.0,-0.0,-0.0,-0.0,0.0454,0.2369,0.6112,0.6268,0.6338,0.6338,0.6338,0.6338,0.6338,0.6338,0.6338,0.6338,0.6338,0.6338,0.6338,0.6338,0.6338,0.6278,0.6319,0.6629,0.7104,0.7058,0.6821,0.5922,0.1614,-0.0,-0.0,-0.0,-0.0,-0.0,-0.0,-0.0,-0.0,-0.0,-0.0,-0.0,-0.0,-0.0,-0.0,-0.0,-0.0,-0.0,-0.0,-0.0,-0.0,-0.0,-0.0,-0.0,-0.0,-0.0,-0.0,-0.0,-0.0,-0.0,-0.0,-0.0,-0.0,-0.0,-0.0,-0.0,-0.0,-0.0,-0.0,-0.0,-0.0,-0.0,-0.0,-0.0,-0.0,-0.0,-0.0,-0.0,-0.0,-0.0,-0.0,-0.0,-0.0,-0.0,-0.0,-0.0,-0.0,-0.0,-0.0,-0.0,-0.4448,-0.2189,-0.0,-0.0,-0.0,0.0,-0.0,-0.0,-0.0,0.0,-0.0,-0.0,-0.0,-0.0,-0.0,-0.0,-0.0,-0.0,-0.0,-0.0,-0.0,-0.0,0.0,0.0,-0.0,-0.0,-0.0,-0.0,0.3156,0.5467,0.6278,0.6268,0.6338,0.6338,0.6338,0.6338,0.6338,0.6338,0.6338,0.6338,0.6338,0.6338,0.6338,0.6338,0.6338,0.6278,0.6319,0.6629,0.7104,0.7068,0.4835,0.1252,0.0358,-0.0,-0.0,-0.0,-0.0,-0.0,-0.0,-0.0,-0.0,-0.0,-0.0,-0.0,-0.0,-0.0,-0.0,-0.0,-0.0,-0.0,-0.0,-0.0,-0.0,-0.0,-0.0,-0.0,-0.0,-0.0,-0.0,-0.0,-0.0,-0.0,-0.0,-0.0,-0.0,-0.0,-0.0,-0.0,-0.0,-0.0,-0.0,-0.0,-0.0,-0.0,-0.0,-0.0,-0.0,-0.0,-0.0,-0.0,-0.0,-0.0,-0.0,-0.0,-0.0,-0.0,-0.0,-0.0,-0.0,-0.0,-0.0,-0.0,-0.5383,-0.4099,-0.2283,-0.0423,-0.0,0.0,0.0,-0.0,-0.0,-0.0,-0.0,-0.0,-0.0,-0.0,-0.0,-0.0,-0.0,-0.0,-0.0,-0.0,-0.0,-0.0,0.0,0.0,-0.0,-0.0,-0.0,-0.0,0.3889,0.6288,0.6271,0.6264,0.6338,0.6338,0.6338,0.6338,0.6338,0.6338,0.6338,0.6338,0.6338,0.6338,0.6338,0.6338,0.6298,0.6297,0.628,0.6599,0.6878,0.4509,0.2148,-0.0,-0.0,-0.0,-0.0,-0.0,-0.0,-0.0,-0.0,-0.0,-0.0,-0.0,-0.0,-0.0,-0.0,-0.0,-0.0,-0.0,-0.0,-0.0,-0.0,-0.0,-0.0,-0.0,-0.0,-0.0,-0.0,-0.0,-0.0,-0.0,-0.0,-0.0,-0.0,-0.0,-0.0,-0.0,-0.0,-0.0,-0.0,-0.0,-0.0,-0.0,-0.0,-0.0,-0.0,-0.0,-0.0,-0.0,-0.0,-0.0,-0.0,-0.0,-0.0,-0.0,-0.0,-0.0,-0.0,-0.0,-0.0,-0.0,-0.0,-0.0,-0.5413,-0.4862,-0.363,-0.0707,0.0,-0.0,0.0,0.0,0.0,-0.0,-0.0,-0.0,0.0,0.0,0.0,0.0,0.0,0.0,0.0,-0.0,0.0,-0.0,0.0,0.0,-0.0,-0.0,-0.0,-0.0,0.3908,0.6285,0.6264,0.6338,0.6338,0.6338,0.6338,0.6338,0.6338,0.6338,0.6338,0.6338,0.6338,0.6338,0.6338,0.6338,0.6339,0.6321,0.6404,0.6658,0.673,0.1951,-0.0,-0.0,-0.0,-0.0,-0.0,-0.0,-0.0,-0.0,-0.0,-0.0,-0.0,-0.0,-0.0,-0.0,-0.0,-0.0,-0.0,-0.0,-0.0,-0.0,-0.0,-0.0,-0.0,-0.0,-0.0,-0.0,-0.0,-0.0,-0.0,-0.0,-0.0,-0.0,-0.0,-0.0,-0.0,-0.0,-0.0,-0.0,-0.0,-0.0,-0.0,-0.0,-0.0,-0.0,-0.0,-0.0,-0.0,-0.0,-0.0,-0.0,-0.0,-0.0,-0.0,-0.0,-0.0,-0.0,-0.0,-0.0,-0.0,-0.0,-0.0,-0.0,-0.5431,-0.3063,0.0,0.0,-0.0,0.0,0.0,0.0,-0.0,-0.0,0.0,0.0,0.0,0.0,0.0,0.0,0.0,0.0,-0.0,-0.0,-0.0,-0.0,-0.0,0.0,0.0,-0.0,-0.0,-0.0,0.3904,0.6274,0.6338,0.6338,0.6338,0.6338,0.6338,0.6338,0.6338,0.6338,0.6338,0.6338,0.6338,0.6338,0.6338,0.6338,0.6267,0.6344,0.6836,0.7013,0.6743,0.1952,-0.0,-0.0,-0.0,-0.0,-0.0,-0.0,-0.0,-0.0,-0.0,-0.0,-0.0,-0.0,-0.0,-0.0,-0.0,-0.0,-0.0,-0.0,-0.0,-0.0,-0.0,-0.0,-0.0,-0.0,-0.0,-0.0,-0.0,-0.0,-0.0,-0.0,-0.0,-0.0,-0.0,-0.0,-0.0,-0.0,-0.0,-0.0,-0.0,-0.0,-0.0,-0.0,-0.0,-0.0,-0.0,-0.0,-0.0,-0.0,-0.0,-0.0,-0.0,-0.0,-0.0,-0.0,-0.0,-0.0,-0.0,-0.0,-0.0,-0.0,-0.0,-0.0,-0.2818,0.0,0.0,0.0,0.0,0.0,-0.0,0.0,-0.0,0.0,0.0,0.0,0.0,0.0,0.0,0.0,-0.0,0.0,0.0,0.0,-0.0,0.0,0.0,0.0,0.0,0.0,0.0,0.0,0.5317,0.6321,0.6301,0.6304,0.6267,0.6267,0.6265,0.6301,0.6301,0.6302,0.6338,0.6338,0.6338,0.6338,0.6338,0.6268,0.6277,0.6183,0.3983,0.2971,0.2867,0.08,-0.0,-0.0,-0.0,-0.0,-0.0,-0.0,-0.0,-0.0,-0.0,-0.0,-0.0,-0.0,-0.0,-0.0,-0.0,-0.0,-0.0,-0.0,-0.0,-0.0,-0.0,-0.0,-0.0,-0.0,-0.0,-0.0,-0.0,-0.0,-0.0,-0.0,-0.0,-0.0,-0.0,-0.0,-0.0,-0.0,-0.0,-0.0,-0.0,-0.0,-0.0,-0.0,-0.0,-0.0,-0.0,-0.0,-0.0,-0.0,-0.0,-0.0,-0.0,-0.0,-0.0,-0.0,-0.0,-0.0,-0.0,-0.0,-0.0,-0.0,-0.0,-0.0,-0.1011,0.0,0.0,0.0,0.0,0.0,0.0,0.0,0.0,0.0,0.0,0.0,0.0,0.0,-0.0,-0.0,0.0,-0.0,0.0,-0.0,0.0,0.0,0.0,0.0,0.0,0.0,0.0,0.0,0.0,0.6344,0.6542,0.6558,0.6529,0.6529,0.6508,0.6431,0.6308,0.6287,0.6298,0.6338,0.6338,0.6264,0.6268,0.6274,0.5638,0.4385,0.1326,-0.0,-0.0,-0.0,-0.0,-0.0,-0.0,-0.0,-0.0,-0.0,-0.0,-0.0,-0.0,-0.0,-0.0,-0.0,-0.0,-0.0,-0.0,-0.0,-0.0,-0.0,-0.0,-0.0,-0.0,-0.0,-0.0,-0.0,-0.0,-0.0,-0.0,-0.0,-0.0,-0.0,-0.0,-0.0,-0.0,-0.0,-0.0,-0.0,-0.0,-0.0,-0.0,-0.0,-0.0,-0.0,-0.0,-0.0,-0.0,-0.0,-0.0,-0.0,-0.0,-0.0,-0.0,-0.0,-0.0,-0.0,-0.0,-0.0,-0.0,-0.0,-0.0,-0.0,-0.0,-0.0,0.0,0.0,0.0,-0.0,0.0,0.0,0.0,0.0,-0.0,0.0,0.0,0.0,-0.0,-0.0,-0.0,-0.0,-0.0,0.0,0.0,0.0,0.0,0.0,0.0,0.0,0.0,0.0,0.0,0.0,0.0,0.0,0.7062,0.7054,0.7044,0.7044,0.704,0.6791,0.6308,0.6301,0.6314,0.6338,0.6338,0.6268,0.6278,0.6278,0.4042,0.0163,0.0083,-0.0,-0.0,-0.0,-0.0,-0.0,-0.0,-0.0,-0.0,-0.0,-0.0,-0.0,-0.0,-0.0,-0.0,-0.0,-0.0,-0.0,-0.0,-0.0,-0.0,-0.0,-0.0,-0.0,-0.0,-0.0,-0.0,-0.0,-0.0,-0.0,-0.0,-0.0,-0.0,-0.0,-0.0,-0.0,-0.0,-0.0,-0.0,-0.0,-0.0,-0.0,-0.0,-0.0,-0.0,-0.0,-0.0,-0.0,-0.0,-0.0,-0.0,-0.0,-0.0,-0.0,-0.0,-0.0,-0.0,-0.0,-0.0,-0.0,-0.0,-0.0,-0.0,-0.0,-0.0,-0.0,0.0,0.0,-0.0,-0.0,0.0,0.0,0.0,0.0,0.0,0.0,0.0,0.0,0.0,-0.0,-0.0,-0.0,-0.0,-0.0,0.0,-0.0,0.0,0.0,0.0,0.0,0.0,0.0,0.0,0.0,0.3699,0.0,0.0,0.7142,0.7097,0.7083,0.7079,0.7003,0.686,0.6488,0.6291,0.6337,0.6318,0.6278,0.621,0.3443,0.1335,-0.0,-0.0,-0.0,-0.0,-0.0,-0.0,-0.0,-0.0,-0.0,-0.0,-0.0,-0.0,-0.0,-0.0,-0.0,-0.0,-0.0,-0.0,-0.0,-0.0,-0.0,-0.0,-0.0,-0.0,-0.0,-0.0,-0.0,-0.0,-0.0,-0.0,-0.0,-0.0,-0.0,-0.0,-0.0,-0.0,-0.0,-0.0,-0.0,-0.0,-0.0,-0.0,-0.0,-0.0,-0.0,-0.0,-0.0,-0.0,-0.0,-0.0,-0.0,-0.0,-0.0,-0.0,-0.0,-0.0,-0.0,-0.0,-0.0,-0.0,-0.0,-0.0,-0.0,-0.0,-0.0,-0.0,-0.0,-0.0,-0.0,0.0,-0.0,-0.0,0.0,-0.0,0.0,0.0,0.0,0.0,0.0,0.0,-0.0,-0.0,-0.0,-0.0,-0.0,0.0,-0.0,0.0,0.0,0.0,-0.0,0.0,-0.0,0.1129,0.3874,0.1578,0.0,0.0,0.0,0.7074,0.7139,0.7142,0.7073,0.7114,0.6739,0.6512,0.6263,0.4788,0.4099,0.3997,0.1252,-0.0,-0.0,-0.0,-0.0,-0.0,-0.0,-0.0,-0.0,-0.0,-0.0,-0.0,-0.0,-0.0,-0.0,-0.0,-0.0,-0.0,-0.0,-0.0,-0.0,-0.0,-0.0,-0.0,-0.0,-0.0,-0.0,-0.0,-0.0,-0.0,-0.0,-0.0,-0.0,-0.0,-0.0,-0.0,-0.0,-0.0,-0.0,-0.0,-0.0,-0.0,-0.0,-0.0,-0.0,-0.0,-0.0,-0.0,-0.0,-0.0,-0.0,-0.0,-0.0,-0.0,-0.0,-0.0,-0.0,-0.0,-0.0,-0.0,-0.0,-0.0,-0.0,-0.0,-0.0,-0.0,-0.0,-0.0,-0.0]},{"header":{"parameterUnit":"m.s-1","parameterCategory":1,"la1":30.6,"la2":29.2853,"lo1":-89.7004,"lo2":-87.6739,"dy":0.0162,"dx":0.0183,"nx":112,"ny":82,"refTime":"2024-09-10T00:00:00:Z","depth":0,"parameterNumber":3,"parameterNumberName":"V-component_of_WINDS"},"data":[0.0,0.0,0.0,0.0,0.0,0.0,0.0,0.0,0.0,0.0,0.0,0.0,0.0,0.0,0.0,0.0,0.0,0.0,0.0,0.0,0.0,0.0,0.0,0.0,0.0,0.0,0.0,0.0,0.0,0.0,0.0,0.0,0.0,0.0,0.0,0.0,0.0,0.0,0.0,0.0,0.0,0.0,0.0,0.0,0.0,0.0,0.0,0.0,0.0,0.0,0.0,0.0,0.0,0.0,0.0,0.0,0.0,0.0,0.0,0.0,0.0,0.0,0.0,0.0,0.0,0.0,0.0,0.0,0.0,0.0,0.0,0.0,0.0,0.0,0.0,0.0,0.0,0.0,0.0,0.0,0.0,0.0,0.0,0.0,0.0,0.0,0.0,0.0,0.0,0.0,-2.9864,-3.0582,-3.118,-3.1764,-3.2317,-3.2362,-3.1749,-3.0298,0.0,0.0,0.0,0.0,0.0,0.0,0.0,0.0,0.0,0.0,0.0,0.0,0.0,0.0,0.0,0.0,0.0,0.0,0.0,0.0,0.0,0.0,0.0,0.0,0.0,0.0,0.0,0.0,0.0,0.0,0.0,0.0,0.0,0.0,0.0,0.0,0.0,0.0,0.0,0.0,0.0,0.0,0.0,0.0,0.0,0.0,0.0,0.0,0.0,0.0,0.0,0.0,0.0,0.0,0.0,0.0,0.0,0.0,0.0,0.0,0.0,0.0,0.0,0.0,0.0,0.0,0.0,0.0,0.0,0.0,0.0,0.0,0.0,0.0,0.0,0.0,0.0,0.0,0.0,0.0,0.0,0.0,0.0,0.0,0.0,0.0,0.0,0.0,0.0,0.0,0.0,0.0,0.0,0.0,0.0,0.0,0.0,0.0,0.0,0.0,0.0,0.0,0.0,0.0,-3.0043,-3.124,-3.1422,-3.1511,-3.1616,-3.1616,-3.0881,-2.9011,0.0,0.0,0.0,0.0,0.0,0.0,0.0,0.0,0.0,0.0,0.0,0.0,0.0,0.0,0.0,0.0,0.0,0.0,0.0,0.0,0.0,0.0,0.0,0.0,0.0,0.0,0.0,0.0,0.0,0.0,0.0,0.0,0.0,0.0,0.0,0.0,0.0,0.0,0.0,0.0,0.0,0.0,0.0,0.0,0.0,0.0,0.0,0.0,0.0,0.0,0.0,0.0,0.0,0.0,0.0,0.0,0.0,0.0,0.0,0.0,0.0,0.0,0.0,0.0,0.0,0.0,0.0,0.0,0.0,0.0,0.0,0.0,0.0,0.0,0.0,0.0,0.0,0.0,0.0,0.0,0.0,0.0,0.0,0.0,0.0,0.0,0.0,0.0,0.0,0.0,0.0,0.0,0.0,0.0,0.0,0.0,0.0,0.0,0.0,0.0,0.0,0.0,0.0,-2.9699,-3.0313,-3.0911,-3.0971,-3.0836,-3.0507,-3.0776,-3.0133,-2.8173,-2.8323,0.0,0.0,0.0,0.0,0.0,0.0,0.0,0.0,0.0,0.0,0.0,0.0,0.0,0.0,0.0,0.0,0.0,0.0,0.0,0.0,0.0,0.0,0.0,0.0,0.0,0.0,0.0,0.0,0.0,0.0,0.0,0.0,0.0,0.0,0.0,0.0,0.0,0.0,0.0,0.0,0.0,0.0,0.0,0.0,0.0,0.0,0.0,0.0,0.0,0.0,0.0,0.0,0.0,0.0,0.0,0.0,0.0,0.0,0.0,0.0,0.0,0.0,0.0,0.0,0.0,0.0,0.0,0.0,0.0,0.0,0.0,0.0,0.0,0.0,0.0,0.0,0.0,0.0,0.0,0.0,0.0,0.0,0.0,0.0,0.0,0.0,0.0,0.0,0.0,0.0,0.0,0.0,0.0,0.0,0.0,0.0,0.0,0.0,0.0,0.0,0.0,0.0,-3.0552,-3.0687,-3.0522,-3.0507,-3.0253,-2.9639,-2.9879,-2.928,-2.7455,-2.72,0.0,0.0,0.0,0.0,0.0,0.0,0.0,0.0,0.0,0.0,0.0,0.0,0.0,0.0,0.0,0.0,0.0,0.0,0.0,0.0,0.0,0.0,0.0,0.0,0.0,0.0,0.0,0.0,0.0,0.0,0.0,0.0,0.0,0.0,0.0,0.0,0.0,0.0,0.0,0.0,0.0,0.0,0.0,0.0,0.0,0.0,0.0,0.0,0.0,0.0,0.0,0.0,0.0,0.0,0.0,0.0,0.0,0.0,0.0,0.0,0.0,0.0,0.0,0.0,0.0,0.0,0.0,0.0,0.0,0.0,0.0,0.0,0.0,0.0,0.0,0.0,0.0,0.0,0.0,0.0,0.0,0.0,0.0,0.0,0.0,0.0,0.0,0.0,0.0,0.0,0.0,0.0,0.0,0.0,0.0,0.0,0.0,0.0,0.0,0.0,0.0,0.0,-3.0717,-3.121,-3.0567,-3.0507,-3.0253,-2.9639,-2.9071,-2.8143,-2.6752,-2.6093,0.0,0.0,0.0,0.0,0.0,0.0,0.0,0.0,0.0,0.0,0.0,0.0,0.0,0.0,0.0,0.0,0.0,0.0,0.0,0.0,0.0,0.0,0.0,0.0,0.0,0.0,0.0,0.0,0.0,0.0,0.0,0.0,0.0,0.0,0.0,0.0,0.0,0.0,0.0,0.0,0.0,0.0,0.0,0.0,0.0,0.0,0.0,0.0,0.0,0.0,0.0,0.0,0.0,0.0,0.0,0.0,0.0,0.0,0.0,0.0,0.0,0.0,0.0,0.0,0.0,0.0,0.0,0.0,0.0,0.0,0.0,0.0,0.0,0.0,0.0,0.0,0.0,0.0,0.0,0.0,0.0,0.0,0.0,0.0,0.0,0.0,0.0,0.0,0.0,0.0,0.0,0.0,0.0,0.0,0.0,0.0,0.0,0.0,0.0,0.0,0.0,0.0,-3.1022,-3.1328,-3.0624,-3.0165,-2.9651,-2.8946,-2.9057,-2.8385,-2.6642,0.0,0.0,0.0,0.0,0.0,0.0,0.0,0.0,0.0,0.0,0.0,0.0,0.0,0.0,0.0,0.0,0.0,0.0,0.0,0.0,0.0,0.0,0.0,0.0,0.0,0.0,0.0,0.0,0.0,0.0,0.0,0.0,0.0,0.0,0.0,0.0,0.0,0.0,0.0,0.0,0.0,0.0,0.0,0.0,0.0,0.0,0.0,0.0,0.0,0.0,0.0,0.0,0.0,0.0,0.0,0.0,0.0,0.0,0.0,0.0,0.0,0.0,0.0,0.0,0.0,0.0,0.0,0.0,0.0,0.0,0.0,0.0,0.0,0.0,0.0,0.0,0.0,0.0,0.0,0.0,0.0,0.0,0.0,0.0,0.0,0.0,0.0,0.0,0.0,0.0,0.0,0.0,0.0,0.0,0.0,0.0,0.0,0.0,0.0,0.0,0.0,0.0,-3.0712,-3.1663,-3.1883,-3.1008,-3.049,-2.9797,-2.8857,-2.8998,-2.8497,-2.6835,0.0,0.0,0.0,0.0,0.0,0.0,0.0,0.0,0.0,0.0,0.0,0.0,0.0,0.0,0.0,0.0,0.0,0.0,0.0,0.0,0.0,0.0,0.0,0.0,0.0,0.0,0.0,0.0,0.0,0.0,0.0,0.0,0.0,0.0,0.0,0.0,0.0,0.0,0.0,0.0,0.0,0.0,0.0,0.0,0.0,0.0,0.0,0.0,0.0,0.0,0.0,0.0,0.0,0.0,0.0,0.0,0.0,0.0,0.0,0.0,0.0,0.0,0.0,0.0,0.0,0.0,0.0,0.0,0.0,0.0,0.0,0.0,0.0,0.0,0.0,0.0,0.0,0.0,0.0,0.0,0.0,0.0,0.0,0.0,0.0,0.0,0.0,0.0,0.0,0.0,0.0,0.0,0.0,0.0,0.0,0.0,0.0,0.0,0.0,0.0,0.0,0.0,-3.1342,-3.2752,-3.3088,-3.1678,-3.1518,-3.091,-2.9534,-2.8778,-2.8116,0.0,0.0,0.0,0.0,0.0,0.0,0.0,0.0,0.0,0.0,0.0,0.0,0.0,0.0,0.0,0.0,0.0,0.0,0.0,0.0,0.0,0.0,0.0,0.0,0.0,0.0,0.0,0.0,0.0,0.0,0.0,0.0,0.0,0.0,0.0,0.0,0.0,0.0,0.0,0.0,0.0,0.0,0.0,0.0,0.0,0.0,0.0,0.0,0.0,0.0,0.0,0.0,0.0,0.0,0.0,0.0,0.0,0.0,0.0,0.0,0.0,0.0,0.0,0.0,0.0,0.0,0.0,0.0,0.0,0.0,0.0,0.0,0.0,0.0,0.0,0.0,0.0,0.0,0.0,0.0,0.0,0.0,0.0,0.0,0.0,0.0,0.0,0.0,0.0,0.0,0.0,0.0,0.0,0.0,0.0,0.0,0.0,0.0,0.0,0.0,0.0,0.0,0.0,-3.2073,-3.345,-3.3794,-3.2354,-3.1772,-3.1098,-3.0109,-2.9868,-2.9214,-2.7987,0.0,0.0,0.0,0.0,0.0,0.0,0.0,0.0,0.0,0.0,0.0,0.0,0.0,0.0,0.0,0.0,0.0,0.0,0.0,0.0,0.0,0.0,0.0,0.0,0.0,0.0,0.0,0.0,0.0,0.0,0.0,0.0,0.0,0.0,0.0,0.0,0.0,0.0,0.0,0.0,0.0,0.0,0.0,0.0,0.0,0.0,0.0,0.0,0.0,0.0,0.0,0.0,0.0,0.0,0.0,0.0,0.0,0.0,0.0,0.0,0.0,0.0,0.0,0.0,0.0,0.0,0.0,0.0,0.0,0.0,0.0,0.0,0.0,0.0,0.0,0.0,0.0,0.0,0.0,0.0,0.0,0.0,0.0,0.0,0.0,0.0,0.0,0.0,0.0,0.0,0.0,0.0,0.0,0.0,0.0,0.0,0.0,0.0,0.0,0.0,0.0,0.0,-3.2744,-3.4106,-3.4439,-3.299,-3.2496,-3.1813,-3.0734,-3.0658,-3.0042,-2.8598,0.0,0.0,0.0,0.0,0.0,0.0,0.0,0.0,0.0,0.0,0.0,0.0,0.0,0.0,0.0,0.0,0.0,0.0,0.0,0.0,0.0,0.0,0.0,0.0,0.0,0.0,0.0,0.0,0.0,0.0,0.0,0.0,0.0,0.0,0.0,0.0,0.0,0.0,0.0,0.0,0.0,0.0,0.0,0.0,0.0,0.0,0.0,0.0,0.0,0.0,0.0,0.0,0.0,0.0,0.0,0.0,0.0,0.0,0.0,0.0,0.0,0.0,0.0,0.0,0.0,0.0,0.0,0.0,0.0,0.0,0.0,0.0,0.0,0.0,0.0,0.0,0.0,0.0,0.0,0.0,0.0,0.0,0.0,0.0,0.0,0.0,0.0,0.0,0.0,0.0,0.0,0.0,0.0,0.0,0.0,0.0,0.0,0.0,0.0,0.0,0.0,0.0,-3.3322,-3.4692,-3.4979,-3.3558,-3.3339,-3.273,-3.1309,-3.119,-3.0598,-2.9178,0.0,0.0,0.0,0.0,0.0,0.0,0.0,0.0,0.0,0.0,0.0,0.0,0.0,0.0,0.0,0.0,0.0,0.0,0.0,0.0,0.0,0.0,0.0,0.0,0.0,0.0,0.0,0.0,0.0,0.0,0.0,0.0,0.0,0.0,0.0,0.0,0.0,0.0,0.0,0.0,0.0,0.0,0.0,0.0,0.0,0.0,0.0,0.0,0.0,0.0,0.0,0.0,0.0,0.0,0.0,0.0,0.0,0.0,0.0,0.0,-3.048,0.0,0.0,0.0,0.0,0.0,0.0,0.0,0.0,0.0,0.0,0.0,0.0,0.0,0.0,0.0,0.0,0.0,0.0,0.0,0.0,0.0,0.0,0.0,0.0,0.0,0.0,0.0,0.0,0.0,0.0,0.0,0.0,0.0,0.0,0.0,0.0,0.0,0.0,0.0,0.0,0.0,-3.4066,-3.4539,-3.4387,-3.3508,-3.2882,-3.2154,-3.1275,-3.119,-3.0818,-2.9922,-2.9313,0.0,0.0,0.0,0.0,0.0,0.0,0.0,0.0,0.0,0.0,0.0,0.0,0.0,0.0,0.0,0.0,0.0,0.0,0.0,0.0,0.0,0.0,0.0,0.0,0.0,0.0,0.0,0.0,0.0,0.0,0.0,0.0,0.0,0.0,0.0,0.0,0.0,0.0,0.0,0.0,0.0,0.0,0.0,0.0,0.0,0.0,0.0,0.0,0.0,0.0,0.0,0.0,0.0,0.0,0.0,0.0,0.0,0.0,0.0,0.0,-3.2488,0.0,0.0,0.0,0.0,0.0,0.0,0.0,0.0,0.0,0.0,0.0,0.0,0.0,0.0,0.0,0.0,0.0,0.0,0.0,0.0,0.0,0.0,0.0,0.0,0.0,0.0,0.0,0.0,0.0,0.0,0.0,0.0,0.0,0.0,0.0,0.0,0.0,0.0,0.0,0.0,-3.4303,-3.4489,-3.4218,-3.3491,-3.273,-3.1985,-3.1258,-3.119,-3.0886,-3.0159,-2.9907,0.0,0.0,0.0,0.0,0.0,0.0,0.0,0.0,0.0,0.0,0.0,0.0,0.0,0.0,0.0,0.0,0.0,0.0,0.0,0.0,0.0,0.0,0.0,0.0,0.0,0.0,0.0,0.0,0.0,0.0,0.0,0.0,0.0,0.0,0.0,0.0,0.0,0.0,0.0,0.0,0.0,0.0,0.0,0.0,0.0,0.0,0.0,0.0,0.0,0.0,0.0,0.0,0.0,-3.8821,-3.8723,-3.8237,-3.8094,-3.8411,-3.8915,-3.6594,-3.6007,-3.6684,-3.5492,0.0,0.0,0.0,0.0,0.0,0.0,0.0,0.0,0.0,0.0,0.0,0.0,0.0,0.0,0.0,0.0,0.0,0.0,0.0,0.0,0.0,0.0,0.0,0.0,-3.9292,-3.9505,0.0,0.0,0.0,0.0,0.0,0.0,0.0,0.0,0.0,0.0,0.0,0.0,-3.4523,-3.4472,-3.4066,-3.3474,-3.2628,-3.1873,-3.1342,-3.1291,-3.1057,-3.0557,-3.0715,-3.068,0.0,0.0,0.0,0.0,0.0,0.0,0.0,0.0,0.0,0.0,0.0,0.0,0.0,0.0,0.0,0.0,0.0,0.0,0.0,0.0,0.0,0.0,0.0,0.0,0.0,0.0,0.0,0.0,0.0,0.0,0.0,0.0,-3.3403,-3.3821,0.0,0.0,0.0,0.0,0.0,0.0,0.0,0.0,0.0,0.0,0.0,0.0,0.0,-3.8487,-3.8707,-4.0102,-4.0749,-4.0701,-4.2109,-4.2486,-4.1949,-4.1248,-4.1109,-4.1339,-4.0784,0.0,-3.8199,-3.8026,0.0,0.0,0.0,0.0,0.0,0.0,0.0,0.0,0.0,0.0,0.0,0.0,0.0,0.0,0.0,0.0,0.0,0.0,0.0,0.0,0.0,0.0,-4.2809,-4.2699,-4.2486,-4.2181,0.0,-3.8846,-3.6042,-3.5423,-3.5745,0.0,0.0,0.0,0.0,0.0,0.0,0.0,-3.5368,-3.4353,-3.3508,-3.3423,-3.2171,-3.1453,-3.1696,-3.1716,-3.1845,-3.2175,-3.1623,-3.1865,-3.3121,-3.1948,0.0,0.0,0.0,0.0,0.0,0.0,0.0,0.0,0.0,0.0,0.0,0.0,0.0,0.0,0.0,0.0,0.0,0.0,0.0,0.0,0.0,0.0,0.0,0.0,0.0,0.0,0.0,0.0,0.0,-3.3336,-3.5293,-3.4963,-3.6059,-3.6269,0.0,0.0,0.0,0.0,0.0,0.0,0.0,0.0,0.0,-4.001,-4.0065,-4.0487,-4.1387,-4.2103,-4.2451,-4.2451,-4.3149,-4.3375,-4.3124,-4.2777,-4.2687,-4.2754,-4.2668,-4.214,-4.1234,-4.0489,-3.9878,-3.9405,0.0,0.0,0.0,0.0,-3.9942,-3.9859,-4.0787,-4.0924,0.0,-3.9772,0.0,0.0,0.0,0.0,0.0,0.0,0.0,0.0,0.0,0.0,-4.2928,-4.3387,-4.3339,-4.3069,-4.2788,-4.1268,-3.9691,0.0,-3.8434,-3.7784,-3.5924,0.0,0.0,0.0,0.0,-3.5304,-3.6394,-3.4938,-3.3871,-3.4172,-3.2817,-3.2021,-3.2179,-3.2196,-3.2282,-3.2484,-3.2456,-3.2903,-3.4049,-3.3472,-3.3306,0.0,0.0,0.0,0.0,0.0,0.0,0.0,0.0,0.0,0.0,0.0,0.0,0.0,0.0,0.0,0.0,0.0,0.0,0.0,0.0,0.0,0.0,0.0,0.0,0.0,0.0,0.0,0.0,-3.5381,-3.687,-3.6403,-3.8173,-3.8773,0.0,0.0,0.0,0.0,0.0,0.0,-3.957,-3.9625,-4.0267,-4.168,-4.1717,-4.2286,-4.3479,-4.3497,-4.3497,-4.3497,-4.3497,-4.3387,-4.3185,-4.3406,-4.3387,-4.3185,-4.3406,-4.3497,-4.3442,-4.2395,-4.1902,-4.1666,-4.1285,-4.1373,-4.1791,-4.2396,-4.2231,-4.1901,-4.3075,-4.3112,-4.2506,-4.1919,0.0,-4.1185,-3.9992,0.0,0.0,0.0,0.0,-4.1864,-4.2451,-4.2598,-4.2763,-4.3351,-4.3497,-4.341,-4.2976,-4.2788,-4.2358,0.0,-4.0732,-3.9904,-3.7912,0.0,0.0,0.0,0.0,-3.6365,-3.7099,-3.5492,-3.4399,-3.4748,-3.342,-3.255,-3.2681,-3.2681,-3.2713,-3.284,-3.3166,-3.3814,-3.4848,-3.4903,-3.4994,-3.5272,0.0,0.0,0.0,0.0,0.0,0.0,0.0,0.0,0.0,0.0,0.0,0.0,0.0,0.0,0.0,0.0,0.0,0.0,0.0,0.0,0.0,0.0,0.0,0.0,0.0,0.0,0.0,0.0,0.0,-3.8846,-4.0421,0.0,0.0,0.0,0.0,-3.9717,-3.9772,-4.0451,-4.2047,-4.2121,-4.2506,-4.3332,-4.3369,-4.3406,-4.3497,-4.3497,-4.3497,-4.3497,-4.3497,-4.3094,-4.2396,-4.3149,-4.3075,-4.2396,-4.3167,-4.3497,-4.3479,-4.3442,-4.3406,-4.3369,-4.3369,-4.3369,-4.3369,-4.3406,-4.3406,-4.3387,-4.3461,-4.3461,-4.3424,-4.3387,-4.2855,-4.2213,-4.2139,-4.2158,0.0,0.0,-4.2763,-4.3387,-4.3424,-4.3424,-4.3442,-4.3479,-4.3497,-4.3479,-4.3463,-4.305,-4.2519,0.0,-4.219,-4.2099,-4.073,0.0,-4.0578,-3.8543,-3.8235,-3.7987,-3.7279,-3.5774,-3.4748,-3.4801,-3.342,-3.2681,-3.3124,-3.3154,-3.3332,-3.3707,-3.3762,-3.4495,-3.6127,-3.6201,-3.6567,-3.7349,-3.6549,0.0,0.0,0.0,0.0,0.0,0.0,0.0,0.0,0.0,0.0,0.0,0.0,0.0,0.0,0.0,0.0,0.0,0.0,0.0,0.0,0.0,0.0,0.0,0.0,0.0,0.0,0.0,0.0,-4.0644,-4.1698,0.0,-4.0373,-4.0249,-4.0579,-4.1387,-4.1442,-4.1919,-4.3002,-4.3057,-4.3185,-4.3479,-4.3497,-4.3497,-4.3497,-4.3497,-4.3222,-4.2727,-4.2727,-4.2304,-4.1552,-4.1827,-4.2084,-4.2323,-4.2598,-4.302,-4.3497,-4.3497,-4.3497,-4.3497,-4.3497,-4.3497,-4.3497,-4.3497,-4.3497,-4.3497,-4.3497,-4.3497,-4.3497,-4.3497,-4.3296,-4.3057,-4.3057,-4.3057,-4.3057,-4.3057,-4.3277,-4.3497,-4.3497,-4.3497,-4.3369,-4.2837,-4.2727,-4.2727,-4.2727,-4.2571,-4.2522,-4.2849,-4.2808,-4.2384,-4.1384,-4.1234,-4.0704,-3.9103,-3.8402,-3.8097,-3.8171,-3.6456,-3.5382,-3.5724,-3.4322,-3.3419,-3.3578,-3.3578,-3.3652,-3.3788,-3.3807,-3.4302,-3.5422,-3.6009,-3.667,-3.7489,-3.7202,-3.6248,0.0,0.0,0.0,0.0,0.0,0.0,0.0,0.0,0.0,0.0,0.0,0.0,0.0,0.0,0.0,0.0,0.0,0.0,0.0,0.0,0.0,0.0,0.0,0.0,0.0,-3.9895,-4.1418,-4.1732,-4.2623,-4.2791,-4.1773,-4.1834,-4.2139,-4.2653,-4.269,-4.2928,-4.3461,-4.3497,-4.3497,-4.3497,-4.3497,-4.3497,-4.3497,-4.3497,-4.3094,-4.2304,-4.2304,-4.1735,-4.0708,-4.0983,-4.1258,-4.1515,-4.1791,-4.2194,-4.2708,-4.2983,-4.3094,-4.3112,-4.3387,-4.3497,-4.3497,-4.3497,-4.3497,-4.3497,-4.3497,-4.3497,-4.3497,-4.3497,-4.3497,-4.3497,-4.3497,-4.3497,-4.3497,-4.3497,-4.3497,-4.3424,-4.3167,-4.3094,-4.2892,-4.2084,-4.1901,-4.1901,-4.1901,-4.1901,-4.2139,-4.2928,-4.3032,-4.2795,-4.2268,-4.2043,-4.1415,-3.9995,-3.9309,-3.8919,-3.8731,-3.7215,-3.6206,-3.6292,-3.5037,-3.41,-3.3825,-3.3807,-3.3917,-3.4192,-3.4211,-3.4706,-3.5807,-3.6138,-3.667,-3.7489,-3.7507,-3.7092,-3.6219,0.0,0.0,0.0,0.0,0.0,0.0,0.0,0.0,0.0,0.0,0.0,0.0,0.0,0.0,0.0,0.0,0.0,0.0,0.0,0.0,0.0,0.0,0.0,-3.8994,-4.0808,-4.2162,-4.2176,-4.3268,-4.3711,-4.2928,-4.3264,-4.3513,-4.3497,-4.3497,-4.3497,-4.3497,-4.3497,-4.3497,-4.3497,-4.3497,-4.3497,-4.3497,-4.3461,-4.3057,-4.2268,-4.2249,-4.1405,-3.9882,-4.0671,-4.0616,-3.9937,-4.0726,-4.1093,-4.1167,-4.1937,-4.2268,-4.2341,-4.3167,-4.3497,-4.3497,-4.3497,-4.3461,-4.3442,-4.3424,-4.3424,-4.3442,-4.3442,-4.3461,-4.3497,-4.3497,-4.3497,-4.3497,-4.3497,-4.3461,-4.3277,-4.2506,-4.2286,-4.2066,-4.1258,-4.1075,-4.1075,-4.1075,-4.1075,-4.1313,-4.2121,-4.2892,-4.3424,-4.3479,-4.3442,-4.2892,-4.135,-4.1075,0.0,-3.8909,-3.7991,-3.7184,-3.6413,-3.5569,-3.4743,-3.3935,-3.388,-3.4211,-3.4972,-3.5027,-3.5789,-3.7422,-3.678,-3.6762,-3.7588,-3.7599,-3.7955,-3.8744,0.0,0.0,0.0,0.0,0.0,0.0,0.0,0.0,0.0,0.0,0.0,0.0,0.0,0.0,0.0,0.0,0.0,0.0,0.0,0.0,0.0,-4.0546,-4.203,-4.1925,-4.2946,-4.3827,-4.4227,-4.4569,-4.4492,-4.3741,-4.3794,-4.374,-4.3513,-4.3497,-4.3497,-4.3497,-4.3497,-4.3497,-4.3497,-4.3497,-4.3497,-4.3497,-4.291,-4.2231,-4.1423,-4.0836,-4.001,-3.9038,-3.9258,-3.9551,-3.99,-4.012,-4.0561,-4.113,-4.135,-4.1442,-4.1589,-4.2947,-4.3497,-4.3497,-4.3497,-4.313,-4.2543,-4.1974,-4.2139,-4.2635,-4.2635,-4.302,-4.3497,-4.3497,-4.3497,-4.3497,-4.3497,-4.3075,-4.258,-4.2359,-4.1882,-4.124,-4.0414,-4.023,-4.023,-4.023,-4.023,-4.0469,-4.1277,-4.1625,-4.2139,-4.3296,-4.2525,-4.1625,-4.1185,-4.012,0.0,-3.8762,-3.7991,-3.7434,-3.7184,-3.6431,-3.5844,-3.5624,-3.5605,-3.5716,-3.5936,-3.5936,-3.6413,-3.7441,-3.7845,-3.8689,-4.0084,-3.9533,-3.935,0.0,0.0,0.0,0.0,0.0,0.0,0.0,0.0,0.0,0.0,0.0,0.0,0.0,0.0,0.0,0.0,0.0,0.0,0.0,0.0,0.0,0.0,-4.2412,-4.372,-4.4105,-4.4547,-4.4821,-4.4767,-4.4645,-4.4235,-4.3446,-4.3221,-4.3032,-4.2728,-4.2696,-4.265,-4.2488,-4.2488,-4.2488,-4.2488,-4.2488,-4.2488,-4.2488,-4.2029,-4.1387,-4.0598,-4.012,-3.9478,-3.8707,-3.8707,-3.8964,0.0,-3.9405,-3.9662,-4.012,-4.0469,-4.0598,0.0,0.0,0.0,0.0,0.0,-4.2194,-4.1735,-4.1277,-4.1423,-4.1809,-4.1809,-4.2121,-4.2488,-4.2488,-4.2488,-4.2488,-4.2488,-4.2158,-4.1717,-4.1387,-4.0946,-4.0396,-3.9588,-3.9405,-3.9405,-3.9405,-3.9405,-3.9643,-4.0451,-4.0598,0.0,-4.2286,-4.1735,-4.1001,-4.0653,-3.9808,-3.9074,-3.8744,-3.8285,-3.7863,-3.7533,-3.7074,-3.667,-3.6321,-3.6303,0.0,0.0,0.0,-3.7661,-3.8469,-3.8946,0.0,0.0,0.0,0.0,0.0,0.0,0.0,0.0,-4.0359,-4.0506,0.0,0.0,0.0,0.0,0.0,0.0,0.0,0.0,0.0,0.0,0.0,0.0,0.0,0.0,0.0,0.0,-4.3932,-4.4682,-4.5355,-4.5451,-4.5163,-4.4393,-4.3963,-4.3401,-4.2578,-4.2219,-4.1945,-4.167,-4.1642,-4.1516,-4.119,0.0,0.0,0.0,0.0,-4.1158,-4.1158,-4.102,-4.0616,-3.99,-3.9808,-3.9386,-3.8707,-3.8707,-3.8707,-3.8707,-3.8707,-3.8719,-3.8805,-3.9504,-3.9829,-3.9933,-4.0841,-4.1126,-4.1093,-4.1015,-4.0997,-4.0965,-4.0887,0.0,0.0,-4.0997,-4.1052,-4.1111,-4.1111,-4.1111,-4.1111,-4.1111,-4.1038,-4.0818,-4.0084,-3.9858,-3.9614,-3.8897,-3.8762,-3.8792,-3.8792,-3.8792,-3.8994,-3.9743,-3.989,-4.0081,-4.0817,-4.0988,-4.0772,-4.0037,-3.9915,-3.9614,-3.8884,-3.8762,-3.8486,-3.7808,0.0,0.0,-3.674,-3.6628,-3.6977,-3.7827,-3.867,-3.9498,-4.0259,-4.0325,-4.0712,-4.1461,-4.148,-4.2212,-4.3631,-4.3563,-4.3548,-4.3493,-4.1328,-4.1056,0.0,0.0,0.0,0.0,0.0,0.0,0.0,0.0,0.0,0.0,0.0,0.0,0.0,0.0,0.0,-4.4025,-4.4872,-4.5163,-4.4624,-4.4547,-4.4489,-4.4316,-4.3667,-4.3042,-4.2541,-4.2441,-4.2265,-4.1945,-4.1919,-4.1807,-4.1516,-4.1717,-4.1744,-4.1516,-4.1486,-4.1486,-4.1486,-4.059,-4.0047,-3.9882,0.0,0.0,-3.8707,-3.8707,-3.8707,-3.8707,-3.8707,-3.8815,-3.9027,-3.9175,-3.9421,-3.9777,-4.1036,-4.1342,-4.1052,-4.0607,-4.0325,-4.0092,-3.9637,-3.9771,-4.0184,-4.0378,-4.0757,-4.1111,-4.1111,-4.1111,0.0,-4.1111,-4.0634,-4.0102,-3.9937,-3.9575,-3.9212,-3.9045,-3.9223,-3.9427,-3.9427,-3.9427,-3.9464,-3.9614,-3.9652,-3.9708,-3.9858,-4.0197,-4.0391,-4.0243,-3.9904,-3.9596,-3.9445,-3.9197,-3.9088,-3.9177,-3.8757,-3.8607,-3.8933,-3.8712,-3.904,-4.0165,-4.1344,-4.2192,-4.2626,-4.2994,-4.3413,-4.3922,-4.3922,-4.4091,-4.4392,-4.4046,-4.3893,-4.3893,-4.3133,-4.2965,0.0,0.0,0.0,0.0,0.0,0.0,0.0,0.0,0.0,0.0,0.0,-4.0603,-4.1443,0.0,-4.4248,-4.5015,-4.5084,-4.4872,-4.4374,-4.3585,-4.3047,-4.3047,-4.2701,-4.2189,-4.1549,-4.1511,-4.138,-4.1051,-4.1048,-4.0934,-4.0615,-4.0722,-4.0747,-4.0615,-4.0589,-4.0589,-4.0589,-4.0037,-3.9751,-3.9751,-3.9341,-3.9045,-3.8894,-3.8894,-3.8815,-3.8707,-3.8707,-3.8855,-3.9125,-3.9289,-3.9438,-3.9675,-4.0519,-4.064,-4.0328,-4.005,-3.9848,-3.9722,-3.9439,-3.9537,-3.9778,-3.99,-4.0147,-4.0337,-4.0337,-4.0337,-4.0337,-4.0337,-4.004,-3.9751,-3.9751,-3.9548,-3.9339,-3.9339,-3.9481,-3.9599,-3.9599,-3.9599,-3.9599,-3.9599,-3.9599,-3.9599,-3.9599,-4.0278,-4.0602,-4.0059,-3.9768,-3.9599,-3.9599,-3.9438,-3.9414,-3.9576,-3.9327,-3.9462,-4.0203,-4.0459,-4.1017,-4.2038,-4.2716,-4.3329,-4.3919,-4.4175,-4.4373,-4.4599,-4.458,-4.458,-4.458,-4.4419,-4.429,-4.429,-4.393,-4.367,0.0,0.0,0.0,0.0,0.0,0.0,0.0,-3.8965,-3.957,-4.0469,-4.1855,-4.3105,-4.375,-4.4375,-4.4979,-4.5512,-4.4855,-4.4182,-4.3912,-4.2701,-4.1777,-4.1604,-4.1566,-4.1277,-4.0566,-4.0489,-4.0406,-4.0195,-4.0177,-4.0042,-3.9712,-3.9735,-3.9757,-3.969,-3.9709,-3.9709,-3.9709,-3.9622,-3.9599,-3.9599,-3.9599,-3.9462,-3.9205,-3.9205,-3.9082,-3.8892,-3.8931,-3.91,-3.9314,-3.9626,-3.9778,-3.98,-4.0081,-4.0003,-3.9778,-3.9712,-3.9645,-3.9599,-3.9668,-3.9645,-3.9622,-3.9668,-3.9645,-3.9599,-3.9599,-3.9599,-3.9599,-3.9599,-3.9599,-3.9599,-3.9599,-3.9645,-3.9709,-3.9709,-3.9735,-3.9778,-3.9778,-3.9778,-3.9778,-3.9778,-3.9911,-4.0025,-4.0025,-4.0917,-4.1264,-4.0094,-4.0135,-4.0271,-4.0271,-4.0227,-4.0204,-4.0271,-4.0163,-4.0401,-4.1169,-4.2033,-4.2796,-4.3459,-4.3577,-4.3994,-4.4762,-4.4732,-4.4751,-4.4781,-4.4781,-4.4781,-4.4781,-4.4732,-4.4701,-4.4695,-4.4307,-4.393,-3.7781,-3.7921,-3.8681,-4.0841,-4.0296,-4.0068,0.0,-4.2871,-4.2148,-4.3086,-4.4043,-4.4746,-4.4824,-4.4824,-4.4824,-4.4895,-4.4131,-4.3246,-4.2456,-4.2126,-4.1681,-4.0927,-4.0735,-4.0604,-4.0508,-4.0489,-4.0489,-4.0457,-4.0457,-4.0319,-4.0042,-4.0267,-4.0285,-4.0042,-4.0042,-4.0042,-4.0042,-3.9754,-3.9599,-3.9599,-3.9599,-3.9576,-3.9534,-3.9534,-3.9529,-3.9524,-3.9816,-3.9962,-4.0022,-4.0285,-4.0406,-4.0406,-4.0438,-4.0422,-4.0353,-4.012,-3.9859,-3.9645,-3.9943,-3.9859,-3.9645,-3.9962,-3.984,-3.9599,-3.9599,-3.9599,-3.9599,-3.9599,-3.9599,-3.9599,-3.9599,-3.9819,-4.0042,-4.0042,-4.0232,-4.0406,-4.0406,-4.0406,-4.0406,-4.0406,-4.102,-4.1541,-4.1541,-4.2305,-4.2502,-4.1283,-4.201,-4.271,-4.271,-4.2451,-4.2373,-4.2693,-4.217,-4.1968,-4.2366,-4.3426,-4.4093,-4.4189,-4.4628,-4.5065,-4.5457,-4.5201,-4.5182,-4.5495,-4.5495,-4.5495,-4.5495,-4.5201,-4.5045,-4.5029,-4.4676,-4.4325,-3.9238,-3.9531,-3.9957,-4.1517,-4.217,-4.2807,-4.4295,-4.4148,-4.3825,-4.4257,-4.4629,-4.4746,-4.4316,-4.4199,-4.4141,-4.4101,-4.3357,-4.2622,-4.2172,-4.1637,-4.0996,-4.0158,-4.0392,-4.06,-4.0508,-4.0489,-4.0489,-4.0489,-4.0489,-4.0457,-4.0339,-4.0441,-4.0457,-4.0339,-4.0339,-4.0339,-4.0339,-4.0175,-4.0119,-4.0119,-4.0119,-4.0024,-3.9901,-3.9901,-3.9775,-3.9622,-3.9943,-4.0101,-4.012,-4.0389,-4.0489,-4.0489,-4.0489,-4.0489,-4.0489,-4.0372,-4.023,-4.0138,-4.0285,-4.023,-4.0157,-4.0285,-4.023,-4.0119,-4.0119,-4.0119,-4.0119,-4.0119,-4.0501,-4.0864,-4.0864,-4.136,-4.1853,-4.1853,-4.1923,-4.2008,-4.2008,-4.2008,-4.2008,-4.2008,-4.2316,-4.2566,-4.2566,-4.3258,-4.3628,-4.3118,-4.3092,-4.3104,-4.3104,-4.2981,-4.2944,-4.3088,-4.3273,-4.3446,-4.3579,-4.4475,-4.5047,-4.5047,-4.5265,-4.5438,-4.5586,-4.5476,-4.5476,-4.5586,-4.5586,-4.5586,-4.5586,-4.5457,-4.5381,-4.538,-4.505,-4.4801,-3.9546,-3.9988,-4.0431,-4.1527,-4.278,-4.3818,-4.4083,-4.4219,-4.4307,-4.4401,-4.4406,-4.4251,-4.3769,-4.3476,-4.3301,-4.3262,-4.2558,-4.1968,-4.1869,-4.1077,-4.0374,-4.0034,-4.0232,-4.0453,-4.0562,-4.0543,-4.0489,-4.0489,-4.0489,-4.0489,-4.0489,-4.0489,-4.0489,-4.0489,-4.0489,-4.0489,-4.0489,-4.0489,-4.0489,-4.0489,-4.0489,-4.0389,-4.0213,-4.0213,-4.0081,-3.9863,-4.0101,-4.0213,-4.0233,-4.0406,-4.0489,-4.0489,-4.0489,-4.0489,-4.0489,-4.0489,-4.0489,-4.0489,-4.0489,-4.0489,-4.0489,-4.0489,-4.0489,-4.0489,-4.0489,-4.0489,-4.0546,-4.0777,-4.1316,-4.1873,-4.2104,-4.2624,-4.3104,-4.3104,-4.3104,-4.3104,-4.3104,-4.3104,-4.3104,-4.3104,-4.3278,-4.3431,-4.3431,-4.4105,-4.4662,-4.4662,-4.4162,-4.3797,-4.3797,-4.3797,-4.3797,-4.3797,-4.4316,-4.4662,-4.4662,-4.524,-4.5586,-4.5586,-4.5586,-4.5586,-4.5586,-4.5586,-4.5586,-4.5586,-4.5586,-4.5586,-4.5586,-4.5586,-4.5586,-4.5586,-4.5355,-4.524,-3.8296,-3.8681,-3.9719,-4.1393,-4.1854,-4.2124,-4.303,-4.3239,-4.3275,-4.3423,-4.3443,-4.3487,-4.3572,-4.291,-4.2363,-4.2422,-4.1758,-4.123,-4.123,-4.0355,-4.0044,-4.0858,-4.0164,-3.9927,-4.0708,-4.062,-4.0489,-4.0489,-4.0489,-4.0489,-4.0489,-4.0489,-4.0489,-4.0489,-4.0489,-4.0489,-4.0489,-4.0489,-4.0489,-4.0489,-4.0489,-4.0489,-4.0489,-4.0489,-4.0489,-4.0473,-4.0489,-4.0489,-4.0489,-4.0489,-4.0489,-4.0489,-4.0489,-4.0489,-4.0489,-4.0489,-4.0489,-4.0489,-4.0489,-4.0489,-4.0489,-4.0489,-4.0489,-4.0489,-4.0489,-4.0489,-4.0681,-4.1527,-4.1777,-4.1989,-4.2835,-4.3085,-4.3104,-4.3104,-4.3104,-4.3104,-4.3104,-4.3104,-4.3104,-4.3104,-4.372,-4.4259,-4.4259,-4.497,-4.5547,-4.5547,-4.5528,-4.5509,-4.5509,-4.5509,-4.5509,-4.5509,-4.5547,-4.5547,-4.5547,-4.5566,-4.5586,-4.5586,-4.5586,-4.5586,-4.5586,-4.5586,-4.5586,-4.5586,-4.5586,-4.5586,-4.5586,-4.5586,-4.5586,-4.5586,-4.5586,-4.5566,-3.7908,-3.8878,-3.9831,-4.1151,-4.1896,-4.2469,-4.3013,-4.3143,-4.3008,-4.2566,-4.2478,-4.2312,-4.1828,-4.1588,-4.1445,-4.1465,-4.1328,-4.1191,-4.1191,-4.0912,-4.0597,-4.0306,-4.0429,-4.0413,-4.0096,-4.0412,-4.0639,-4.0639,-4.0562,-4.0489,-4.0489,-4.0489,-4.0489,-4.0489,-4.0489,-4.0489,-4.0489,-4.0489,-4.0489,-4.0489,-4.0489,-4.0489,-4.0489,-4.0489,-4.0489,-4.0489,-4.0489,-4.0489,-4.0489,-4.0489,-4.0489,-4.0489,-4.0489,-4.0489,-4.0489,-4.0489,-4.0489,-4.0489,-4.0489,-4.0489,-4.0489,-4.0489,-4.0489,-4.0489,-4.0489,-4.0489,-4.0681,-4.1546,-4.222,-4.2854,-4.3682,-4.4335,-4.4759,-4.4759,-4.4759,-4.4759,-4.4759,-4.4759,-4.4759,-4.4759,-4.497,-4.5163,-4.5163,-4.5413,-4.5586,-4.5586,-4.5586,-4.5586,-4.5586,-4.5586,-4.5586,-4.5586,-4.5586,-4.5586,-4.5586,-4.5586,-4.5586,-4.5586,-4.5586,-4.5586,-4.5586,-4.5586,-4.5586,-4.5586,-4.5586,-4.5586,-4.5586,-4.5586,-4.5586,-4.5586,-4.5586,-4.5586,-3.7845,-3.875,-3.9403,-4.0575,-4.1303,-4.1781,-4.2093,-4.2162,-4.2047,-4.1566,-4.1239,-4.0873,-4.0389,-4.0413,-4.0501,-4.0503,-4.0851,-4.1124,-4.1132,-4.0859,-4.0703,-4.0781,-4.0955,-4.1091,-4.1131,-4.149,-4.1589,-4.1178,-4.1081,-4.1024,-4.0969,-4.0662,-4.0489,-4.0489,-4.0489,-4.0489,-4.0489,-4.0489,-4.0489,-4.0489,-4.0489,-4.0489,-4.0489,-4.0489,-4.0489,-4.0489,-4.0489,-4.0489,-4.0489,-4.0489,-4.0489,-4.0489,-4.0489,-4.0489,-4.0489,-4.0489,-4.0489,-4.0489,-4.0489,-4.0489,-4.0489,-4.0489,-4.0489,-4.0489,-4.0489,-4.0719,-4.1143,-4.2027,-4.2874,-4.372,-4.4547,-4.5182,-4.5586,-4.5586,-4.5586,-4.5586,-4.5586,-4.5586,-4.5586,-4.5586,-4.5586,-4.5586,-4.5586,-4.5586,-4.5586,-4.5586,-4.5586,-4.5586,-4.5586,-4.5586,-4.5586,-4.5586,-4.5586,-4.5586,-4.5586,-4.5586,-4.5586,-4.5586,-4.5586,-4.5586,-4.5586,-4.5586,-4.5586,-4.5586,-4.5586,-4.5586,-4.5586,-4.5586,-4.5586,-4.5586,-4.5586,-4.5586,-3.7909,-3.8173,-3.8486,-3.9659,-3.9928,-4.0024,-4.0312,-4.0415,-4.0431,-4.0396,-3.9815,-3.933,-3.9369,-3.9546,-3.9667,-3.9721,-4.0474,-4.1059,-4.1062,-4.0312,-4.043,-4.2187,-4.1738,-4.1894,-4.3535,-4.368,-4.3248,-4.2217,0.0,-4.1944,-4.1816,-4.0969,-4.0508,-4.0489,-4.0489,-4.0489,-4.0489,-4.0489,-4.0489,-4.0489,-4.0489,-4.0489,-4.0489,-4.0489,-4.0489,-4.0489,-4.0489,-4.0489,-4.0489,-4.0489,-4.0489,-4.0489,-4.0489,-4.0489,-4.0489,-4.0489,-4.0489,-4.0489,-4.0489,-4.0489,-4.0489,-4.0489,-4.0527,-4.0566,-4.0566,-4.1181,-4.2047,-4.2912,-4.3701,-4.4489,-4.5355,-4.5586,-4.5586,-4.5586,-4.5586,-4.5586,-4.5586,-4.5586,-4.5586,-4.5586,-4.5586,-4.5586,-4.5586,-4.5586,-4.5586,-4.5586,-4.5586,-4.5586,-4.5586,-4.5586,-4.5586,-4.5586,-4.5586,-4.5586,-4.5586,-4.5586,-4.5586,-4.5586,-4.5586,-4.5586,-4.5586,-4.5586,-4.5586,-4.5586,-4.5586,-4.5586,-4.5586,-4.5586,-4.5586,-4.5586,-4.5586,-4.5586,-3.5621,-3.6324,-3.6949,-3.7454,-3.7563,-3.7807,-3.8717,-3.9147,-3.9294,-3.9239,-3.9262,-3.9296,-3.933,-3.9912,-4.064,-4.1352,-4.1659,-4.188,-4.2032,-4.1247,-4.1094,-4.2266,-4.2226,-4.2519,-4.3594,-4.4273,-4.4496,-4.4103,-4.2831,-4.2027,-4.1944,-4.112,-4.06,-4.0489,-4.0489,-4.0489,-4.0489,-4.0489,-4.0489,-4.0489,-4.0489,-4.0489,-4.0489,-4.0489,-4.0489,-4.0489,-4.0489,-4.0489,-4.0489,-4.0489,-4.0489,-4.0489,-4.0489,-4.0489,-4.0489,-4.0489,-4.0489,-4.0489,-4.0489,-4.0489,-4.0489,-4.0489,-4.0931,-4.147,-4.147,-4.2085,-4.2931,-4.3758,-4.4143,-4.4489,-4.5355,-4.5586,-4.5586,-4.5586,-4.5586,-4.5586,-4.5586,-4.5586,-4.5586,-4.5586,-4.5586,-4.5586,-4.5586,-4.5586,-4.5586,-4.5586,-4.5586,-4.5586,-4.5586,-4.5586,-4.5586,-4.5586,-4.5586,-4.5586,-4.5586,-4.5586,-4.5586,-4.5586,-4.5586,-4.5586,-4.5586,-4.5586,-4.5586,-4.5586,-4.5586,-4.5586,-4.5586,-4.5586,-4.5586,-4.5586,-4.5586,-4.5586,-3.5349,-3.5936,-3.6352,-3.6619,-3.6702,-3.6937,-3.7821,-3.8194,-3.8344,-3.8433,-3.8604,-3.8604,-3.8238,-3.9546,-4.0733,-4.0851,-4.1826,-4.2637,-4.2803,-4.2399,-4.2288,-4.289,-4.2969,-4.3301,-4.4199,-4.4707,-4.5137,-4.5449,-4.3785,-4.2713,-4.2608,-4.1384,-4.0677,-4.06,-4.0543,-4.0489,-4.0489,-4.0489,-4.0489,-4.0489,-4.0489,-4.0489,-4.0489,-4.0489,-4.0489,-4.0489,0.0,-4.0489,-4.0489,-4.0489,-4.0489,-4.0489,-4.0489,-4.0489,-4.0489,-4.0489,-4.0489,-4.0489,-4.0489,-4.0739,-4.1066,-4.1066,-4.1662,-4.2374,-4.2374,-4.297,-4.372,-4.4162,-4.4586,-4.497,-4.547,-4.5586,-4.5586,-4.5586,-4.5586,-4.5586,-4.5586,-4.5586,-4.5586,-4.5586,-4.5586,-4.5586,-4.5586,-4.5586,-4.5586,-4.5586,-4.5586,-4.5586,-4.5586,-4.5586,-4.5586,-4.5586,-4.5586,-4.5586,-4.5586,-4.5586,-4.5586,-4.5586,-4.5586,-4.5586,-4.5586,-4.5586,-4.5586,-4.5586,-4.5586,-4.5586,-4.5586,-4.5586,-4.5586,-4.5586,-4.5586,-4.5586,-3.5752,-3.5973,-3.6021,-3.6252,-3.631,-3.6502,-3.7165,-3.7356,-3.7467,-3.7855,-3.7973,-3.7796,-3.7161,-3.9027,-4.0504,-3.9912,-4.172,-4.3294,-4.3535,-4.3466,-4.3512,-4.3808,-4.3867,-4.418,-4.4922,-4.5,-4.5273,-4.5918,-4.4393,-4.343,-4.3408,-4.1686,-4.0703,-4.0677,-4.0562,-4.0489,-4.0489,-4.0489,-4.0489,-4.0489,-4.0489,-4.0489,-4.0489,-4.0489,-4.0489,-4.0489,-4.0489,0.0,-4.0489,-4.0489,-4.0489,-4.0489,-4.0489,-4.0489,-4.0489,-4.0489,-4.0566,-4.0662,-4.0662,-4.1316,-4.2104,-4.1873,-4.247,-4.3258,-4.3258,-4.3835,-4.447,-4.447,-4.5009,-4.5586,-4.5586,-4.5586,-4.5586,-4.5586,-4.5586,-4.5586,-4.5586,-4.5586,-4.5586,-4.5586,-4.5586,-4.5586,-4.5586,-4.5586,-4.5586,-4.5586,-4.5586,-4.5586,-4.5586,-4.5586,-4.5586,-4.5586,-4.5586,-4.5586,-4.5586,-4.5586,-4.5586,-4.5586,-4.5586,-4.5586,-4.5586,-4.5586,-4.5586,-4.5586,-4.5586,-4.5586,-4.5586,-4.5586,-4.5586,-4.5586,-4.5586,-4.5586,-3.4192,-3.4229,-3.4256,-3.4291,-3.43,-3.457,-3.5637,-3.6045,-3.6443,-3.7393,-3.7808,-3.8161,-3.8738,-3.9758,-4.0969,-4.2299,-4.2874,-4.3451,-4.4355,-4.385,-4.3707,-4.4511,-4.4707,-4.4824,-4.498,-4.5,-4.4766,-4.4199,-4.3181,-4.2831,-4.3366,-4.174,-4.0718,-4.0543,-4.0508,-4.0489,-4.0489,-4.0489,-4.0489,-4.0489,-4.0489,-4.0489,-4.0489,-4.0489,-4.0489,-4.0489,-4.0489,0.0,-4.0489,-4.0489,-4.0489,-4.0489,-4.0489,-4.0489,-4.0489,-4.0489,-4.095,-4.1566,-4.1566,-4.2585,-4.3643,-4.2258,-4.2835,-4.4085,-4.4085,-4.4682,-4.5355,-4.5355,-4.547,-4.5586,-4.5586,-4.5586,-4.5586,-4.5586,-4.5586,-4.5586,-4.5586,-4.5586,-4.5586,-4.5586,-4.5586,-4.5586,-4.5586,-4.5586,-4.5586,-4.5586,-4.5586,-4.5586,-4.5586,-4.5586,-4.5586,-4.5586,-4.5586,-4.5586,-4.5586,-4.5586,-4.5586,-4.5586,-4.5586,-4.5586,-4.5586,-4.5586,-4.5586,-4.5586,-4.5586,-4.5586,-4.5586,-4.5586,-4.5586,-4.5586,-4.5586,-4.5586,-3.3807,-3.3807,-3.3807,-3.3807,-3.3807,-3.4013,-3.4899,-3.5195,-3.5494,-3.6296,-3.6915,-3.7315,-3.7315,-3.8719,-4.0162,-4.1027,-4.1873,-4.297,-4.4491,-4.4341,-4.4268,-4.4841,-4.4961,-4.4824,-4.4375,-4.4316,-4.4141,-4.373,-4.289,-4.2538,-4.2811,-4.1497,-4.0668,-4.0504,-4.0489,-4.0489,-4.0489,-4.0489,-4.0489,-4.0489,-4.0489,-4.0489,-4.0489,-4.0489,-4.0489,-4.0489,-4.0489,0.0,-4.0489,-4.0489,-4.0489,-4.0489,-4.0489,-4.0489,-4.0546,-4.1008,-4.145,-4.1873,-4.2316,-4.3278,-4.4162,-4.3355,-4.3951,-4.497,-4.497,-4.5259,-4.5586,-4.5586,-4.5586,-4.5586,-4.5586,-4.5586,-4.5586,-4.5586,-4.5586,-4.5586,-4.5586,-4.5586,-4.5586,-4.5586,-4.5586,-4.5586,-4.5586,-4.5586,-4.5586,-4.5586,-4.5586,-4.5586,-4.5586,-4.5586,-4.5586,-4.5586,-4.5586,-4.5586,-4.5586,-4.5586,-4.5586,-4.5586,-4.5586,-4.5586,-4.5586,-4.5586,-4.5586,-4.5586,-4.5586,-4.5586,-4.5586,-4.5586,-4.5586,-4.5586,-4.5586,-4.5586,-3.3807,-3.3807,-3.3807,-3.3807,-3.3842,-3.4037,-3.4591,-3.4734,-3.4964,-3.5628,-3.6257,-3.6565,-3.6122,-3.7661,-3.9142,-3.9488,-4.0816,-4.247,-4.4376,-4.4826,-4.5034,-4.5202,-4.5268,-4.4941,-4.4062,-4.3984,-4.3826,-4.3453,-4.2565,-4.2034,-4.199,-4.1155,-4.062,-4.0489,-4.0489,-4.0489,-4.0489,-4.0489,-4.0489,-4.0489,-4.0489,-4.0489,-4.0489,-4.0489,-4.0489,-4.0489,-4.0489,0.0,0.0,-4.0489,-4.0489,-4.0489,-4.0489,-4.0489,-4.0604,-4.1489,-4.1931,-4.22,-4.3066,-4.3893,-4.4586,-4.4586,-4.5028,-4.5586,-4.5586,-4.5586,-4.5586,-4.5586,-4.5586,-4.5586,-4.5586,-4.5586,-4.5586,-4.5586,-4.5586,-4.5586,-4.5586,-4.5586,-4.5586,-4.5586,-4.5586,-4.5586,-4.5586,-4.5586,-4.5586,-4.5586,-4.5586,-4.5586,-4.5586,-4.5586,-4.5586,-4.5586,-4.5586,-4.5586,-4.5586,-4.5586,-4.5586,-4.5586,-4.5586,-4.5586,-4.5586,-4.5586,-4.5586,-4.5586,-4.5586,-4.5586,-4.5586,-4.5586,-4.5586,-4.5586,-4.5586,-4.5586,-3.3807,-3.3807,-3.3807,-3.3807,-3.3986,-3.4265,-3.4632,-3.4889,-3.5348,-3.6387,-3.6661,-3.693,-3.7642,-3.7969,-3.8623,-4.0142,-4.1181,-4.2431,-4.4256,-4.526,-4.5828,-4.5982,-4.6118,-4.584,-4.4961,-4.4883,-4.422,-4.2653,-4.1538,-4.0927,-4.0939,-4.0677,-4.0508,-4.0489,-4.0489,-4.0489,-4.0489,-4.0489,-4.0489,-4.0489,-4.0489,-4.0489,-4.0489,-4.0489,-4.0489,-4.0489,-4.0489,0.0,0.0,-4.0489,-4.0489,-4.0489,-4.0489,-4.0489,-4.0604,-4.1489,-4.2297,-4.3104,-4.3912,-4.4759,-4.547,-4.547,-4.5528,-4.5586,-4.5586,-4.5586,-4.5586,-4.5586,-4.5586,-4.5586,-4.5586,-4.5586,-4.5586,-4.5586,-4.5586,-4.5586,-4.5586,-4.5586,-4.5586,-4.5586,-4.5586,-4.5586,-4.5586,-4.5586,-4.5586,-4.5586,-4.5586,-4.5586,-4.5586,-4.5586,-4.5586,-4.5586,-4.5586,-4.5586,-4.5586,-4.5586,-4.5586,-4.5586,-4.5586,-4.5586,-4.5586,-4.5586,-4.5586,-4.5586,-4.5586,-4.5586,-4.5586,-4.5586,-4.5586,-4.5586,-4.5586,-4.5586,-3.3935,-3.4297,-3.4803,-3.4809,-3.4661,-3.4724,-3.5477,-3.5359,-3.5286,-3.5869,-3.5988,-3.6084,-3.643,-3.6507,-3.7046,-3.8719,-3.935,-4.0431,-4.2739,-4.3892,-4.4758,-4.5363,-4.5958,-4.5957,-4.5078,-4.5006,-4.4264,-4.2468,-4.1343,-4.0739,-4.0735,-4.06,-4.0489,-4.0489,-4.0489,-4.0489,-4.0489,-4.0489,-4.0489,-4.0489,-4.0489,-4.0489,-4.0489,-4.0489,-4.0489,-4.0489,-4.0489,0.0,0.0,-4.0489,-4.0489,-4.0489,-4.0489,-4.0489,-4.0662,-4.2066,-4.2797,-4.3297,-4.4624,-4.5297,-4.5586,-4.5586,-4.5586,-4.5586,-4.5586,-4.5586,-4.5586,-4.5586,-4.5586,-4.5586,-4.5586,-4.5586,-4.5586,-4.5586,-4.5586,-4.5605,-4.5699,-4.5643,-4.5605,-4.5699,-4.5643,-4.5624,-4.5719,-4.5719,-4.5719,-4.5719,-4.5719,-4.5699,-4.5605,-4.5586,-4.5586,-4.5586,-4.5586,-4.5586,-4.5586,-4.5586,-4.5586,-4.5586,-4.5586,-4.5586,-4.5586,-4.5586,-4.5586,-4.5586,-4.5586,-4.5586,-4.5586,-4.5586,-4.5586,-4.5586,-4.5586,-4.5586,-3.4537,-3.5107,-3.5888,-3.597,-3.5574,-3.5382,-3.6118,-3.5747,-3.5273,-3.546,-3.5493,-3.5493,-3.5493,-3.5738,-3.6372,-3.7815,-3.8575,-3.9807,-4.2217,-4.3349,-4.4304,-4.5269,-4.5937,-4.6051,-4.5436,-4.4893,-4.401,-4.2672,-4.1424,-4.0677,-4.0639,-4.0562,-4.0489,-4.0489,-4.0489,-4.0489,-4.0489,-4.0489,-4.0489,-4.0489,-4.0489,-4.0489,-4.0489,-4.0489,-4.0489,-4.0489,-4.0489,0.0,0.0,-4.0489,-4.0489,-4.0489,-4.0489,-4.0489,-4.07,-4.245,-4.3104,-4.3335,-4.5009,-4.5624,-4.5643,-4.5643,-4.568,-4.5699,-4.5699,-4.568,-4.5643,-4.5643,-4.5643,-4.5643,-4.568,-4.5699,-4.5699,-4.5699,-4.5699,-4.5719,-4.5815,-4.5761,-4.5731,-4.5813,-4.5757,-4.5719,-4.5815,-4.5819,-4.5819,-4.5819,-4.5841,-4.5796,-4.568,-4.5643,-4.5624,-4.5586,-4.5624,-4.5624,-4.5586,-4.5586,-4.5586,-4.5586,-4.5586,-4.5586,-4.5586,-4.5586,-4.5586,-4.5586,-4.5586,-4.5586,-4.5586,-4.5853,-4.5988,-4.5988,-4.5988,-4.5853,-3.58,-3.6269,-3.6758,-3.7087,-3.673,-3.6287,-3.6304,-3.5879,-3.5493,-3.5493,-3.5493,-3.5493,-3.5493,-3.6252,-3.717,-3.8055,-3.9644,-4.1431,-4.3316,-4.4273,-4.5163,-4.6168,-4.6289,-4.6299,-4.6282,-4.4669,-4.3497,-4.3217,-4.1639,0.0,-4.0508,-4.0489,-4.0489,-4.0489,-4.0489,-4.0489,-4.0489,-4.0489,-4.0489,-4.0489,-4.0489,-4.0489,-4.0489,-4.0489,-4.0489,0.0,0.0,0.0,0.0,-4.0489,-4.0489,-4.0489,-4.0489,-4.0489,-4.07,-4.245,-4.3104,-4.3335,-4.5009,-4.5699,-4.5796,-4.5796,-4.5834,-4.5911,-4.5911,-4.5853,-4.5796,-4.5796,-4.5796,-4.5815,-4.5873,-4.5911,-4.5911,-4.5911,-4.5911,-4.5911,-4.5911,-4.5906,-4.5899,-4.5899,-4.5911,-4.5911,-4.5911,-4.5899,-4.5899,-4.5899,-4.5891,-4.5873,-4.5815,-4.5796,-4.5757,-4.5605,-4.5719,-4.5738,-4.5605,-4.5586,-4.5586,-4.5586,-4.5586,-4.5586,-4.5586,-4.5586,-4.5586,-4.5586,-4.5586,-4.5586,-4.5586,-4.6467,-4.6889,-4.6889,-4.6889,-4.6429,-3.5202,-3.5737,-3.6442,-3.6559,-3.6165,-3.5887,-3.6458,-3.6022,-3.5493,-3.5493,-3.5493,-3.5526,-3.5565,-3.5815,-3.671,-3.8811,-3.9661,-4.0882,-4.3277,-4.4365,-4.5055,-4.5364,-4.5871,-4.5902,-4.5265,-4.4076,-4.306,-4.2425,-4.1254,-4.0543,-4.0489,-4.0489,-4.0489,-4.0489,-4.0489,-4.0489,-4.0489,-4.0489,-4.0489,-4.0489,-4.0489,-4.0489,-4.0489,-4.0489,-4.0489,0.0,0.0,0.0,0.0,-4.0489,-4.0489,-4.0489,-4.0489,-4.0489,-4.0716,-4.246,-4.3134,-4.341,-4.5141,-4.5796,-4.5866,-4.588,-4.5875,-4.5925,-4.5995,-4.595,-4.5866,-4.588,-4.5868,-4.5875,-4.5894,-4.5894,-4.5894,-4.5894,-4.5894,-4.5932,-4.6018,-4.5958,-4.5924,-4.6014,-4.5957,-4.5938,-4.602,-4.6047,-4.6046,-4.6039,-4.603,-4.6001,-4.5878,-4.5877,-4.5853,-4.5815,-4.5834,-4.5796,-4.5605,-4.568,-4.5699,-4.5605,-4.5586,-4.5586,-4.5586,-4.5586,-4.5586,-4.5586,-4.5586,-4.5586,-4.5586,-4.6467,-4.7181,-4.7722,-4.7719,-4.758,-3.5512,-3.61,-3.6783,-3.6905,-3.6439,-3.6084,-3.6603,-3.6084,-3.5493,-3.5493,-3.5526,-3.5565,-3.5603,-3.6175,-3.7193,-3.8879,-4.0023,-4.1401,-4.3355,-4.4414,-4.5095,-4.5384,-4.5776,-4.5661,-4.4735,-4.3772,-4.2852,-4.1989,-4.1046,-4.0489,-4.0489,-4.0489,-4.0489,-4.0489,-4.0489,-4.0489,-4.0489,-4.0489,-4.0489,-4.0489,-4.0489,-4.0489,-4.0489,-4.0489,-4.0489,0.0,0.0,0.0,0.0,-4.0489,-4.0489,-4.0508,-4.0562,-4.0581,-4.0754,-4.2206,-4.2961,-4.3481,-4.4892,-4.5638,-4.5982,-4.597,-4.6014,-4.6074,-4.615,-4.6084,-4.5988,-4.6047,-4.6011,-4.5994,-4.6034,-4.6045,-4.6045,-4.6045,-4.6045,-4.6079,-4.6153,-4.6107,-4.6089,-4.6151,-4.6114,-4.6073,-4.6173,-4.618,-4.6188,-4.6189,-4.6172,-4.6129,-4.5997,-4.5985,-4.597,-4.5907,-4.595,-4.5911,-4.5738,-4.5796,-4.5796,-4.5719,-4.5699,-4.568,-4.568,-4.5624,-4.5586,-4.5586,-4.5586,-4.5586,-4.5586,-4.6471,-4.7165,-4.7645,-4.7952,-4.7931,0.0,-3.6971,-3.7445,-3.7751,-3.7219,-3.6622,-3.6622,-3.6045,0.0,-3.5526,-3.5565,-3.5641,-3.5776,-3.7184,-3.8414,-3.864,-4.0778,-4.2734,-4.3669,-4.454,-4.5318,-4.6002,-4.5908,-4.5432,-4.4474,-4.3618,-4.2714,-4.1773,-4.0957,-4.0489,-4.0489,-4.0489,-4.0489,-4.0489,-4.0489,-4.0489,-4.0489,-4.0489,-4.0489,-4.0489,-4.0489,-4.0489,-4.0489,-4.0489,-4.0489,0.0,0.0,0.0,0.0,-4.0508,-4.0508,-4.0543,-4.0658,-4.0708,-4.081,-4.1763,-4.2656,-4.3532,-4.4414,-4.5309,-4.6108,-4.6108,-4.6205,-4.6301,-4.6301,-4.6219,-4.6133,-4.6269,-4.6205,-4.6137,-4.627,-4.6308,-4.6308,-4.6308,-4.6308,-4.6308,-4.6308,-4.6308,-4.6308,-4.6308,-4.6308,-4.6308,-4.6308,-4.6308,-4.6308,-4.6308,-4.6308,-4.6269,-4.6133,-4.6113,-4.6074,-4.5954,-4.6042,-4.6061,-4.5938,-4.5918,-4.5899,-4.5899,-4.5841,-4.5825,-4.5815,-4.568,-4.5605,-4.5605,-4.5586,-4.5624,-4.5699,-4.6512,-4.6935,-4.7012,-4.7818,-4.7799,-3.5545,0.0,-3.5993,-3.607,-3.593,-3.5795,0.0,-3.5641,-3.5526,-3.5584,-3.5603,-3.604,-3.7486,-3.7602,-3.8357,-4.1027,-4.1987,-4.2946,-4.4478,-4.536,-4.5845,-4.5873,-4.524,-4.4455,-4.3534,-4.2633,-4.1767,-4.0877,-4.0623,-4.0489,-4.0489,-4.0489,-4.0489,-4.0489,-4.0489,-4.0489,-4.0489,-4.0489,-4.0489,-4.0489,-4.0489,-4.0489,-4.0489,-4.0489,-4.0489,0.0,0.0,0.0,-4.0658,-4.0658,-4.0677,-4.0735,-4.0754,-4.0779,-4.0881,-4.177,-4.2726,-4.3661,-4.4484,-4.5428,-4.6249,-4.6249,-4.6269,-4.6308,-4.6308,-4.6278,-4.6269,-4.6289,-4.628,-4.6261,-4.6288,-4.6308,-4.6308,-4.6308,-4.6308,-4.6308,-4.6308,-4.6308,-4.6308,-4.6308,-4.6308,-4.6308,-4.6308,-4.6308,-4.6308,-4.6308,-4.6308,-4.6289,-4.6269,-4.625,-4.6247,-4.6218,-4.6228,-4.6253,-4.6216,-4.6113,-4.6015,-4.5917,-4.5898,-4.5885,-4.5888,-4.5796,-4.5757,-4.5757,-4.5643,-4.593,-4.6583,-4.6796,-4.7219,-4.7834,-4.8699,-4.8989,-3.4776,-3.5468,-3.6065,-3.6065,-3.6065,-3.6084,-3.6128,-3.582,-3.5565,-3.5641,-3.6021,-3.6631,-3.766,-3.85,-3.9655,-4.1541,-4.2822,-4.4031,-4.5327,-4.5771,-4.5929,-4.5808,-4.4972,-4.4068,0.0,-4.2319,-4.1437,-4.0566,-4.0489,-4.0489,-4.0489,-4.0489,-4.0489,-4.0489,-4.0489,-4.0489,-4.0489,-4.0489,-4.0489,-4.0489,-4.0489,-4.0489,-4.0489,-4.0562,-4.06,0.0,0.0,0.0,-4.0746,-4.0742,-4.0777,-4.0816,-4.0874,-4.0896,-4.0956,-4.1481,-4.2525,-4.3712,-4.4132,-4.5176,-4.6308,-4.6308,-4.6308,-4.6308,-4.6308,-4.6308,-4.6308,-4.6308,-4.6308,-4.6308,-4.6308,-4.6308,-4.6308,-4.6308,-4.6308,-4.6308,-4.6308,-4.6308,-4.6308,-4.6308,-4.6308,-4.6308,-4.6308,-4.6308,-4.6308,-4.6308,-4.6308,-4.6308,-4.6308,-4.6308,-4.6308,-4.6308,-4.6293,-4.63,-4.6308,-4.623,-4.6152,-4.6094,-4.6035,-4.5997,-4.5998,-4.5907,-4.5834,-4.5796,-4.5738,-4.5892,-4.6313,-4.6313,-4.6525,-4.6985,-4.8234,-4.8815,-3.4334,-3.5718,-3.7007,-3.6622,-3.6622,-3.6724,-3.6704,-3.6144,-3.5669,-3.5886,-3.6612,-3.7359,-3.7885,-3.975,-4.1328,-4.1719,-4.3578,-4.5225,-4.5976,-4.5906,-4.5738,-4.5586,-4.4722,0.0,-4.2977,-4.2094,-4.1309,-4.0562,-4.0489,-4.0489,-4.0489,-4.0489,-4.0489,-4.0489,-4.0489,-4.0489,-4.0489,-4.0489,-4.0489,-4.0489,-4.0489,-4.0508,-4.0543,-4.0658,-4.0699,-4.0713,0.0,0.0,-4.0829,-4.0961,-4.1035,-4.1055,-4.1172,-4.1211,-4.123,-4.1348,-4.2363,-4.373,-4.4004,-4.5058,-4.6308,-4.6308,-4.6308,-4.6308,-4.6308,-4.6308,-4.6308,-4.6308,-4.6308,-4.6308,-4.6308,-4.6308,-4.6308,-4.6308,-4.6308,-4.6308,-4.6308,-4.6308,-4.6308,-4.6308,-4.6308,-4.6308,-4.6308,-4.6308,-4.6308,-4.6308,-4.6308,-4.6308,-4.6308,-4.6308,-4.6308,-4.6308,-4.6308,-4.6308,-4.6308,-4.6308,-4.6308,-4.6308,-4.6191,-4.6113,-4.6094,-4.5988,-4.5892,-4.5834,-4.5806,-4.5738,-4.5624,-4.5738,-4.5796,-4.5834,-4.7523,-4.8296,-3.4911,-3.7065,-3.8373,-3.6219,-3.6281,-3.6685,-3.5955,-3.5734,-3.5939,-3.6794,-3.7088,-3.8106,-4.1062,-4.1384,-4.1914,-4.4062,-4.4657,-4.5081,-4.5838,-4.5861,-4.547,-4.4626,0.0,-4.2956,-4.2075,-4.1212,-4.0639,-4.0508,-4.0489,-4.0489,-4.0489,-4.0489,-4.0489,-4.0489,-4.0489,-4.0489,-4.0489,-4.0489,-4.0489,-4.0489,-4.0489,-4.0562,-4.0677,-4.0696,-4.0721,-4.0787,0.0,-4.0865,-4.1021,-4.1776,-4.2109,-4.2168,-4.2187,-4.2187,-4.2187,-4.2207,-4.2851,-4.3906,-4.5391,-4.6074,-4.6308,-4.6308,-4.6308,-4.6308,-4.6308,-4.6308,-4.6308,-4.6308,-4.6308,-4.6308,-4.6308,-4.6308,-4.6308,-4.6308,-4.6308,-4.6308,-4.6308,-4.6308,-4.6308,-4.6308,-4.6308,-4.6308,-4.6308,-4.6308,-4.6308,-4.6308,-4.6308,-4.6308,-4.6308,-4.6308,-4.6308,-4.6308,-4.6308,-4.6308,-4.6308,-4.6308,-4.6308,-4.6308,-4.6289,-4.6211,-4.6094,-4.6087,-4.6019,-4.5883,-4.5815,-4.5796,-4.5776,-4.641,-4.6698,-4.6737,-4.8426,-4.92,-3.391,-3.5782,-3.7194,-3.6488,-3.7632,-3.8757,-3.7993,-3.7469,-3.7308,-3.7858,-3.8702,-3.9858,-4.1463,-4.2578,-4.3789,-4.5449,-4.5526,-4.5524,-4.5849,-4.5374,-4.4818,0.0,0.0,-4.2239,-4.1844,-4.1004,-4.0489,-4.0489,0.0,0.0,-3.9858,-4.0258,-4.0296,-3.9858,-4.0277,-4.0543,-4.062,-4.062,-4.062,-4.062,-4.0639,-4.0696,-4.077,-4.083,-4.0886,-4.0918,0.0,-4.1055,-4.1172,-4.2012,-4.2363,-4.2402,-4.2402,-4.2402,-4.2461,-4.293,-4.3652,-4.457,-4.5859,-4.6308,-4.6308,-4.6308,-4.6308,-4.6308,-4.6308,-4.6308,-4.6308,-4.6308,-4.6308,-4.6308,-4.6308,-4.6308,-4.6308,-4.6308,-4.6308,-4.6308,-4.6308,-4.6308,-4.6308,-4.6308,-4.6308,-4.6308,-4.6308,-4.6308,-4.6308,-4.6308,-4.6308,-4.6308,-4.6308,-4.6308,-4.6308,-4.6308,-4.6308,-4.6308,-4.6308,-4.6308,-4.6308,-4.6308,-4.6308,-4.6269,-4.6211,-4.6211,-4.6152,-4.6016,-4.644,-4.6635,-4.6564,-4.7293,-4.7661,-4.7683,-4.8855,-4.9413,-3.3214,-3.4735,-3.6215,-3.7122,-3.8597,-3.9835,-3.9715,-3.9058,-3.8652,-3.9349,-4.0547,-4.1543,-4.1758,-4.3555,-4.5215,-4.5898,-4.5943,-4.5831,-4.5654,-4.4857,-4.4147,-4.3761,-4.2582,-4.1728,-4.152,-4.0889,-4.0412,-4.0239,0.0,0.0,-3.9054,-3.9585,-3.9623,-3.9035,-3.98,-4.0296,-4.0392,-4.0639,-4.0747,-4.0711,-4.0769,-4.0808,-4.0851,-4.0941,-4.1016,-4.1055,-4.1152,-4.1191,-4.1269,-4.207,-4.2519,-4.2676,-4.248,-4.2519,-4.2812,-4.3672,-4.4551,-4.5391,-4.6074,-4.6308,-4.6308,-4.6308,-4.6308,-4.6308,-4.6308,-4.6308,-4.6308,-4.6308,-4.6308,-4.6308,-4.6308,-4.6308,-4.6308,-4.6308,-4.6308,-4.6308,-4.6308,-4.6308,-4.6308,-4.6308,-4.6308,-4.6308,-4.6308,-4.6308,-4.6308,-4.6308,-4.6308,-4.6308,-4.6308,-4.6308,-4.6308,-4.6308,-4.6308,-4.6308,-4.6308,-4.6308,-4.6308,-4.6308,-4.6308,-4.6308,-4.6308,-4.6308,-4.6348,-4.6445,-4.707,-4.7455,-4.7552,-4.8263,-4.8613,-4.8625,-4.9356,-4.9702,-3.3959,-3.5626,-3.713,-3.807,-3.7836,-3.7755,-3.9331,-3.9116,-3.9256,-4.164,-4.2226,-4.2558,-4.3379,-4.4336,-4.5019,-4.5078,-4.5548,-4.5636,-4.4886,0.0,-4.3722,-4.2156,-4.1882,-4.1482,-4.0677,-4.0543,-4.02,0.0,0.0,0.0,-3.8139,-3.8157,-3.8152,-3.8101,-3.8981,-3.9477,-3.9477,-4.0469,-4.0925,-4.0797,-4.0797,-4.0875,-4.0992,-4.0996,-4.1074,-4.1191,-4.1191,-4.1191,-4.1269,-4.207,-4.2871,-4.3535,-4.2715,-4.2891,-4.3711,-4.459,-4.5469,-4.6211,-4.6289,-4.6308,-4.6308,-4.6308,-4.6308,-4.6308,-4.6308,-4.6308,-4.6308,-4.6308,-4.6308,-4.6308,-4.6308,-4.6308,-4.6308,-4.6308,-4.6308,-4.6308,-4.6308,-4.6308,-4.6308,-4.6308,-4.6308,-4.6308,-4.6308,-4.6308,-4.6308,-4.6308,-4.6308,-4.6308,-4.6308,-4.6308,-4.6308,-4.6308,-4.6308,-4.6308,-4.6308,-4.6308,-4.6308,-4.6308,-4.6308,-4.6308,-4.6308,-4.6308,-4.668,-4.748,-4.7422,-4.7792,-4.8591,-4.9216,-4.9508,-4.9509,-5.026,-5.0606,-3.1936,-3.4276,-3.6468,-3.6829,-3.7885,-3.9153,-4.0363,-4.0804,-4.1387,-4.2891,-4.3633,-4.4121,-4.4453,-4.4785,-4.4967,-4.49,-4.5033,-4.5014,-4.463,-4.3534,-4.2516,-4.1867,-4.1328,-4.085,-4.0543,-4.0065,0.0,0.0,0.0,0.0,-3.7238,-3.7704,-3.7781,-3.7334,-3.8671,-3.9461,-3.9588,-4.0528,-4.1016,-4.1055,-4.1055,-4.1074,-4.1113,-4.1113,-4.1152,-4.1191,-4.1191,-4.1191,-4.1269,-4.207,-4.2598,-4.291,-4.3125,-4.3418,-4.3808,-4.4687,-4.5547,-4.6308,-4.6308,-4.6308,-4.6308,-4.6308,-4.6308,-4.6308,-4.6308,-4.6308,-4.6308,-4.6308,-4.6308,-4.6308,-4.6308,-4.6308,-4.6308,-4.6308,-4.6308,-4.6308,-4.6308,-4.6308,-4.6308,-4.6308,-4.6308,-4.6308,-4.6308,-4.6308,-4.6308,-4.6308,-4.6308,-4.6308,-4.6308,-4.6308,-4.6308,-4.6308,-4.6308,-4.6308,-4.6308,-4.6308,-4.6523,-4.707,-4.6601,-4.6308,-4.6308,-4.6816,-4.7266,-4.7598,-4.8613,-4.9297,-4.9629,-5.0234,-5.053,-5.0529,-5.0644,-5.0702,-3.1797,-3.4007,-3.6142,-3.6668,-3.8164,-3.9782,-4.0949,-4.1621,-4.2422,-4.3828,-4.4375,-4.459,-4.459,-4.4355,-4.4146,-4.4037,-4.4169,-4.4156,-4.3763,-4.2614,-4.1694,-4.1408,-4.0639,-4.0123,-4.0123,-3.9362,0.0,0.0,0.0,0.0,0.0,-3.6934,-3.703,-3.6535,-3.7934,-3.8879,-3.9295,-4.02,-4.084,-4.1191,-4.1191,-4.1191,-4.1191,-4.1191,-4.1191,-4.1191,-4.1191,-4.1191,-4.123,-4.1797,-4.2012,-4.2129,-4.3262,-4.3691,-4.3808,-4.4687,-4.5547,-4.6308,-4.6308,-4.6308,-4.6308,-4.6308,-4.6308,-4.6308,-4.6308,-4.6308,-4.6308,-4.6308,-4.6308,-4.6308,-4.6308,-4.6308,-4.6308,-4.6308,-4.6308,-4.6308,-4.6308,-4.6308,-4.6308,-4.6308,-4.6308,-4.6308,-4.6308,-4.6308,-4.6308,-4.6308,-4.6308,-4.6308,-4.6308,-4.6308,-4.6308,-4.6308,-4.6308,-4.6308,-4.6308,-4.6308,-4.668,-4.7539,-4.7031,-4.6836,-4.7109,-4.7695,-4.8144,-4.8418,-4.959,-5.0332,-5.0586,-5.0957,-5.1122,-5.1087,-5.0875,-5.0741,-3.4219,-3.5312,-3.6406,-3.8144,-3.8594,-3.9062,-4.0801,-4.1191,-4.1933,-4.4473,-4.4297,-4.3691,-4.3691,-4.2988,-4.2373,-4.2317,-4.2912,-4.3052,-4.2117,-4.1879,-4.1445,-4.0585,-3.9762,-3.9285,-3.9285,0.0,0.0,0.0,0.0,0.0,0.0,-3.5603,-3.5636,-3.5713,-3.6674,-3.7578,-3.8379,-3.9394,-4.0332,-4.1191,-4.1191,-4.1191,-4.1191,-4.1191,-4.1191,-4.1191,-4.1191,-4.1191,-4.1191,-4.1191,-4.1191,-4.1367,-4.3047,-4.3691,-4.3808,-4.4687,-4.5547,-4.6308,-4.6308,-4.6308,-4.6308,-4.6308,-4.6308,-4.6308,-4.6308,-4.6308,-4.6308,-4.6308,-4.6308,-4.6308,-4.6308,-4.6308,-4.6308,-4.6308,-4.6308,-4.6308,-4.6308,-4.6308,-4.6308,-4.6308,-4.6308,-4.6308,-4.6308,-4.6308,-4.6308,-4.6308,-4.6308,-4.6308,-4.6308,-4.6308,-4.6308,-4.6308,-4.6308,-4.6308,-4.6308,-4.6308,-4.668,-4.7539,-4.7617,-4.8008,-4.8867,-4.8906,-4.9316,-5.0176,-5.0215,-5.0605,-5.1406,-5.1269,-5.1161,-5.1106,-5.0952,-5.0837,-3.2051,-3.3965,-3.6113,-3.6641,-3.8613,-4.0391,-4.0312,-4.1191,-4.2422,-4.3808,-4.3398,-4.2793,-4.2793,-4.2578,-4.238,-4.2303,-4.2388,-4.2162,-4.1215,-4.0482,-3.973,-3.8846,-3.8577,-3.8458,0.0,0.0,0.0,0.0,0.0,0.0,0.0,-3.5667,-3.5713,-3.5849,-3.6713,-3.7344,-3.7617,-3.8535,-3.9414,-4.0293,-4.0293,-4.0605,-4.1191,-4.1191,-4.1191,-4.1191,-4.1191,-4.1191,-4.1191,-4.1191,-4.1191,-4.1308,-4.2363,-4.3164,-4.3808,-4.4687,-4.5547,-4.6308,-4.6308,-4.6308,-4.6308,-4.6308,-4.6308,-4.6308,-4.6308,-4.6308,-4.6308,-4.6308,-4.6308,-4.6308,-4.6308,-4.6308,-4.6308,-4.6308,-4.6308,-4.6308,-4.6308,-4.6308,-4.6308,-4.6308,-4.6308,-4.6308,-4.6308,-4.6308,-4.6308,-4.6308,-4.6308,-4.6308,-4.6308,-4.6308,-4.6308,-4.6308,-4.6308,-4.6308,-4.6308,-4.6308,-4.668,-4.7539,-4.8183,-4.8633,-4.8887,-4.9492,-4.9941,-5.0195,-5.0762,-5.1152,-5.1406,-5.1211,-5.1125,-5.1096,-5.0879,-5.0741,-3.3301,-3.5195,-3.7207,-3.7891,-3.9394,-4.0644,-4.0469,-4.1445,-4.2558,-4.3086,-4.2773,-4.2402,-4.2402,-4.1855,0.0,-4.1289,-4.0905,-4.0427,-3.9826,-3.925,-3.8715,-3.8166,-3.7858,-3.7656,0.0,0.0,0.0,0.0,0.0,0.0,0.0,-3.5773,-3.582,-3.5937,-3.6445,-3.6914,-3.7305,-3.7812,-3.8516,-3.9375,-3.9375,-3.9844,-4.0703,-4.1035,-4.1191,-4.1191,-4.1191,-4.1191,-4.1191,-4.1191,-4.1191,-4.125,-4.1738,-4.2441,-4.3281,-4.416,-4.5039,-4.582,-4.6172,-4.6308,-4.6308,-4.6308,-4.6308,-4.6308,-4.6308,-4.6308,-4.6308,-4.6308,-4.6308,-4.6308,-4.6308,-4.6308,-4.6308,-4.6308,-4.6308,-4.6308,-4.6308,-4.6308,-4.6308,-4.6308,-4.6308,-4.6308,-4.6308,-4.6308,-4.6308,-4.6308,-4.6308,-4.6308,-4.6308,-4.6308,-4.6308,-4.6308,-4.6308,-4.6308,-4.6308,-4.6308,-4.668,-4.7539,-4.8086,-4.8535,-4.8887,-5.0039,-5.0683,-5.0683,-5.1152,-5.1406,-5.1406,-5.1211,-5.1137,-5.1086,-5.0871,-5.0741,-3.6504,-3.7754,-3.8809,-4.0625,-4.0488,-4.0117,-4.0898,-4.1582,-4.207,-4.2168,-4.2109,-4.2051,-4.2051,-4.0801,-3.9746,-3.9629,-3.8926,-3.8349,-3.8222,-3.8199,-3.815,-3.808,-3.7372,-3.691,0.0,0.0,0.0,0.0,0.0,0.0,0.0,-3.5918,-3.5937,-3.5996,-3.5996,-3.6387,-3.7168,-3.7187,-3.7617,-3.8476,-3.8476,-3.8945,-3.9805,-4.0684,-4.1113,-4.1191,-4.1191,-4.1191,-4.1191,-4.1191,-4.1191,-4.1191,-4.1191,-4.1699,-4.25,-4.3281,-4.4121,-4.5019,-4.5879,-4.6172,-4.6191,-4.6269,-4.6308,-4.6308,-4.6308,-4.6308,-4.6308,-4.6308,-4.6308,-4.6308,-4.6308,-4.6308,-4.6308,-4.6308,-4.6308,-4.6308,-4.6308,-4.6308,-4.6308,-4.6308,-4.6308,-4.6308,-4.6308,-4.6308,-4.6308,-4.6308,-4.6308,-4.6308,-4.6308,-4.6308,-4.6308,-4.6308,-4.6308,-4.6308,-4.6308,-4.6308,-4.6641,-4.7422,-4.7558,-4.7969,-4.875,-5.0312,-5.1211,-5.1289,-5.1289,-5.1328,-5.1406,-5.1269,-5.1161,-5.1106,-5.0952,-5.0837,-3.5937,-3.6426,-3.7148,-3.957,-4.0039,-3.9941,-4.0137,-3.9785,-3.9609,-4.0293,-3.9883,-3.9414,-3.9414,-3.9121,-3.8867,-3.8848,-3.8594,-3.8163,-3.7533,-3.7346,-3.703,-3.6341,-3.6186,0.0,0.0,0.0,0.0,0.0,0.0,0.0,-3.5976,-3.5976,-3.5996,-3.5996,-3.5996,-3.6094,-3.6289,-3.6289,-3.6719,0.0,-3.7578,-3.8047,-3.8906,-3.9785,-4.0547,-4.1191,-4.1191,-4.1191,-4.1191,-4.1191,-4.1191,-4.1191,-4.1191,-4.1699,-4.2422,-4.2617,-4.3223,-4.4101,-4.498,-4.5273,-4.5391,-4.6074,-4.6308,-4.6308,-4.6308,-4.6308,-4.6308,-4.6308,-4.6308,-4.6308,-4.6308,-4.6308,-4.6308,-4.6308,-4.6308,-4.6308,-4.6308,-4.6308,-4.6308,-4.6308,-4.6308,-4.6308,-4.6308,-4.6308,-4.6308,-4.6308,-4.6308,-4.6308,-4.6308,-4.6308,-4.6308,-4.6308,-4.6308,-4.6308,-4.6308,-4.6308,-4.6387,-4.6562,-4.7226,-4.7676,-4.7871,-4.8887,-4.9766,-5.0449,-5.0469,-5.0762,-5.1406,-5.1211,-5.1122,-5.1087,-5.0856,-5.0721,-3.5644,-3.6601,-3.7676,-3.9453,-3.9902,-3.9785,-3.9375,-3.8594,-3.8105,-3.8555,-3.8633,-3.8594,-3.8594,-3.8262,-3.7988,-3.7988,-3.7578,-3.7109,-3.668,-3.6577,-3.6359,-3.5897,-3.5918,0.0,0.0,0.0,0.0,0.0,0.0,-3.5996,-3.5996,-3.5996,-3.5996,-3.5996,-3.5996,-3.5996,-3.5996,-3.5996,-3.623,-3.668,-3.6641,-3.7051,-3.7871,-3.9277,-4.0371,-4.1191,-4.1191,-4.1191,-4.1191,-4.1191,-4.1191,-4.1191,-4.1191,-4.1465,-4.1875,-4.2266,-4.2695,-4.3262,-4.4551,-4.5,-4.5137,-4.6016,-4.6308,-4.6308,-4.6308,-4.6308,-4.6308,-4.6308,-4.6308,-4.6308,-4.6308,-4.6308,-4.6308,-4.6308,-4.6308,-4.6308,-4.6308,-4.6308,-4.6308,-4.6308,-4.6308,-4.6308,-4.6308,-4.6308,-4.6308,-4.6308,-4.6308,-4.6308,-4.6308,-4.6308,-4.6308,-4.6308,-4.6308,-4.6308,-4.6308,-4.6308,-4.6308,-4.6308,-4.6738,-4.6973,-4.6973,-4.7402,-4.8262,-4.9551,-4.998,-5.041,-5.082,-5.1016,-5.1103,-5.1087,-5.0837,-5.0702,-3.5312,-3.7168,-3.8769,-3.9492,-3.9687,-3.9453,-3.8574,-3.7695,-3.707,-3.707,-3.7656,-3.8144,-3.8144,-3.7559,-3.707,-3.707,-3.6465,-3.5996,-3.5996,-3.5996,-3.5996,-3.5996,-3.5996,0.0,0.0,0.0,0.0,0.0,0.0,-3.5996,-3.5996,-3.5996,-3.5996,-3.5996,-3.5996,-3.5996,-3.5976,-3.5976,-3.5976,-3.5957,-3.5891,-3.6253,-3.7055,-3.8676,-3.9955,-4.0937,-4.1074,-4.1133,-4.1133,-4.1152,-4.1172,-4.1172,-4.1191,-4.1191,-4.1289,-4.1953,-4.2187,-4.2422,-4.4004,-4.4648,-4.4922,-4.5781,-4.6172,-4.6308,-4.6308,-4.6308,-4.6308,-4.6308,-4.6308,-4.6308,-4.6308,-4.6308,-4.6308,-4.6308,-4.6308,-4.6308,-4.6308,-4.6308,-4.6308,-4.6308,-4.6308,-4.6308,-4.6308,-4.6308,-4.6308,-4.6308,-4.6308,-4.6308,-4.6308,-4.6308,-4.6308,-4.6308,-4.6308,-4.6308,-4.6308,-4.6308,-4.6308,-4.6308,-4.6308,-4.6308,-4.6308,-4.6308,-4.6973,-4.8418,-4.9316,-4.9902,-5.0195,-5.0644,-5.094,-5.1087,-5.0837,-5.0702,-3.4414,-3.6699,-3.8633,-3.873,-3.8769,-3.8555,-3.7676,-3.6797,-3.6172,-3.6172,-3.6269,-3.6348,-3.6348,-3.625,-3.6172,-3.6172,-3.6074,-3.5996,-3.5996,-3.5996,-3.5996,-3.5996,0.0,0.0,0.0,0.0,0.0,0.0,-3.5996,-3.5996,-3.5996,-3.5996,-3.5996,-3.5996,-3.5996,-3.5976,-3.5918,-3.5918,-3.5859,-3.5742,-3.5729,-3.6168,-3.7003,-3.7274,-3.8264,-3.9844,-4.0547,-4.0859,-4.0859,-4.0976,-4.1035,-4.1035,-4.1152,-4.1191,-4.1211,-4.1328,-4.1367,-4.1484,-4.2422,-4.3242,-4.4023,-4.4883,-4.5683,-4.6308,-4.6308,-4.6308,-4.6308,-4.6308,-4.6308,-4.6308,-4.6308,-4.6308,-4.6308,-4.6308,-4.6308,-4.6308,-4.6308,-4.6308,-4.6308,-4.6308,-4.6308,-4.6308,-4.6308,-4.6308,-4.6308,-4.6308,-4.6308,-4.6308,-4.6308,-4.6308,-4.6308,-4.6308,-4.6308,-4.6308,-4.6308,-4.6308,-4.6308,-4.6308,-4.6308,-4.6308,-4.6308,-4.6308,-4.6406,-4.6641,-4.75,-4.8691,-5.0195,-5.0058,-5.0355,-5.1087,-5.0837,-5.0702,-3.4707,-3.6269,-3.7383,-3.8359,-3.8223,-3.7773,-3.7383,-3.6621,-3.5996,-3.5996,-3.5996,-3.5996,-3.5996,-3.5996,-3.5996,-3.5996,-3.5996,-3.5996,-3.5996,-3.5996,-3.5996,-3.5996,0.0,0.0,0.0,0.0,0.0,0.0,-3.5996,-3.5996,-3.5996,-3.5996,-3.5996,-3.5996,-3.5957,-3.594,-3.59,-3.5823,-3.5745,-3.564,-3.5647,-3.5834,-3.6175,-3.6631,-3.7827,-3.9624,-3.9982,-4.0371,-4.0799,-4.0943,-4.1003,-4.1016,-4.1152,-4.1191,-4.1191,-4.1191,-4.1191,-4.1328,-4.2129,-4.2969,-4.3848,-4.4726,-4.5586,-4.6308,-4.6308,-4.6308,-4.6308,-4.6308,-4.6308,-4.6308,-4.6308,-4.6308,-4.6308,-4.6308,-4.6308,-4.6308,-4.6308,-4.6308,-4.6308,-4.6308,-4.6308,-4.6308,-4.6308,-4.6308,-4.6308,-4.6308,-4.6308,-4.6308,-4.6308,-4.6308,-4.6308,-4.6308,-4.6308,-4.6308,-4.6308,-4.6308,-4.6308,-4.6308,-4.6308,-4.6308,-4.6308,-4.6308,-4.6308,-4.6308,-4.707,-4.8144,-4.9473,-4.9629,-5.016,-5.1087,-5.0837,-5.0702,-3.4219,-3.5351,-3.6035,-3.7559,-3.7773,-3.7578,-3.7344,-3.6797,-3.6269,-3.6055,-3.5996,-3.5996,-3.5996,-3.5996,-3.5996,-3.5996,-3.5996,-3.5996,-3.5996,-3.5996,-3.5996,-3.5996,0.0,0.0,0.0,0.0,0.0,0.0,-3.5996,-3.5996,-3.5996,-3.5996,-3.5996,-3.5976,-3.5923,-3.5878,-3.5828,-3.5718,-3.5622,-3.5584,-3.5584,-3.5565,-3.5526,-3.6117,-3.731,-3.8877,-3.9339,-3.9973,-4.0735,-4.087,-4.0927,-4.0957,-4.1094,-4.1172,-4.1191,-4.1191,-4.1191,-4.1289,-4.1894,-4.2656,-4.3516,-4.4394,-4.5254,-4.6016,-4.623,-4.6308,-4.6308,-4.6308,-4.6308,-4.6308,-4.6308,-4.6308,-4.6308,-4.6308,-4.6308,-4.6308,-4.6308,-4.6308,-4.6308,-4.6308,-4.6308,-4.6308,-4.6308,-4.6308,-4.6308,-4.6308,-4.6308,-4.6308,-4.6308,-4.6308,-4.6308,-4.6308,-4.6308,-4.6308,-4.6308,-4.6308,-4.6308,-4.6308,-4.6308,-4.6308,-4.6308,-4.6308,-4.6308,-4.6308,-4.6816,-4.7554,-4.8513,-4.9058,-4.9809,-5.0721,-5.0702,-5.0702,-3.1894,-3.3555,-3.498,-3.5918,-3.7344,-3.832,-3.748,-3.7266,-3.6992,-3.6172,-3.5996,-3.5996,-3.5996,-3.5996,-3.5996,-3.5996,-3.5996,-3.5996,-3.5996,-3.5996,-3.5996,-3.5996,0.0,0.0,0.0,0.0,0.0,0.0,-3.5996,-3.5996,-3.5996,-3.5996,-3.5976,-3.5918,-3.5907,-3.5817,-3.5622,-3.5565,-3.5526,-3.5526,-3.5526,-3.5493,-3.5493,-3.5545,-3.6026,-3.6939,-3.8589,-3.9762,-4.0543,-4.0658,-4.0752,-4.082,-4.0957,-4.1094,-4.1191,-4.1191,-4.1191,-4.1211,-4.125,-4.1797,-4.2617,-4.3476,-4.4355,-4.5215,-4.6055,-4.6308,-4.6308,-4.6308,-4.6308,-4.6308,-4.6308,-4.6308,-4.6308,-4.6308,-4.6308,-4.6308,-4.6308,-4.6308,-4.6308,-4.6308,-4.6308,-4.6308,-4.6308,-4.6308,-4.6308,-4.6308,-4.6308,-4.6308,-4.6308,-4.6308,-4.6308,-4.6308,-4.6308,-4.6308,-4.6308,-4.6308,-4.6308,-4.6308,-4.6308,-4.6308,-4.6308,-4.6308,-4.6308,-4.6308,-4.6211,-4.6591,-4.7494,-4.8195,-4.8945,-4.9702,-5.0375,-5.0702,-3.1738,-3.2637,-3.3555,-3.5508,-3.6055,-3.6309,-3.7129,-3.6875,-3.6387,-3.6055,-3.5996,-3.5996,-3.5996,-3.5996,-3.5996,-3.5996,-3.5996,-3.5996,-3.5996,-3.5996,-3.5781,-3.5234,0.0,0.0,0.0,0.0,0.0,0.0,0.0,-3.5996,-3.5996,-3.5957,-3.5916,-3.5899,-3.577,-3.5661,-3.5545,-3.5526,-3.5493,-3.5493,-3.5493,-3.5493,-3.5493,-3.5493,-3.593,-3.6766,-3.794,-3.8945,-3.9781,-4.0469,-4.0777,-4.081,-4.1038,-4.1152,-4.1191,-4.1191,-4.1191,-4.1191,-4.1191,-4.1738,-4.2539,-4.3418,-4.4297,-4.5156,-4.6035,-4.6308,-4.6308,-4.6308,-4.6308,-4.6308,-4.6308,-4.6308,-4.6308,-4.6308,-4.6308,-4.6308,-4.6308,-4.6308,-4.6308,-4.6308,-4.6308,-4.6308,-4.6308,-4.6308,-4.6308,-4.6308,-4.6308,-4.6308,-4.6308,-4.6308,-4.6308,-4.6308,-4.6308,-4.6308,-4.6308,-4.6308,-4.6308,-4.6308,-4.6308,-4.6308,-4.6308,-4.6308,-4.6308,-4.6308,-4.625,-4.6651,-4.7528,-4.7612,-4.8416,-4.9856,-4.9952,-5.0298,-3.0937,-3.1758,-3.2734,-3.5,-3.5137,-3.5234,-3.7266,-3.7051,-3.6445,-3.6445,-3.6445,-3.6348,-3.6055,-3.5996,-3.5996,-3.5996,-3.5996,-3.5996,-3.5996,-3.5996,-3.5684,-3.4805,0.0,0.0,0.0,0.0,0.0,0.0,0.0,0.0,-3.5957,-3.5913,-3.5877,-3.579,-3.5661,-3.5565,-3.5493,-3.5493,-3.5493,-3.5493,-3.5493,-3.5493,-3.5493,-3.5493,-3.5795,-3.6348,-3.7506,-3.8479,-3.9381,-4.0354,-4.0783,-4.082,-4.1055,-4.1152,-4.1191,-4.1191,-4.1191,-4.1191,-4.1191,-4.1543,-4.2187,-4.332,-4.4082,-4.4785,-4.5957,-4.6308,-4.6308,-4.6308,-4.6308,-4.6308,-4.6308,-4.6308,-4.6308,-4.6308,-4.6308,-4.6308,-4.6308,-4.6308,-4.6308,-4.6308,-4.6308,-4.6308,-4.6308,-4.6308,-4.6308,-4.6308,-4.6308,-4.6308,-4.6308,-4.6308,-4.6308,-4.6308,-4.6308,-4.6308,-4.6308,-4.6308,-4.6308,-4.6308,-4.6308,-4.6308,-4.6308,-4.6308,-4.6308,-4.6308,-4.6308,-4.6582,-4.7168,-4.7225,-4.8048,-4.9505,-4.9616,-5.0106,0.0,0.0,0.0,-3.4219,-3.4629,-3.5293,-3.7891,-3.7812,-3.7207,-3.7285,-3.7266,-3.6973,-3.6172,-3.6016,-3.5996,-3.5996,-3.5996,-3.5996,-3.5996,-3.5996,-3.5684,-3.4805,0.0,0.0,0.0,0.0,0.0,0.0,-3.4707,-3.5078,-3.5859,-3.5881,-3.5795,-3.5603,-3.5545,-3.5493,-3.5493,-3.5493,-3.5493,-3.5493,-3.5493,-3.5493,-3.5493,-3.5493,-3.5493,-3.5603,-3.7261,-3.8479,-3.9342,-4.0296,-4.0733,-4.0801,-4.0957,-4.1074,-4.1191,-4.1191,-4.1191,-4.1191,-4.1191,-4.1211,-4.1504,-4.3164,-4.3711,-4.4062,-4.5781,-4.6308,-4.6308,-4.6308,-4.6308,-4.6308,-4.6308,-4.6308,-4.6308,-4.6308,-4.6308,-4.6308,-4.6308,-4.6308,-4.6308,-4.6308,-4.6308,-4.6308,-4.6308,-4.6308,-4.6308,-4.6308,-4.6308,-4.6308,-4.6308,-4.6308,-4.6308,-4.6308,-4.6308,-4.6308,-4.6308,-4.6308,-4.6308,-4.6308,-4.6308,-4.6308,-4.6308,-4.6308,-4.6308,-4.6308,-4.6308,-4.6308,-4.6308,-4.7012,-4.7754,-4.8535,-4.9394,-5.0201,-2.9531,0.0,0.0,0.0,0.0,0.0,-3.5332,-3.5098,-3.5019,-3.6914,-3.6309,-3.5723,-3.6758,-3.6426,-3.5996,-3.5996,-3.5996,-3.5996,-3.5996,-3.5996,-3.5684,-3.4805,0.0,0.0,0.0,0.0,0.0,0.0,-3.4922,-3.5718,-3.5883,-3.5765,-3.5641,-3.5545,-3.5526,-3.5493,-3.5493,-3.5493,-3.5493,-3.5493,-3.5493,-3.5493,-3.5493,-3.5493,-3.5493,-3.5603,-3.7261,-3.8137,-3.8466,-4.0065,-4.0733,-4.0801,-4.0957,-4.1074,-4.1191,-4.1191,-4.1191,-4.1191,-4.1191,-4.1582,-4.2246,-4.334,-4.4121,-4.4844,-4.5957,-4.6308,-4.6308,-4.6308,-4.6308,-4.6308,-4.6308,-4.6308,-4.6308,-4.6308,-4.6308,-4.6308,-4.6308,-4.6308,-4.6308,-4.6308,-4.6308,-4.6308,-4.6308,-4.6308,-4.6308,-4.6308,-4.6308,-4.6308,-4.6308,-4.6308,-4.6308,-4.6308,-4.6308,-4.6308,-4.6308,-4.6308,-4.6308,-4.6308,-4.6308,-4.6308,-4.6308,-4.6308,-4.6308,-4.6308,-4.6308,-4.6308,-4.6308,-4.6504,-4.7363,-4.8808,-4.9583,-4.9946,-2.9531,-3.0449,-3.1484,-3.2051,0.0,0.0,-3.4785,-3.457,-3.457,0.0,-3.6484,-3.5976,-3.6641,-3.6348,-3.5996,-3.5996,-3.5996,-3.5996,-3.5996,-3.5996,-3.5684,-3.4805,0.0,0.0,0.0,-3.3574,-3.4101,-3.3945,-3.4863,-3.5518,-3.5759,-3.5641,-3.5545,-3.5493,-3.5493,-3.5493,-3.5493,-3.5493,-3.5493,-3.5493,-3.5493,-3.5493,-3.5493,-3.5493,-3.5493,-3.5603,-3.7261,-3.8022,-3.8216,-3.9973,-4.075,-4.0824,-4.1008,-4.1133,-4.1191,-4.1191,-4.1191,-4.1191,-4.1191,-4.1738,-4.2539,-4.3418,-4.4297,-4.5156,-4.6035,-4.6308,-4.6308,-4.6308,-4.6308,-4.6308,-4.6308,-4.6308,-4.6308,-4.6308,-4.6308,-4.6308,-4.6308,-4.6308,-4.6308,-4.6308,-4.6308,-4.6308,-4.6308,-4.6308,-4.6308,-4.6308,-4.6308,-4.6308,-4.6308,-4.6308,-4.6308,-4.6308,-4.6308,-4.6308,-4.6308,-4.6308,-4.6308,-4.6308,-4.6308,-4.6308,-4.6308,-4.6308,-4.6308,-4.6308,-4.6308,-4.6308,-4.6308,-4.6308,-4.7012,-4.8379,-4.873,-4.9032,-2.963,-3.0799,-3.2051,-3.2168,-3.2266,0.0,-3.5078,-3.498,-3.4902,0.0,-3.6855,-3.6543,-3.5957,-3.5859,-3.582,-3.5723,-3.5957,-3.6113,-3.6016,-3.5996,-3.5703,-3.4941,0.0,0.0,-3.3633,-3.3633,-3.3965,-3.4648,-3.4704,-3.4978,-3.5572,-3.5545,-3.5493,-3.5493,-3.5493,-3.5493,-3.5493,-3.5493,-3.5493,-3.5493,-3.5493,-3.5493,-3.5493,-3.5493,-3.5493,-3.5603,-3.7261,-3.808,-3.8331,-4.0027,-4.0761,-4.0842,-4.1081,-4.1191,-4.1191,-4.1191,-4.1191,-4.1191,-4.1191,-4.1797,-4.2676,-4.3457,-4.4355,-4.5293,-4.6074,-4.6308,-4.6308,-4.6308,-4.6308,-4.6308,-4.6308,-4.6308,-4.6308,-4.6308,-4.6308,-4.6308,-4.6308,-4.6308,-4.6308,-4.6308,-4.6308,-4.6308,-4.6308,-4.6308,-4.6308,-4.6308,-4.6308,-4.6308,-4.6308,-4.6308,-4.6308,-4.6308,-4.6308,-4.6308,-4.6308,-4.6308,-4.6308,-4.6308,-4.6308,-4.6308,-4.6308,-4.6308,-4.6308,-4.6308,-4.6406,-4.6406,-4.6308,-4.6406,-4.6836,-4.7598,-4.748,-4.7832,-3.0675,-3.131,-3.2168,-3.2187,-3.2695,0.0,-3.2988,-3.2812,-3.3164,0.0,-3.4121,-3.3555,-3.4746,-3.4941,-3.4726,-3.4023,-3.5664,-3.6797,-3.6094,-3.5996,-3.5937,-3.5762,0.0,0.0,-3.4531,-3.5078,-3.5273,-3.4746,-3.5191,-3.5519,-3.5603,-3.5545,-3.5493,-3.5493,-3.5493,-3.5493,-3.5493,-3.5493,-3.5493,-3.5493,-3.5493,-3.5493,-3.5493,-3.5493,-3.5493,-3.5603,-3.7261,-3.808,-3.8331,-4.0085,-4.0848,-4.0977,-4.1014,-4.1094,-4.1191,-4.1191,-4.1191,-4.1191,-4.1191,-4.2187,-4.3476,-4.3633,-4.4766,-4.6074,-4.625,-4.6308,-4.6308,-4.6308,-4.6308,-4.6308,-4.6308,-4.6308,-4.6308,-4.6308,-4.6308,-4.6308,-4.6308,-4.6308,-4.6308,-4.6308,-4.6308,-4.6308,-4.6308,-4.6308,-4.6308,-4.6308,-4.6308,-4.6308,-4.6308,-4.6308,-4.6308,-4.6308,-4.6308,-4.6308,-4.6308,-4.6308,-4.6308,-4.6308,-4.6308,-4.6308,-4.6308,-4.6308,-4.6308,-4.6308,-4.6992,-4.6992,-4.6308,-4.6992,-4.7422,-4.7598,-4.7578,-4.7598,-3.0922,-3.1669,-3.2655,-3.2282,-3.2793,0.0,0.0,-3.248,-3.2676,-3.4355,-3.3691,-3.3184,-3.4453,-3.4336,-3.4043,-3.4043,-3.5156,-3.5996,-3.5996,-3.6367,-3.6641,-3.6641,0.0,0.0,-3.5391,-3.5742,-3.5781,-3.5234,-3.551,-3.5661,-3.5565,-3.5526,-3.5493,-3.5493,-3.5493,-3.5493,-3.5493,-3.5493,-3.5493,-3.5493,-3.5493,-3.5493,-3.5493,-3.5493,-3.5718,-3.6175,-3.7525,-3.8402,-3.9008,-4.0354,-4.0979,-4.1094,-4.1094,-4.1133,-4.1191,-4.1191,-4.1191,-4.1191,-4.1191,-4.2305,-4.3691,-4.3691,-4.4883,-4.6308,-4.6308,-4.6308,-4.6308,-4.6308,-4.6308,-4.6308,-4.6308,-4.6308,-4.6308,-4.6308,-4.6308,-4.6308,-4.6308,-4.6308,-4.6308,-4.6308,-4.6308,-4.6308,-4.6308,-4.6308,-4.6308,-4.6308,-4.6308,-4.6308,-4.6308,-4.6308,-4.6308,-4.6308,-4.6308,-4.6308,-4.6308,-4.6308,-4.6308,-4.6308,-4.6308,-4.6308,-4.6308,-4.6308,-4.6308,-4.6308,-4.7168,-4.7168,-4.6308,-4.7168,-4.7383,-4.6953,-4.6953,-4.6914,-3.1095,-3.2055,-3.3142,-3.2395,0.0,-3.3516,0.0,0.0,0.0,-3.3711,-3.3418,-3.3125,0.0,0.0,0.0,0.0,0.0,0.0,0.0,-3.6367,0.0,-3.7031,0.0,0.0,-3.5996,-3.5996,-3.5898,-3.5703,-3.5685,-3.5641,-3.5526,-3.5493,-3.5493,-3.5493,-3.5493,-3.5493,-3.5493,-3.5493,-3.5493,-3.5493,-3.5493,-3.5493,-3.5493,-3.5493,-3.5949,-3.6785,-3.7762,-3.8748,-3.9687,-4.0617,-4.1074,-4.1191,-4.1191,-4.1191,-4.1191,-4.1191,-4.1191,-4.1191,-4.1191,-4.2305,-4.3691,-4.3691,-4.4883,-4.6308,-4.6308,-4.6308,-4.6308,-4.6308,-4.6308,-4.6308,-4.6308,-4.6308,-4.6308,-4.6308,-4.6308,-4.6308,-4.6308,-4.6308,-4.6308,-4.6308,-4.6308,-4.6308,-4.6308,-4.6308,-4.6308,-4.6308,-4.6308,-4.6308,-4.6308,-4.6308,-4.6308,-4.6308,-4.6308,-4.6308,-4.6308,-4.6308,-4.6308,-4.6308,-4.6308,-4.6308,-4.6308,-4.6308,-4.6308,-4.6308,-4.7168,-4.7168,-4.6308,-4.7168,-4.7148,-4.6308,-4.6308,-4.6308,-3.2023,-3.2551,0.0,0.0,-3.3398,0.0,0.0,0.0,-3.2031,-3.1445,0.0,0.0,0.0,0.0,0.0,0.0,0.0,0.0,-3.4824,-3.4922,-3.5273,-3.6055,-3.6055,0.0,0.0,-3.5957,-3.5859,-3.5703,-3.5646,-3.5584,-3.5493,-3.5493,-3.5493,-3.5493,-3.5493,-3.5493,-3.5493,-3.5493,-3.5493,-3.5493,-3.5493,-3.5493,-3.5493,-3.5493,-3.6001,-3.692,-3.7805,-3.8785,-3.9764,-4.0637,-4.1074,-4.1191,-4.1191,-4.1191,-4.1191,-4.1191,-4.1191,-4.1191,-4.1191,-4.2305,-4.3691,-4.3691,-4.4883,-4.6308,-4.6308,-4.6308,-4.6308,-4.6308,-4.6308,-4.6308,-4.6308,-4.6308,-4.6308,-4.6308,-4.6308,-4.6308,-4.6308,-4.6308,-4.6308,-4.6308,-4.6308,-4.6308,-4.6308,-4.6308,-4.6308,-4.6308,-4.6308,-4.6308,-4.6308,-4.6308,-4.6308,-4.6308,-4.6308,-4.6308,-4.6308,-4.6308,-4.6308,-4.6308,-4.6308,-4.6308,-4.6308,-4.6308,-4.6308,-4.6308,-4.7168,-4.7168,-4.6308,-4.7168,-4.7148,-4.6308,-4.6308,-4.6308,-3.1417,0.0,0.0,0.0,0.0,0.0,-3.1992,0.0,-3.1484,0.0,0.0,0.0,0.0,0.0,0.0,0.0,-3.2559,0.0,0.0,0.0,-3.4648,0.0,0.0,0.0,0.0,0.0,0.0,0.0,-3.6115,-3.6309,-3.6194,-3.6689,-3.6953,-3.6953,-3.6458,-3.6194,-3.6194,-3.5738,-3.5493,-3.5493,-3.5493,-3.5493,-3.5493,-3.5545,-3.6059,-3.6947,-3.7897,-3.8832,-3.976,-4.0715,-4.1152,-4.1191,-4.1191,-4.1191,-4.1191,-4.1191,-4.1191,-4.1191,-4.1191,-4.2305,-4.3867,-4.4883,-4.5703,-4.6308,-4.6308,-4.6308,-4.6308,-4.6308,-4.6308,-4.6308,-4.6308,-4.6308,-4.6308,-4.6308,-4.6308,-4.6308,-4.6308,-4.6308,-4.6308,-4.6308,-4.6308,-4.6308,-4.6308,-4.6308,-4.6308,-4.6308,-4.6308,-4.6308,-4.6308,-4.6308,-4.6308,-4.6308,-4.6308,-4.6308,-4.6308,-4.6308,-4.6308,-4.6308,-4.6308,-4.6308,-4.6308,-4.6308,-4.6308,-4.6308,-4.7168,-4.7168,-4.6308,-4.7168,-4.7148,-4.6308,-4.6308,-4.6308,-3.0882,0.0,0.0,0.0,0.0,0.0,0.0,0.0,0.0,0.0,0.0,0.0,0.0,0.0,-3.1113,-3.1738,0.0,-3.2129,0.0,-3.2871,0.0,0.0,0.0,0.0,0.0,0.0,0.0,0.0,0.0,-3.692,-3.7103,-3.7676,-3.7998,-3.7998,-3.7387,-3.6944,-3.6708,-3.6117,-3.5718,-3.5493,-3.5493,-3.5526,-3.5545,-3.5584,-3.6105,-3.7046,-3.7985,-3.8926,-3.9824,-4.0801,-4.1191,-4.1191,-4.1191,-4.1191,-4.1191,-4.1191,-4.1191,-4.1191,-4.1191,-4.2305,-4.3984,-4.5723,-4.6308,-4.6308,-4.6308,-4.6308,-4.6308,-4.6308,-4.6308,-4.6308,-4.6308,-4.6308,-4.6308,-4.6308,-4.6308,-4.6308,-4.6308,-4.6308,-4.6308,-4.6308,-4.6308,-4.6308,-4.6308,-4.6308,-4.6308,-4.6308,-4.6308,-4.6308,-4.6308,-4.6308,-4.6308,-4.6308,-4.6308,-4.6308,-4.6308,-4.6308,-4.6308,-4.6308,-4.6308,-4.6308,-4.6308,-4.6308,-4.6308,-4.6308,-4.6914,-4.6933,-4.6308,-4.6933,-4.6914,-4.6308,-4.6308,-4.6308,0.0,0.0,0.0,-3.1152,0.0,0.0,0.0,0.0,-3.1934,0.0,0.0,0.0,-3.1094,-3.0918,-3.0918,-3.0937,-3.0937,0.0,0.0,0.0,0.0,0.0,0.0,0.0,0.0,0.0,0.0,0.0,0.0,0.0,-3.8101,-3.8063,-3.8005,-3.8005,-3.7986,-3.7555,-3.6708,-3.667,-3.6271,-3.5493,-3.5493,-3.5545,-3.5603,-3.5603,-3.6181,-3.7246,-3.8047,-3.8965,-3.9961,-4.084,-4.1191,-4.1191,-4.1191,-4.1191,-4.1191,-4.1191,-4.1191,-4.1191,-4.1191,-4.2305,-4.3984,-4.5723,-4.6308,-4.6308,-4.6308,-4.6308,-4.6308,-4.6308,-4.6308,-4.6308,-4.6308,-4.6308,-4.6308,-4.6308,-4.6308,-4.6308,-4.6308,-4.6308,-4.6308,-4.6308,-4.6308,-4.6308,-4.6308,-4.6308,-4.6308,-4.6308,-4.6308,-4.6308,-4.6308,-4.6308,-4.6308,-4.6308,-4.6308,-4.6308,-4.6308,-4.6308,-4.6308,-4.6308,-4.6308,-4.6308,-4.6308,-4.6308,-4.6308,-4.6308,-4.6328,-4.6328,-4.6308,-4.6328,-4.6328,-4.6308,-4.6308,-4.6308,0.0,0.0,-3.1992,-3.1113,0.0,0.0,0.0,0.0,0.0,0.0,0.0,0.0,0.0,-3.0898,-3.0898,-3.0898,-3.0898,-3.0996,0.0,-3.1582,0.0,0.0,0.0,0.0,0.0,0.0,0.0,0.0,-3.7553,0.0,0.0,-3.9496,-3.9742,-3.9665,-3.915,-3.8727,-3.8416,-3.7271,-3.6612,-3.6406,-3.5834,-3.5603,-3.5674,-3.5753,-3.5991,-3.6387,-3.7285,-3.8184,-3.9101,-3.998,-4.0684,-4.1191,-4.1191,-4.1191,-4.1191,-4.1191,-4.1191,-4.1367,-4.2461,-4.3223,-4.3984,-4.5723,-4.6308,-4.6308,-4.6308,-4.6308,-4.6308,-4.6308,-4.6308,-4.6308,-4.6308,-4.6308,-4.6308,-4.6308,-4.6308,-4.6308,-4.6308,-4.6308,-4.6308,-4.6308,-4.6308,-4.6308,-4.6308,-4.6308,-4.6308,-4.6308,-4.6308,-4.6308,-4.6308,-4.6308,-4.6308,-4.6308,-4.6308,-4.6308,-4.6308,-4.6308,-4.6308,-4.6308,-4.6308,-4.6308,-4.6308,-4.6308,-4.6308,-4.6308,-4.6308,-4.6308,-4.6308,-4.6308,-4.6308,-4.6308,-4.6308,-4.6308,-3.0762,-3.123,0.0,-3.1035,-3.1328,0.0,-3.1035,0.0,0.0,0.0,0.0,0.0,0.0,-3.1113,-3.0996,-3.1309,-3.1094,-3.0898,0.0,-3.1387,0.0,0.0,0.0,-3.5547,0.0,-3.6211,-3.6955,-3.7653,-3.8053,0.0,0.0,0.0,-4.0639,-4.0489,-3.9992,-3.9608,-3.9342,-3.8219,-3.7406,-3.6934,-3.6366,-3.5978,-3.5773,-3.5857,-3.5918,-3.5996,-3.7226,-3.8086,-3.8691,-3.9883,-4.0684,-4.1191,-4.1191,-4.1191,-4.1191,-4.1191,-4.1191,-4.1445,-4.3125,-4.3691,-4.3984,-4.5723,-4.6308,-4.6308,-4.6308,-4.6308,-4.6308,-4.6308,-4.6308,-4.6308,-4.6308,-4.6308,-4.6308,-4.6308,-4.6308,-4.6308,-4.6308,-4.6308,-4.6308,-4.6308,-4.6308,-4.6308,-4.6308,-4.6308,-4.6308,-4.6308,-4.6308,-4.6308,-4.6308,-4.6308,-4.6308,-4.6308,-4.6308,-4.6308,-4.6308,-4.6308,-4.6308,-4.6308,-4.6308,-4.6308,-4.6308,-4.6308,-4.6308,-4.6308,-4.6308,-4.6308,-4.6308,-4.6308,-4.6308,-4.6308,-4.6308,-4.6308]}]]